<?xml version='1.0' encoding='UTF-8'?>
<gpx version="1.1" creator="https://www.komoot.de" xmlns="http://www.topografix.com/GPX/1/1" xmlns:xsi="http://www.w3.org/2001/XMLSchema-instance" xsi:schemaLocation="http://www.topografix.com/GPX/1/1 http://www.topografix.com/GPX/1/1/gpx.xsd">
  <metadata>
    <name>61_780TuellingrAugst</name>
    <author>
      <link href="https://www.komoot.de">
        <text>komoot</text>
        <type>text/html</type>
      </link>
    </author>
  </metadata>
  <trk>
    <name>61_780TuellingrAugst</name>
    <trkseg>
      <trkpt lat="47.541310" lon="7.870874">
        <ele>339.204568</ele>
        <time>2021-11-16T22:03:47.992Z</time>
      </trkpt>
      <trkpt lat="47.541410" lon="7.870791">
        <ele>339.204568</ele>
        <time>2021-11-16T22:03:49.806Z</time>
      </trkpt>
      <trkpt lat="47.541576" lon="7.870664">
        <ele>339.204568</ele>
        <time>2021-11-16T22:03:52.245Z</time>
      </trkpt>
      <trkpt lat="47.541550" lon="7.870601">
        <ele>339.204568</ele>
        <time>2021-11-16T22:03:53.056Z</time>
      </trkpt>
      <trkpt lat="47.541521" lon="7.870517">
        <ele>339.204568</ele>
        <time>2021-11-16T22:03:54.088Z</time>
      </trkpt>
      <trkpt lat="47.541606" lon="7.870424">
        <ele>339.204568</ele>
        <time>2021-11-16T22:03:55.740Z</time>
      </trkpt>
      <trkpt lat="47.541910" lon="7.870106">
        <ele>339.204568</ele>
        <time>2021-11-16T22:04:01.403Z</time>
      </trkpt>
      <trkpt lat="47.542014" lon="7.870126">
        <ele>339.112422</ele>
        <time>2021-11-16T22:04:02.874Z</time>
      </trkpt>
      <trkpt lat="47.542118" lon="7.870135">
        <ele>339.014836</ele>
        <time>2021-11-16T22:04:04.606Z</time>
      </trkpt>
      <trkpt lat="47.542181" lon="7.870131">
        <ele>338.955767</ele>
        <time>2021-11-16T22:04:05.473Z</time>
      </trkpt>
      <trkpt lat="47.542317" lon="7.870012">
        <ele>338.807808</ele>
        <time>2021-11-16T22:04:07.590Z</time>
      </trkpt>
      <trkpt lat="47.542348" lon="7.869983">
        <ele>338.773464</ele>
        <time>2021-11-16T22:04:08.029Z</time>
      </trkpt>
      <trkpt lat="47.542329" lon="7.869820">
        <ele>338.668867</ele>
        <time>2021-11-16T22:04:09.800Z</time>
      </trkpt>
      <trkpt lat="47.542372" lon="7.869746">
        <ele>338.607126</ele>
        <time>2021-11-16T22:04:10.611Z</time>
      </trkpt>
      <trkpt lat="47.542657" lon="7.869354">
        <ele>338.242826</ele>
        <time>2021-11-16T22:04:15.411Z</time>
      </trkpt>
      <trkpt lat="47.542696" lon="7.869257">
        <ele>338.171434</ele>
        <time>2021-11-16T22:04:16.346Z</time>
      </trkpt>
      <trkpt lat="47.542722" lon="7.869201">
        <ele>338.128456</ele>
        <time>2021-11-16T22:04:16.938Z</time>
      </trkpt>
      <trkpt lat="47.543049" lon="7.868759">
        <ele>337.713798</ele>
        <time>2021-11-16T22:04:21.851Z</time>
      </trkpt>
      <trkpt lat="47.543105" lon="7.868711">
        <ele>337.653193</ele>
        <time>2021-11-16T22:04:22.589Z</time>
      </trkpt>
      <trkpt lat="47.543201" lon="7.868657">
        <ele>337.557002</ele>
        <time>2021-11-16T22:04:23.667Z</time>
      </trkpt>
      <trkpt lat="47.543657" lon="7.868359">
        <ele>336.908287</ele>
        <time>2021-11-16T22:04:29.463Z</time>
      </trkpt>
      <trkpt lat="47.543801" lon="7.868269">
        <ele>336.699910</ele>
        <time>2021-11-16T22:04:31.942Z</time>
      </trkpt>
      <trkpt lat="47.544214" lon="7.867988">
        <ele>336.093973</ele>
        <time>2021-11-16T22:04:39.559Z</time>
      </trkpt>
      <trkpt lat="47.544246" lon="7.867967">
        <ele>336.047310</ele>
        <time>2021-11-16T22:04:40.155Z</time>
      </trkpt>
      <trkpt lat="47.544410" lon="7.867825">
        <ele>335.794047</ele>
        <time>2021-11-16T22:04:43.408Z</time>
      </trkpt>
      <trkpt lat="47.544469" lon="7.867776">
        <ele>335.703866</ele>
        <time>2021-11-16T22:04:44.430Z</time>
      </trkpt>
      <trkpt lat="47.544568" lon="7.867693">
        <ele>335.552202</ele>
        <time>2021-11-16T22:04:46.357Z</time>
      </trkpt>
      <trkpt lat="47.545003" lon="7.867278">
        <ele>335.232618</ele>
        <time>2021-11-16T22:04:55.206Z</time>
      </trkpt>
      <trkpt lat="47.545160" lon="7.866985">
        <ele>335.376708</ele>
        <time>2021-11-16T22:04:59.856Z</time>
      </trkpt>
      <trkpt lat="47.545240" lon="7.866887">
        <ele>335.435943</ele>
        <time>2021-11-16T22:05:02.130Z</time>
      </trkpt>
      <trkpt lat="47.546096" lon="7.866147">
        <ele>336.001469</ele>
        <time>2021-11-16T22:05:27.200Z</time>
      </trkpt>
      <trkpt lat="47.546327" lon="7.865959">
        <ele>336.149245</ele>
        <time>2021-11-16T22:05:33.620Z</time>
      </trkpt>
      <trkpt lat="47.546510" lon="7.865766">
        <ele>336.190847</ele>
        <time>2021-11-16T22:05:40.006Z</time>
      </trkpt>
      <trkpt lat="47.546819" lon="7.865489">
        <ele>336.257734</ele>
        <time>2021-11-16T22:05:48.159Z</time>
      </trkpt>
      <trkpt lat="47.546889" lon="7.865225">
        <ele>336.293191</ele>
        <time>2021-11-16T22:05:51.946Z</time>
      </trkpt>
      <trkpt lat="47.546894" lon="7.864837">
        <ele>336.341702</ele>
        <time>2021-11-16T22:05:57.123Z</time>
      </trkpt>
      <trkpt lat="47.546885" lon="7.864500">
        <ele>336.383863</ele>
        <time>2021-11-16T22:06:02.762Z</time>
      </trkpt>
      <trkpt lat="47.546974" lon="7.864423">
        <ele>336.402950</ele>
        <time>2021-11-16T22:06:04.350Z</time>
      </trkpt>
      <trkpt lat="47.547320" lon="7.863864">
        <ele>336.342230</ele>
        <time>2021-11-16T22:06:14.275Z</time>
      </trkpt>
      <trkpt lat="47.547568" lon="7.863151">
        <ele>335.506793</ele>
        <time>2021-11-16T22:06:23.288Z</time>
      </trkpt>
      <trkpt lat="47.547930" lon="7.861711">
        <ele>333.906307</ele>
        <time>2021-11-16T22:06:39.662Z</time>
      </trkpt>
      <trkpt lat="47.548049" lon="7.860929">
        <ele>333.187432</ele>
        <time>2021-11-16T22:06:48.362Z</time>
      </trkpt>
      <trkpt lat="47.548334" lon="7.859801">
        <ele>332.162513</ele>
        <time>2021-11-16T22:07:01.843Z</time>
      </trkpt>
      <trkpt lat="47.548611" lon="7.858381">
        <ele>331.347782</ele>
        <time>2021-11-16T22:07:19.800Z</time>
      </trkpt>
      <trkpt lat="47.548686" lon="7.857973">
        <ele>331.286901</ele>
        <time>2021-11-16T22:07:25.189Z</time>
      </trkpt>
      <trkpt lat="47.548701" lon="7.857893">
        <ele>331.274947</ele>
        <time>2021-11-16T22:07:26.309Z</time>
      </trkpt>
      <trkpt lat="47.548743" lon="7.857692">
        <ele>331.244653</ele>
        <time>2021-11-16T22:07:29.083Z</time>
      </trkpt>
      <trkpt lat="47.548887" lon="7.857308">
        <ele>331.181407</ele>
        <time>2021-11-16T22:07:35.117Z</time>
      </trkpt>
      <trkpt lat="47.549362" lon="7.855774">
        <ele>330.861274</ele>
        <time>2021-11-16T22:07:59.162Z</time>
      </trkpt>
      <trkpt lat="47.549566" lon="7.855225">
        <ele>330.711004</ele>
        <time>2021-11-16T22:08:07.778Z</time>
      </trkpt>
      <trkpt lat="47.549883" lon="7.854434">
        <ele>330.490426</ele>
        <time>2021-11-16T22:08:19.233Z</time>
      </trkpt>
      <trkpt lat="47.550221" lon="7.853833">
        <ele>329.644410</ele>
        <time>2021-11-16T22:08:25.626Z</time>
      </trkpt>
      <trkpt lat="47.551516" lon="7.851950">
        <ele>324.944324</ele>
        <time>2021-11-16T22:08:44.418Z</time>
      </trkpt>
      <trkpt lat="47.551660" lon="7.851725">
        <ele>324.256414</ele>
        <time>2021-11-16T22:08:46.451Z</time>
      </trkpt>
      <trkpt lat="47.551830" lon="7.851603">
        <ele>323.635513</ele>
        <time>2021-11-16T22:08:48.371Z</time>
      </trkpt>
      <trkpt lat="47.551925" lon="7.851845">
        <ele>323.014420</ele>
        <time>2021-11-16T22:08:50.216Z</time>
      </trkpt>
      <trkpt lat="47.552042" lon="7.852007">
        <ele>322.488040</ele>
        <time>2021-11-16T22:08:51.860Z</time>
      </trkpt>
      <trkpt lat="47.552097" lon="7.852063">
        <ele>322.268678</ele>
        <time>2021-11-16T22:08:52.493Z</time>
      </trkpt>
      <trkpt lat="47.552158" lon="7.852099">
        <ele>322.052846</ele>
        <time>2021-11-16T22:08:53.144Z</time>
      </trkpt>
      <trkpt lat="47.552272" lon="7.852167">
        <ele>321.648893</ele>
        <time>2021-11-16T22:08:54.400Z</time>
      </trkpt>
      <trkpt lat="47.552324" lon="7.852186">
        <ele>321.472844</ele>
        <time>2021-11-16T22:08:54.942Z</time>
      </trkpt>
      <trkpt lat="47.552449" lon="7.852231">
        <ele>321.050005</ele>
        <time>2021-11-16T22:08:56.202Z</time>
      </trkpt>
      <trkpt lat="47.552678" lon="7.851709">
        <ele>319.826929</ele>
        <time>2021-11-16T22:09:00.473Z</time>
      </trkpt>
      <trkpt lat="47.552876" lon="7.851300">
        <ele>319.097183</ele>
        <time>2021-11-16T22:09:04.020Z</time>
      </trkpt>
      <trkpt lat="47.553283" lon="7.850634">
        <ele>317.794597</ele>
        <time>2021-11-16T22:09:10.691Z</time>
      </trkpt>
      <trkpt lat="47.553344" lon="7.850525">
        <ele>317.589308</ele>
        <time>2021-11-16T22:09:11.774Z</time>
      </trkpt>
      <trkpt lat="47.553380" lon="7.850453">
        <ele>317.459397</ele>
        <time>2021-11-16T22:09:12.462Z</time>
      </trkpt>
      <trkpt lat="47.553537" lon="7.849904">
        <ele>316.594953</ele>
        <time>2021-11-16T22:09:16.947Z</time>
      </trkpt>
      <trkpt lat="47.553605" lon="7.849629">
        <ele>316.202195</ele>
        <time>2021-11-16T22:09:19.238Z</time>
      </trkpt>
      <trkpt lat="47.553725" lon="7.849291">
        <ele>315.842197</ele>
        <time>2021-11-16T22:09:22.160Z</time>
      </trkpt>
      <trkpt lat="47.554055" lon="7.848586">
        <ele>315.033464</ele>
        <time>2021-11-16T22:09:29.058Z</time>
      </trkpt>
      <trkpt lat="47.554209" lon="7.848300">
        <ele>314.688588</ele>
        <time>2021-11-16T22:09:32.021Z</time>
      </trkpt>
      <trkpt lat="47.554269" lon="7.848188">
        <ele>314.553800</ele>
        <time>2021-11-16T22:09:33.100Z</time>
      </trkpt>
      <trkpt lat="47.554351" lon="7.848049">
        <ele>314.379779</ele>
        <time>2021-11-16T22:09:34.560Z</time>
      </trkpt>
      <trkpt lat="47.554465" lon="7.847858">
        <ele>314.139436</ele>
        <time>2021-11-16T22:09:36.641Z</time>
      </trkpt>
      <trkpt lat="47.554618" lon="7.847626">
        <ele>313.833680</ele>
        <time>2021-11-16T22:09:39.140Z</time>
      </trkpt>
      <trkpt lat="47.554759" lon="7.847388">
        <ele>313.553236</ele>
        <time>2021-11-16T22:09:41.557Z</time>
      </trkpt>
      <trkpt lat="47.554892" lon="7.847148">
        <ele>313.285224</ele>
        <time>2021-11-16T22:09:43.989Z</time>
      </trkpt>
      <trkpt lat="47.554995" lon="7.846915">
        <ele>313.044836</ele>
        <time>2021-11-16T22:09:46.145Z</time>
      </trkpt>
      <trkpt lat="47.555068" lon="7.846672">
        <ele>312.815278</ele>
        <time>2021-11-16T22:09:48.206Z</time>
      </trkpt>
      <trkpt lat="47.555199" lon="7.846687">
        <ele>312.647254</ele>
        <time>2021-11-16T22:09:49.687Z</time>
      </trkpt>
      <trkpt lat="47.555727" lon="7.846715">
        <ele>311.971613</ele>
        <time>2021-11-16T22:09:56.145Z</time>
      </trkpt>
      <trkpt lat="47.555855" lon="7.846815">
        <ele>311.786568</ele>
        <time>2021-11-16T22:09:57.807Z</time>
      </trkpt>
      <trkpt lat="47.555892" lon="7.846856">
        <ele>311.727484</ele>
        <time>2021-11-16T22:09:58.365Z</time>
      </trkpt>
      <trkpt lat="47.555966" lon="7.846932">
        <ele>311.612344</ele>
        <time>2021-11-16T22:09:59.514Z</time>
      </trkpt>
      <trkpt lat="47.555990" lon="7.846965">
        <ele>311.570475</ele>
        <time>2021-11-16T22:09:59.946Z</time>
      </trkpt>
      <trkpt lat="47.556060" lon="7.846859">
        <ele>311.445138</ele>
        <time>2021-11-16T22:10:01.140Z</time>
      </trkpt>
      <trkpt lat="47.556636" lon="7.845928">
        <ele>310.788790</ele>
        <time>2021-11-16T22:10:11.526Z</time>
      </trkpt>
      <trkpt lat="47.557134" lon="7.845095">
        <ele>310.210490</ele>
        <time>2021-11-16T22:10:21.345Z</time>
      </trkpt>
      <trkpt lat="47.557282" lon="7.844832">
        <ele>310.058606</ele>
        <time>2021-11-16T22:10:24.484Z</time>
      </trkpt>
      <trkpt lat="47.557409" lon="7.844650">
        <ele>310.034732</ele>
        <time>2021-11-16T22:10:26.791Z</time>
      </trkpt>
      <trkpt lat="47.557560" lon="7.844433">
        <ele>310.006307</ele>
        <time>2021-11-16T22:10:29.665Z</time>
      </trkpt>
      <trkpt lat="47.557715" lon="7.843940">
        <ele>309.956709</ele>
        <time>2021-11-16T22:10:34.671Z</time>
      </trkpt>
      <trkpt lat="47.557759" lon="7.843839">
        <ele>309.945746</ele>
        <time>2021-11-16T22:10:35.850Z</time>
      </trkpt>
      <trkpt lat="47.557846" lon="7.843756">
        <ele>309.931764</ele>
        <time>2021-11-16T22:10:37.199Z</time>
      </trkpt>
      <trkpt lat="47.557967" lon="7.843683">
        <ele>309.914109</ele>
        <time>2021-11-16T22:10:39.232Z</time>
      </trkpt>
      <trkpt lat="47.558136" lon="7.843582">
        <ele>309.889485</ele>
        <time>2021-11-16T22:10:41.920Z</time>
      </trkpt>
      <trkpt lat="47.558405" lon="7.843371">
        <ele>309.848356</ele>
        <time>2021-11-16T22:10:46.784Z</time>
      </trkpt>
      <trkpt lat="47.558471" lon="7.843365">
        <ele>309.839420</ele>
        <time>2021-11-16T22:10:47.636Z</time>
      </trkpt>
      <trkpt lat="47.558555" lon="7.843392">
        <ele>309.827805</ele>
        <time>2021-11-16T22:10:48.917Z</time>
      </trkpt>
      <trkpt lat="47.558884" lon="7.843836">
        <ele>309.864282</ele>
        <time>2021-11-16T22:10:56.195Z</time>
      </trkpt>
      <trkpt lat="47.559060" lon="7.844197">
        <ele>309.897107</ele>
        <time>2021-11-16T22:11:01.022Z</time>
      </trkpt>
      <trkpt lat="47.559109" lon="7.844229">
        <ele>309.902955</ele>
        <time>2021-11-16T22:11:02.069Z</time>
      </trkpt>
      <trkpt lat="47.559158" lon="7.844233">
        <ele>309.908315</ele>
        <time>2021-11-16T22:11:03.017Z</time>
      </trkpt>
      <trkpt lat="47.559583" lon="7.843813">
        <ele>309.964108</ele>
        <time>2021-11-16T22:11:10.997Z</time>
      </trkpt>
      <trkpt lat="47.559847" lon="7.843604">
        <ele>309.996798</ele>
        <time>2021-11-16T22:11:15.395Z</time>
      </trkpt>
      <trkpt lat="47.560139" lon="7.843433">
        <ele>309.902022</ele>
        <time>2021-11-16T22:11:19.626Z</time>
      </trkpt>
      <trkpt lat="47.560209" lon="7.843393">
        <ele>309.832136</ele>
        <time>2021-11-16T22:11:20.577Z</time>
      </trkpt>
      <trkpt lat="47.560338" lon="7.843341">
        <ele>309.707604</ele>
        <time>2021-11-16T22:11:22.243Z</time>
      </trkpt>
      <trkpt lat="47.560430" lon="7.843341">
        <ele>309.621905</ele>
        <time>2021-11-16T22:11:23.786Z</time>
      </trkpt>
      <trkpt lat="47.560515" lon="7.843379">
        <ele>309.539201</ele>
        <time>2021-11-16T22:11:24.820Z</time>
      </trkpt>
      <trkpt lat="47.560658" lon="7.843466">
        <ele>309.395205</ele>
        <time>2021-11-16T22:11:26.785Z</time>
      </trkpt>
      <trkpt lat="47.560812" lon="7.843560">
        <ele>309.240059</ele>
        <time>2021-11-16T22:11:28.879Z</time>
      </trkpt>
      <trkpt lat="47.560934" lon="7.843550">
        <ele>309.126241</ele>
        <time>2021-11-16T22:11:30.401Z</time>
      </trkpt>
      <trkpt lat="47.561038" lon="7.843502">
        <ele>309.024773</ele>
        <time>2021-11-16T22:11:31.690Z</time>
      </trkpt>
      <trkpt lat="47.561434" lon="7.843181">
        <ele>308.604313</ele>
        <time>2021-11-16T22:11:37.131Z</time>
      </trkpt>
      <trkpt lat="47.561498" lon="7.843130">
        <ele>308.536623</ele>
        <time>2021-11-16T22:11:37.895Z</time>
      </trkpt>
      <trkpt lat="47.562179" lon="7.842500">
        <ele>307.598519</ele>
        <time>2021-11-16T22:11:47.153Z</time>
      </trkpt>
      <trkpt lat="47.562300" lon="7.842326">
        <ele>307.387449</ele>
        <time>2021-11-16T22:11:49.105Z</time>
      </trkpt>
      <trkpt lat="47.562385" lon="7.842183">
        <ele>307.226465</ele>
        <time>2021-11-16T22:11:50.516Z</time>
      </trkpt>
      <trkpt lat="47.562440" lon="7.842083">
        <ele>307.117484</ele>
        <time>2021-11-16T22:11:51.632Z</time>
      </trkpt>
      <trkpt lat="47.562574" lon="7.841873">
        <ele>306.873331</ele>
        <time>2021-11-16T22:11:54.030Z</time>
      </trkpt>
      <trkpt lat="47.562904" lon="7.841632">
        <ele>306.412771</ele>
        <time>2021-11-16T22:11:58.519Z</time>
      </trkpt>
      <trkpt lat="47.562965" lon="7.841597">
        <ele>306.330882</ele>
        <time>2021-11-16T22:11:59.307Z</time>
      </trkpt>
      <trkpt lat="47.563016" lon="7.841568">
        <ele>306.262498</ele>
        <time>2021-11-16T22:12:00.008Z</time>
      </trkpt>
      <trkpt lat="47.563300" lon="7.841391">
        <ele>305.912000</ele>
        <time>2021-11-16T22:12:03.745Z</time>
      </trkpt>
      <trkpt lat="47.563483" lon="7.841269">
        <ele>305.702189</ele>
        <time>2021-11-16T22:12:06.304Z</time>
      </trkpt>
      <trkpt lat="47.563659" lon="7.841150">
        <ele>305.499919</ele>
        <time>2021-11-16T22:12:08.631Z</time>
      </trkpt>
      <trkpt lat="47.563805" lon="7.841046">
        <ele>305.330545</ele>
        <time>2021-11-16T22:12:10.693Z</time>
      </trkpt>
      <trkpt lat="47.563941" lon="7.840948">
        <ele>305.172427</ele>
        <time>2021-11-16T22:12:12.545Z</time>
      </trkpt>
      <trkpt lat="47.563986" lon="7.840916">
        <ele>305.120240</ele>
        <time>2021-11-16T22:12:13.166Z</time>
      </trkpt>
      <trkpt lat="47.564094" lon="7.840838">
        <ele>304.994621</ele>
        <time>2021-11-16T22:12:14.635Z</time>
      </trkpt>
      <trkpt lat="47.564463" lon="7.840580">
        <ele>304.568018</ele>
        <time>2021-11-16T22:12:19.622Z</time>
      </trkpt>
      <trkpt lat="47.564534" lon="7.840532">
        <ele>304.486422</ele>
        <time>2021-11-16T22:12:20.529Z</time>
      </trkpt>
      <trkpt lat="47.564558" lon="7.840516">
        <ele>304.458906</ele>
        <time>2021-11-16T22:12:20.852Z</time>
      </trkpt>
      <trkpt lat="47.564936" lon="7.840261">
        <ele>304.014214</ele>
        <time>2021-11-16T22:12:25.753Z</time>
      </trkpt>
      <trkpt lat="47.565057" lon="7.840213">
        <ele>303.875857</ele>
        <time>2021-11-16T22:12:27.166Z</time>
      </trkpt>
      <trkpt lat="47.565168" lon="7.840179">
        <ele>303.750659</ele>
        <time>2021-11-16T22:12:28.509Z</time>
      </trkpt>
      <trkpt lat="47.565233" lon="7.840176">
        <ele>303.678828</ele>
        <time>2021-11-16T22:12:29.245Z</time>
      </trkpt>
      <trkpt lat="47.565343" lon="7.840185">
        <ele>303.557141</ele>
        <time>2021-11-16T22:12:30.505Z</time>
      </trkpt>
      <trkpt lat="47.565906" lon="7.840272">
        <ele>302.931901</ele>
        <time>2021-11-16T22:12:37.365Z</time>
      </trkpt>
      <trkpt lat="47.566081" lon="7.840309">
        <ele>302.736645</ele>
        <time>2021-11-16T22:12:39.507Z</time>
      </trkpt>
      <trkpt lat="47.566142" lon="7.840322">
        <ele>302.668574</ele>
        <time>2021-11-16T22:12:40.190Z</time>
      </trkpt>
      <trkpt lat="47.566221" lon="7.840340">
        <ele>302.580288</ele>
        <time>2021-11-16T22:12:41.388Z</time>
      </trkpt>
      <trkpt lat="47.566350" lon="7.840350">
        <ele>302.437605</ele>
        <time>2021-11-16T22:12:43.077Z</time>
      </trkpt>
      <trkpt lat="47.566450" lon="7.840326">
        <ele>302.325710</ele>
        <time>2021-11-16T22:12:44.300Z</time>
      </trkpt>
      <trkpt lat="47.566515" lon="7.840312">
        <ele>302.253159</ele>
        <time>2021-11-16T22:12:45.046Z</time>
      </trkpt>
      <trkpt lat="47.566592" lon="7.840279">
        <ele>302.190176</ele>
        <time>2021-11-16T22:12:46.236Z</time>
      </trkpt>
      <trkpt lat="47.566826" lon="7.840179">
        <ele>302.038834</ele>
        <time>2021-11-16T22:12:49.170Z</time>
      </trkpt>
      <trkpt lat="47.567111" lon="7.839998">
        <ele>301.846148</ele>
        <time>2021-11-16T22:12:53.196Z</time>
      </trkpt>
      <trkpt lat="47.567406" lon="7.839778">
        <ele>301.640922</ele>
        <time>2021-11-16T22:12:57.448Z</time>
      </trkpt>
      <trkpt lat="47.567481" lon="7.839664">
        <ele>301.574160</ele>
        <time>2021-11-16T22:12:58.687Z</time>
      </trkpt>
      <trkpt lat="47.567510" lon="7.839548">
        <ele>301.522290</ele>
        <time>2021-11-16T22:12:59.965Z</time>
      </trkpt>
      <trkpt lat="47.567530" lon="7.839459">
        <ele>301.482957</ele>
        <time>2021-11-16T22:13:00.820Z</time>
      </trkpt>
      <trkpt lat="47.567564" lon="7.839283">
        <ele>301.406195</ele>
        <time>2021-11-16T22:13:02.474Z</time>
      </trkpt>
      <trkpt lat="47.567626" lon="7.839064">
        <ele>301.306613</ele>
        <time>2021-11-16T22:13:04.620Z</time>
      </trkpt>
      <trkpt lat="47.567634" lon="7.839037">
        <ele>301.294249</ele>
        <time>2021-11-16T22:13:04.860Z</time>
      </trkpt>
      <trkpt lat="47.567823" lon="7.838648">
        <ele>301.091909</ele>
        <time>2021-11-16T22:13:09.433Z</time>
      </trkpt>
      <trkpt lat="47.567846" lon="7.838609">
        <ele>301.067763</ele>
        <time>2021-11-16T22:13:09.889Z</time>
      </trkpt>
      <trkpt lat="47.567936" lon="7.838380">
        <ele>300.944226</ele>
        <time>2021-11-16T22:13:12.468Z</time>
      </trkpt>
      <trkpt lat="47.567961" lon="7.838248">
        <ele>300.880317</ele>
        <time>2021-11-16T22:13:13.644Z</time>
      </trkpt>
      <trkpt lat="47.567944" lon="7.838073">
        <ele>300.797900</ele>
        <time>2021-11-16T22:13:15.216Z</time>
      </trkpt>
      <trkpt lat="47.567822" lon="7.837479">
        <ele>300.508464</ele>
        <time>2021-11-16T22:13:20.453Z</time>
      </trkpt>
      <trkpt lat="47.567670" lon="7.836721">
        <ele>300.139848</ele>
        <time>2021-11-16T22:13:27.071Z</time>
      </trkpt>
      <trkpt lat="47.567647" lon="7.836576">
        <ele>300.070414</ele>
        <time>2021-11-16T22:13:28.333Z</time>
      </trkpt>
      <trkpt lat="47.567583" lon="7.836155">
        <ele>299.869246</ele>
        <time>2021-11-16T22:13:32.029Z</time>
      </trkpt>
      <trkpt lat="47.567562" lon="7.835760">
        <ele>299.715580</ele>
        <time>2021-11-16T22:13:35.482Z</time>
      </trkpt>
      <trkpt lat="47.567566" lon="7.835567">
        <ele>299.641254</ele>
        <time>2021-11-16T22:13:37.145Z</time>
      </trkpt>
      <trkpt lat="47.567674" lon="7.835182">
        <ele>299.480760</ele>
        <time>2021-11-16T22:13:40.793Z</time>
      </trkpt>
      <trkpt lat="47.567558" lon="7.835042">
        <ele>299.395417</ele>
        <time>2021-11-16T22:13:42.780Z</time>
      </trkpt>
      <trkpt lat="47.567179" lon="7.834275">
        <ele>299.029471</ele>
        <time>2021-11-16T22:13:51.125Z</time>
      </trkpt>
      <trkpt lat="47.566744" lon="7.833235">
        <ele>298.529364</ele>
        <time>2021-11-16T22:14:02.470Z</time>
      </trkpt>
      <trkpt lat="47.566366" lon="7.832333">
        <ele>298.077863</ele>
        <time>2021-11-16T22:14:11.924Z</time>
      </trkpt>
      <trkpt lat="47.566477" lon="7.832241">
        <ele>297.997716</ele>
        <time>2021-11-16T22:14:13.541Z</time>
      </trkpt>
      <trkpt lat="47.566755" lon="7.832115">
        <ele>297.814511</ele>
        <time>2021-11-16T22:14:17.172Z</time>
      </trkpt>
      <trkpt lat="47.566920" lon="7.832056">
        <ele>297.707545</ele>
        <time>2021-11-16T22:14:19.285Z</time>
      </trkpt>
      <trkpt lat="47.567257" lon="7.831926">
        <ele>297.269239</ele>
        <time>2021-11-16T22:14:23.485Z</time>
      </trkpt>
      <trkpt lat="47.568550" lon="7.831407">
        <ele>295.565456</ele>
        <time>2021-11-16T22:14:38.990Z</time>
      </trkpt>
      <trkpt lat="47.568694" lon="7.831293">
        <ele>295.379936</ele>
        <time>2021-11-16T22:14:40.903Z</time>
      </trkpt>
      <trkpt lat="47.568760" lon="7.831139">
        <ele>295.283545</ele>
        <time>2021-11-16T22:14:42.352Z</time>
      </trkpt>
      <trkpt lat="47.568775" lon="7.830924">
        <ele>295.169347</ele>
        <time>2021-11-16T22:14:44.114Z</time>
      </trkpt>
      <trkpt lat="47.568745" lon="7.830356">
        <ele>294.868334</ele>
        <time>2021-11-16T22:14:48.841Z</time>
      </trkpt>
      <trkpt lat="47.568703" lon="7.829453">
        <ele>294.390114</ele>
        <time>2021-11-16T22:14:56.606Z</time>
      </trkpt>
      <trkpt lat="47.568703" lon="7.829421">
        <ele>294.373207</ele>
        <time>2021-11-16T22:14:56.905Z</time>
      </trkpt>
      <trkpt lat="47.568659" lon="7.828544">
        <ele>293.991718</ele>
        <time>2021-11-16T22:15:04.928Z</time>
      </trkpt>
      <trkpt lat="47.568555" lon="7.826544">
        <ele>293.827884</ele>
        <time>2021-11-16T22:15:24.592Z</time>
      </trkpt>
      <trkpt lat="47.568503" lon="7.825849">
        <ele>293.749440</ele>
        <time>2021-11-16T22:15:31.550Z</time>
      </trkpt>
      <trkpt lat="47.568448" lon="7.824552">
        <ele>293.520375</ele>
        <time>2021-11-16T22:15:44.256Z</time>
      </trkpt>
      <trkpt lat="47.568380" lon="7.822935">
        <ele>293.303755</ele>
        <time>2021-11-16T22:15:58.608Z</time>
      </trkpt>
      <trkpt lat="47.568400" lon="7.820924">
        <ele>293.238519</ele>
        <time>2021-11-16T22:16:18.468Z</time>
      </trkpt>
      <trkpt lat="47.568443" lon="7.820342">
        <ele>293.387018</ele>
        <time>2021-11-16T22:16:51.070Z</time>
      </trkpt>
      <trkpt lat="47.568417" lon="7.819772">
        <ele>293.601698</ele>
        <time>2021-11-16T22:17:22.865Z</time>
      </trkpt>
      <trkpt lat="47.568311" lon="7.819210">
        <ele>293.820979</ele>
        <time>2021-11-16T22:17:55.355Z</time>
      </trkpt>
      <trkpt lat="47.568272" lon="7.818798">
        <ele>293.977315</ele>
        <time>2021-11-16T22:18:18.493Z</time>
      </trkpt>
      <trkpt lat="47.568146" lon="7.818228">
        <ele>294.202709</ele>
        <time>2021-11-16T22:18:51.814Z</time>
      </trkpt>
      <trkpt lat="47.568049" lon="7.817619">
        <ele>293.911182</ele>
        <time>2021-11-16T22:18:58.283Z</time>
      </trkpt>
      <trkpt lat="47.567988" lon="7.816752">
        <ele>293.390040</ele>
        <time>2021-11-16T22:19:05.486Z</time>
      </trkpt>
      <trkpt lat="47.568209" lon="7.815459">
        <ele>292.485879</ele>
        <time>2021-11-16T22:19:16.282Z</time>
      </trkpt>
      <trkpt lat="47.568245" lon="7.815273">
        <ele>292.114252</ele>
        <time>2021-11-16T22:19:17.610Z</time>
      </trkpt>
      <trkpt lat="47.568480" lon="7.814364">
        <ele>290.244719</ele>
        <time>2021-11-16T22:19:24.538Z</time>
      </trkpt>
      <trkpt lat="47.568572" lon="7.814114">
        <ele>289.697814</ele>
        <time>2021-11-16T22:19:26.612Z</time>
      </trkpt>
      <trkpt lat="47.568248" lon="7.813814">
        <ele>288.610380</ele>
        <time>2021-11-16T22:19:30.454Z</time>
      </trkpt>
      <trkpt lat="47.568430" lon="7.813371">
        <ele>287.614269</ele>
        <time>2021-11-16T22:19:33.900Z</time>
      </trkpt>
      <trkpt lat="47.568525" lon="7.813167">
        <ele>286.925619</ele>
        <time>2021-11-16T22:19:35.512Z</time>
      </trkpt>
      <trkpt lat="47.568896" lon="7.812282">
        <ele>283.813452</ele>
        <time>2021-11-16T22:19:42.302Z</time>
      </trkpt>
      <trkpt lat="47.570230" lon="7.809116">
        <ele>272.986635</ele>
        <time>2021-11-16T22:20:06.288Z</time>
      </trkpt>
      <trkpt lat="47.570259" lon="7.809051">
        <ele>272.764762</ele>
        <time>2021-11-16T22:20:06.823Z</time>
      </trkpt>
      <trkpt lat="47.570299" lon="7.808969">
        <ele>272.476661</ele>
        <time>2021-11-16T22:20:07.557Z</time>
      </trkpt>
      <trkpt lat="47.570185" lon="7.808855">
        <ele>271.943895</ele>
        <time>2021-11-16T22:20:08.992Z</time>
      </trkpt>
      <trkpt lat="47.569971" lon="7.808633">
        <ele>271.573362</ele>
        <time>2021-11-16T22:20:11.782Z</time>
      </trkpt>
      <trkpt lat="47.569758" lon="7.808413">
        <ele>271.205087</ele>
        <time>2021-11-16T22:20:14.614Z</time>
      </trkpt>
      <trkpt lat="47.568962" lon="7.807589">
        <ele>269.827800</ele>
        <time>2021-11-16T22:20:26.520Z</time>
      </trkpt>
      <trkpt lat="47.568803" lon="7.807323">
        <ele>269.487675</ele>
        <time>2021-11-16T22:20:29.710Z</time>
      </trkpt>
      <trkpt lat="47.567792" lon="7.804628">
        <ele>268.916152</ele>
        <time>2021-11-16T22:20:58.755Z</time>
      </trkpt>
      <trkpt lat="47.567677" lon="7.804308">
        <ele>268.948561</ele>
        <time>2021-11-16T22:21:02.361Z</time>
      </trkpt>
      <trkpt lat="47.567503" lon="7.803912">
        <ele>268.990803</ele>
        <time>2021-11-16T22:21:07.081Z</time>
      </trkpt>
      <trkpt lat="47.567287" lon="7.803523">
        <ele>269.035836</ele>
        <time>2021-11-16T22:21:12.200Z</time>
      </trkpt>
      <trkpt lat="47.566532" lon="7.802465">
        <ele>270.129494</ele>
        <time>2021-11-16T22:21:28.492Z</time>
      </trkpt>
      <trkpt lat="47.566334" lon="7.802192">
        <ele>270.853778</ele>
        <time>2021-11-16T22:21:34.279Z</time>
      </trkpt>
      <trkpt lat="47.565517" lon="7.801041">
        <ele>273.872746</ele>
        <time>2021-11-16T22:22:07.096Z</time>
      </trkpt>
      <trkpt lat="47.565485" lon="7.800897">
        <ele>274.296515</ele>
        <time>2021-11-16T22:22:10.342Z</time>
      </trkpt>
      <trkpt lat="47.565490" lon="7.800752">
        <ele>274.749857</ele>
        <time>2021-11-16T22:22:14.873Z</time>
      </trkpt>
      <trkpt lat="47.565627" lon="7.800333">
        <ele>276.203662</ele>
        <time>2021-11-16T22:22:27.010Z</time>
      </trkpt>
      <trkpt lat="47.565704" lon="7.800090">
        <ele>277.041910</ele>
        <time>2021-11-16T22:22:34.395Z</time>
      </trkpt>
      <trkpt lat="47.566114" lon="7.798822">
        <ele>281.432235</ele>
        <time>2021-11-16T22:23:07.952Z</time>
      </trkpt>
      <trkpt lat="47.566454" lon="7.797771">
        <ele>283.514662</ele>
        <time>2021-11-16T22:23:31.511Z</time>
      </trkpt>
      <trkpt lat="47.566478" lon="7.797694">
        <ele>283.632626</ele>
        <time>2021-11-16T22:23:32.797Z</time>
      </trkpt>
      <trkpt lat="47.566679" lon="7.797971">
        <ele>284.198368</ele>
        <time>2021-11-16T22:23:38.959Z</time>
      </trkpt>
      <trkpt lat="47.567008" lon="7.798425">
        <ele>285.124951</ele>
        <time>2021-11-16T22:23:47.081Z</time>
      </trkpt>
      <trkpt lat="47.567200" lon="7.798690">
        <ele>285.665740</ele>
        <time>2021-11-16T22:23:51.167Z</time>
      </trkpt>
      <trkpt lat="47.567213" lon="7.798707">
        <ele>285.701475</ele>
        <time>2021-11-16T22:23:51.473Z</time>
      </trkpt>
      <trkpt lat="47.567386" lon="7.798946">
        <ele>286.009028</ele>
        <time>2021-11-16T22:23:55.521Z</time>
      </trkpt>
      <trkpt lat="47.567788" lon="7.799488">
        <ele>286.201831</ele>
        <time>2021-11-16T22:24:04.915Z</time>
      </trkpt>
      <trkpt lat="47.567987" lon="7.799745">
        <ele>286.295473</ele>
        <time>2021-11-16T22:24:09.238Z</time>
      </trkpt>
      <trkpt lat="47.568185" lon="7.800003">
        <ele>286.389006</ele>
        <time>2021-11-16T22:24:13.406Z</time>
      </trkpt>
      <trkpt lat="47.568315" lon="7.800179">
        <ele>286.451472</ele>
        <time>2021-11-16T22:24:15.831Z</time>
      </trkpt>
      <trkpt lat="47.568384" lon="7.800059">
        <ele>286.489212</ele>
        <time>2021-11-16T22:24:17.588Z</time>
      </trkpt>
      <trkpt lat="47.569185" lon="7.799810">
        <ele>286.893864</ele>
        <time>2021-11-16T22:24:30.367Z</time>
      </trkpt>
      <trkpt lat="47.569327" lon="7.799762">
        <ele>286.980309</ele>
        <time>2021-11-16T22:24:32.671Z</time>
      </trkpt>
      <trkpt lat="47.569912" lon="7.799564">
        <ele>287.336458</ele>
        <time>2021-11-16T22:24:43.750Z</time>
      </trkpt>
      <trkpt lat="47.571202" lon="7.799089">
        <ele>288.375071</ele>
        <time>2021-11-16T22:25:07.637Z</time>
      </trkpt>
      <trkpt lat="47.571921" lon="7.798830">
        <ele>289.058947</ele>
        <time>2021-11-16T22:25:22.080Z</time>
      </trkpt>
      <trkpt lat="47.571985" lon="7.798809">
        <ele>289.119531</ele>
        <time>2021-11-16T22:25:23.376Z</time>
      </trkpt>
      <trkpt lat="47.572308" lon="7.798703">
        <ele>289.398500</ele>
        <time>2021-11-16T22:25:29.202Z</time>
      </trkpt>
      <trkpt lat="47.572527" lon="7.798632">
        <ele>289.540868</ele>
        <time>2021-11-16T22:25:33.002Z</time>
      </trkpt>
      <trkpt lat="47.572628" lon="7.798599">
        <ele>289.606550</ele>
        <time>2021-11-16T22:25:34.833Z</time>
      </trkpt>
      <trkpt lat="47.573055" lon="7.798459">
        <ele>289.884280</ele>
        <time>2021-11-16T22:25:42.454Z</time>
      </trkpt>
      <trkpt lat="47.573410" lon="7.798344">
        <ele>290.115051</ele>
        <time>2021-11-16T22:25:48.822Z</time>
      </trkpt>
      <trkpt lat="47.573813" lon="7.798212">
        <ele>290.377159</ele>
        <time>2021-11-16T22:25:55.902Z</time>
      </trkpt>
      <trkpt lat="47.574296" lon="7.798050">
        <ele>290.679720</ele>
        <time>2021-11-16T22:26:04.361Z</time>
      </trkpt>
      <trkpt lat="47.574910" lon="7.797787">
        <ele>291.062514</ele>
        <time>2021-11-16T22:26:14.565Z</time>
      </trkpt>
      <trkpt lat="47.575240" lon="7.797626">
        <ele>291.270593</ele>
        <time>2021-11-16T22:26:20.341Z</time>
      </trkpt>
      <trkpt lat="47.575391" lon="7.797551">
        <ele>291.365975</ele>
        <time>2021-11-16T22:26:23.179Z</time>
      </trkpt>
      <trkpt lat="47.575499" lon="7.797497">
        <ele>291.434241</ele>
        <time>2021-11-16T22:26:25.268Z</time>
      </trkpt>
      <trkpt lat="47.575580" lon="7.797470">
        <ele>291.483966</ele>
        <time>2021-11-16T22:26:26.812Z</time>
      </trkpt>
      <trkpt lat="47.575720" lon="7.797458">
        <ele>291.574125</ele>
        <time>2021-11-16T22:26:29.350Z</time>
      </trkpt>
      <trkpt lat="47.575780" lon="7.797475">
        <ele>291.636476</ele>
        <time>2021-11-16T22:26:30.528Z</time>
      </trkpt>
      <trkpt lat="47.575796" lon="7.797494">
        <ele>291.657402</ele>
        <time>2021-11-16T22:26:30.934Z</time>
      </trkpt>
      <trkpt lat="47.575820" lon="7.797521">
        <ele>291.688155</ele>
        <time>2021-11-16T22:26:31.468Z</time>
      </trkpt>
      <trkpt lat="47.575847" lon="7.797547">
        <ele>291.721018</ele>
        <time>2021-11-16T22:26:32.040Z</time>
      </trkpt>
      <trkpt lat="47.575879" lon="7.797550">
        <ele>291.753746</ele>
        <time>2021-11-16T22:26:32.617Z</time>
      </trkpt>
      <trkpt lat="47.575981" lon="7.797492">
        <ele>291.865256</ele>
        <time>2021-11-16T22:26:34.732Z</time>
      </trkpt>
      <trkpt lat="47.576004" lon="7.797461">
        <ele>291.896986</ele>
        <time>2021-11-16T22:26:35.348Z</time>
      </trkpt>
      <trkpt lat="47.576024" lon="7.797407">
        <ele>291.939404</ele>
        <time>2021-11-16T22:26:36.141Z</time>
      </trkpt>
      <trkpt lat="47.576036" lon="7.797357">
        <ele>291.975947</ele>
        <time>2021-11-16T22:26:36.869Z</time>
      </trkpt>
      <trkpt lat="47.576158" lon="7.797249">
        <ele>292.120989</ele>
        <time>2021-11-16T22:26:39.846Z</time>
      </trkpt>
      <trkpt lat="47.576257" lon="7.797179">
        <ele>292.232946</ele>
        <time>2021-11-16T22:26:42.002Z</time>
      </trkpt>
      <trkpt lat="47.576588" lon="7.797053">
        <ele>292.581762</ele>
        <time>2021-11-16T22:26:49.165Z</time>
      </trkpt>
      <trkpt lat="47.576849" lon="7.796996">
        <ele>292.851042</ele>
        <time>2021-11-16T22:26:54.426Z</time>
      </trkpt>
      <trkpt lat="47.576931" lon="7.797009">
        <ele>292.935217</ele>
        <time>2021-11-16T22:26:55.847Z</time>
      </trkpt>
      <trkpt lat="47.576994" lon="7.797117">
        <ele>293.033529</ele>
        <time>2021-11-16T22:26:57.194Z</time>
      </trkpt>
      <trkpt lat="47.577074" lon="7.797194">
        <ele>293.130888</ele>
        <time>2021-11-16T22:26:59.182Z</time>
      </trkpt>
      <trkpt lat="47.577166" lon="7.797236">
        <ele>293.229146</ele>
        <time>2021-11-16T22:27:01.099Z</time>
      </trkpt>
      <trkpt lat="47.577262" lon="7.797239">
        <ele>293.327155</ele>
        <time>2021-11-16T22:27:02.545Z</time>
      </trkpt>
      <trkpt lat="47.577343" lon="7.797210">
        <ele>293.403522</ele>
        <time>2021-11-16T22:27:03.735Z</time>
      </trkpt>
      <trkpt lat="47.577418" lon="7.797151">
        <ele>293.446217</ele>
        <time>2021-11-16T22:27:05.326Z</time>
      </trkpt>
      <trkpt lat="47.577495" lon="7.797043">
        <ele>293.499522</ele>
        <time>2021-11-16T22:27:07.471Z</time>
      </trkpt>
      <trkpt lat="47.577566" lon="7.796751">
        <ele>293.604812</ele>
        <time>2021-11-16T22:27:10.570Z</time>
      </trkpt>
      <trkpt lat="47.577554" lon="7.796595">
        <ele>293.658073</ele>
        <time>2021-11-16T22:27:12.810Z</time>
      </trkpt>
      <trkpt lat="47.577537" lon="7.796525">
        <ele>293.683310</ele>
        <time>2021-11-16T22:27:13.722Z</time>
      </trkpt>
      <trkpt lat="47.577514" lon="7.796460">
        <ele>293.708209</ele>
        <time>2021-11-16T22:27:14.575Z</time>
      </trkpt>
      <trkpt lat="47.577487" lon="7.796404">
        <ele>293.731558</ele>
        <time>2021-11-16T22:27:15.126Z</time>
      </trkpt>
      <trkpt lat="47.577336" lon="7.796248">
        <ele>293.824110</ele>
        <time>2021-11-16T22:27:18.219Z</time>
      </trkpt>
      <trkpt lat="47.577291" lon="7.796229">
        <ele>293.847638</ele>
        <time>2021-11-16T22:27:19.079Z</time>
      </trkpt>
      <trkpt lat="47.577222" lon="7.796219">
        <ele>293.882500</ele>
        <time>2021-11-16T22:27:20.326Z</time>
      </trkpt>
      <trkpt lat="47.577132" lon="7.796185">
        <ele>293.929203</ele>
        <time>2021-11-16T22:27:21.479Z</time>
      </trkpt>
      <trkpt lat="47.577020" lon="7.796070">
        <ele>293.997714</ele>
        <time>2021-11-16T22:27:23.810Z</time>
      </trkpt>
      <trkpt lat="47.576921" lon="7.795847">
        <ele>294.088272</ele>
        <time>2021-11-16T22:27:26.643Z</time>
      </trkpt>
      <trkpt lat="47.576835" lon="7.795641">
        <ele>294.170451</ele>
        <time>2021-11-16T22:27:28.984Z</time>
      </trkpt>
      <trkpt lat="47.576819" lon="7.795403">
        <ele>294.251586</ele>
        <time>2021-11-16T22:27:31.753Z</time>
      </trkpt>
      <trkpt lat="47.576758" lon="7.794549">
        <ele>295.463746</ele>
        <time>2021-11-16T22:27:41.712Z</time>
      </trkpt>
      <trkpt lat="47.576713" lon="7.793844">
        <ele>296.612911</ele>
        <time>2021-11-16T22:27:54.009Z</time>
      </trkpt>
      <trkpt lat="47.576702" lon="7.793678">
        <ele>296.883588</ele>
        <time>2021-11-16T22:27:56.274Z</time>
      </trkpt>
      <trkpt lat="47.576667" lon="7.792804">
        <ele>298.304389</ele>
        <time>2021-11-16T22:28:11.518Z</time>
      </trkpt>
      <trkpt lat="47.576667" lon="7.792804">
        <ele>298.304389</ele>
        <time>2021-11-16T22:28:11.588Z</time>
      </trkpt>
      <trkpt lat="47.576667" lon="7.792804">
        <ele>298.304389</ele>
        <time>2021-11-16T22:28:11.588Z</time>
      </trkpt>
      <trkpt lat="47.577018" lon="7.792577">
        <ele>299.734994</ele>
        <time>2021-11-16T22:28:18.688Z</time>
      </trkpt>
      <trkpt lat="47.577826" lon="7.793164">
        <ele>303.739176</ele>
        <time>2021-11-16T22:28:48.654Z</time>
      </trkpt>
      <trkpt lat="47.578047" lon="7.793319">
        <ele>304.827143</ele>
        <time>2021-11-16T22:28:58.522Z</time>
      </trkpt>
      <trkpt lat="47.578797" lon="7.793842">
        <ele>308.045385</ele>
        <time>2021-11-16T22:29:23.143Z</time>
      </trkpt>
      <trkpt lat="47.578892" lon="7.793845">
        <ele>308.362797</ele>
        <time>2021-11-16T22:29:25.976Z</time>
      </trkpt>
      <trkpt lat="47.579294" lon="7.793248">
        <ele>310.263572</ele>
        <time>2021-11-16T22:29:42.031Z</time>
      </trkpt>
      <trkpt lat="47.580565" lon="7.792088">
        <ele>314.750435</ele>
        <time>2021-11-16T22:30:20.996Z</time>
      </trkpt>
      <trkpt lat="47.580640" lon="7.792072">
        <ele>314.955181</ele>
        <time>2021-11-16T22:30:22.756Z</time>
      </trkpt>
      <trkpt lat="47.580678" lon="7.792158">
        <ele>315.142571</ele>
        <time>2021-11-16T22:30:24.806Z</time>
      </trkpt>
      <trkpt lat="47.580682" lon="7.792258">
        <ele>315.325163</ele>
        <time>2021-11-16T22:30:26.992Z</time>
      </trkpt>
      <trkpt lat="47.580687" lon="7.792329">
        <ele>315.455279</ele>
        <time>2021-11-16T22:30:28.538Z</time>
      </trkpt>
      <trkpt lat="47.580778" lon="7.792325">
        <ele>315.701280</ele>
        <time>2021-11-16T22:30:30.916Z</time>
      </trkpt>
      <trkpt lat="47.581907" lon="7.792401">
        <ele>318.480783</ele>
        <time>2021-11-16T22:30:59.473Z</time>
      </trkpt>
      <trkpt lat="47.582336" lon="7.792503">
        <ele>319.398494</ele>
        <time>2021-11-16T22:31:10.281Z</time>
      </trkpt>
      <trkpt lat="47.582861" lon="7.792845">
        <ele>320.609728</ele>
        <time>2021-11-16T22:31:22.952Z</time>
      </trkpt>
      <trkpt lat="47.583026" lon="7.793069">
        <ele>321.082284</ele>
        <time>2021-11-16T22:31:27.144Z</time>
      </trkpt>
      <trkpt lat="47.583087" lon="7.793039">
        <ele>321.218033</ele>
        <time>2021-11-16T22:31:28.855Z</time>
      </trkpt>
      <trkpt lat="47.583256" lon="7.792637">
        <ele>321.835344</ele>
        <time>2021-11-16T22:31:35.233Z</time>
      </trkpt>
      <trkpt lat="47.583317" lon="7.792608">
        <ele>321.957568</ele>
        <time>2021-11-16T22:31:36.828Z</time>
      </trkpt>
      <trkpt lat="47.583648" lon="7.792662">
        <ele>322.592916</ele>
        <time>2021-11-16T22:31:43.715Z</time>
      </trkpt>
      <trkpt lat="47.583848" lon="7.792848">
        <ele>323.043374</ele>
        <time>2021-11-16T22:31:49.161Z</time>
      </trkpt>
      <trkpt lat="47.583897" lon="7.792797">
        <ele>323.157603</ele>
        <time>2021-11-16T22:31:49.874Z</time>
      </trkpt>
      <trkpt lat="47.583906" lon="7.792682">
        <ele>323.306594</ele>
        <time>2021-11-16T22:31:52.398Z</time>
      </trkpt>
      <trkpt lat="47.583851" lon="7.792297">
        <ele>323.813057</ele>
        <time>2021-11-16T22:31:57.906Z</time>
      </trkpt>
      <trkpt lat="47.583927" lon="7.791436">
        <ele>325.004907</ele>
        <time>2021-11-16T22:32:12.557Z</time>
      </trkpt>
      <trkpt lat="47.583992" lon="7.791174">
        <ele>325.496935</ele>
        <time>2021-11-16T22:32:16.575Z</time>
      </trkpt>
      <trkpt lat="47.584202" lon="7.790710">
        <ele>326.481786</ele>
        <time>2021-11-16T22:32:26.236Z</time>
      </trkpt>
      <trkpt lat="47.584234" lon="7.790690">
        <ele>326.572530</ele>
        <time>2021-11-16T22:32:27.796Z</time>
      </trkpt>
      <trkpt lat="47.584493" lon="7.790526">
        <ele>327.308454</ele>
        <time>2021-11-16T22:32:34.803Z</time>
      </trkpt>
      <trkpt lat="47.584789" lon="7.790339">
        <ele>328.149212</ele>
        <time>2021-11-16T22:32:43.295Z</time>
      </trkpt>
      <trkpt lat="47.585171" lon="7.790352">
        <ele>329.147662</ele>
        <time>2021-11-16T22:32:53.096Z</time>
      </trkpt>
      <trkpt lat="47.585536" lon="7.790246">
        <ele>329.907709</ele>
        <time>2021-11-16T22:33:02.369Z</time>
      </trkpt>
      <trkpt lat="47.585683" lon="7.790142">
        <ele>330.202692</ele>
        <time>2021-11-16T22:33:06.630Z</time>
      </trkpt>
      <trkpt lat="47.586281" lon="7.789430">
        <ele>331.591696</ele>
        <time>2021-11-16T22:33:23.355Z</time>
      </trkpt>
      <trkpt lat="47.586610" lon="7.789228">
        <ele>332.236602</ele>
        <time>2021-11-16T22:33:30.547Z</time>
      </trkpt>
      <trkpt lat="47.587004" lon="7.789171">
        <ele>332.852965</ele>
        <time>2021-11-16T22:33:38.214Z</time>
      </trkpt>
      <trkpt lat="47.587185" lon="7.788872">
        <ele>333.158696</ele>
        <time>2021-11-16T22:33:43.336Z</time>
      </trkpt>
      <trkpt lat="47.587531" lon="7.789079">
        <ele>333.579650</ele>
        <time>2021-11-16T22:33:50.430Z</time>
      </trkpt>
      <trkpt lat="47.589230" lon="7.789515">
        <ele>335.565717</ele>
        <time>2021-11-16T22:34:23.603Z</time>
      </trkpt>
      <trkpt lat="47.590021" lon="7.789510">
        <ele>336.503050</ele>
        <time>2021-11-16T22:34:41.021Z</time>
      </trkpt>
      <trkpt lat="47.590266" lon="7.789599">
        <ele>336.801958</ele>
        <time>2021-11-16T22:34:45.220Z</time>
      </trkpt>
      <trkpt lat="47.590469" lon="7.789740">
        <ele>336.797257</ele>
        <time>2021-11-16T22:34:48.902Z</time>
      </trkpt>
      <trkpt lat="47.590621" lon="7.789859">
        <ele>336.750827</ele>
        <time>2021-11-16T22:34:52.444Z</time>
      </trkpt>
      <trkpt lat="47.590972" lon="7.789984">
        <ele>336.653319</ele>
        <time>2021-11-16T22:34:57.193Z</time>
      </trkpt>
      <trkpt lat="47.591299" lon="7.790235">
        <ele>336.553856</ele>
        <time>2021-11-16T22:35:02.016Z</time>
      </trkpt>
      <trkpt lat="47.591373" lon="7.790234">
        <ele>336.533866</ele>
        <time>2021-11-16T22:35:03.382Z</time>
      </trkpt>
      <trkpt lat="47.591473" lon="7.790287">
        <ele>336.505180</ele>
        <time>2021-11-16T22:35:04.456Z</time>
      </trkpt>
      <trkpt lat="47.591890" lon="7.790844">
        <ele>336.348012</ele>
        <time>2021-11-16T22:35:12.548Z</time>
      </trkpt>
      <trkpt lat="47.592116" lon="7.791090">
        <ele>336.219718</ele>
        <time>2021-11-16T22:35:15.662Z</time>
      </trkpt>
      <trkpt lat="47.592223" lon="7.791117">
        <ele>336.170049</ele>
        <time>2021-11-16T22:35:17.464Z</time>
      </trkpt>
      <trkpt lat="47.592294" lon="7.791165">
        <ele>336.134341</ele>
        <time>2021-11-16T22:35:18.618Z</time>
      </trkpt>
      <trkpt lat="47.592574" lon="7.791231">
        <ele>336.004602</ele>
        <time>2021-11-16T22:35:23.595Z</time>
      </trkpt>
      <trkpt lat="47.592913" lon="7.791301">
        <ele>335.847975</ele>
        <time>2021-11-16T22:35:29.182Z</time>
      </trkpt>
      <trkpt lat="47.593198" lon="7.791524">
        <ele>335.700512</ele>
        <time>2021-11-16T22:35:35.377Z</time>
      </trkpt>
      <trkpt lat="47.593728" lon="7.792495">
        <ele>336.318415</ele>
        <time>2021-11-16T22:35:56.008Z</time>
      </trkpt>
      <trkpt lat="47.593971" lon="7.792763">
        <ele>336.801980</ele>
        <time>2021-11-16T22:36:04.175Z</time>
      </trkpt>
      <trkpt lat="47.594082" lon="7.792808">
        <ele>336.985725</ele>
        <time>2021-11-16T22:36:07.592Z</time>
      </trkpt>
      <trkpt lat="47.594154" lon="7.792816">
        <ele>337.101013</ele>
        <time>2021-11-16T22:36:09.139Z</time>
      </trkpt>
      <trkpt lat="47.595133" lon="7.792800">
        <ele>338.728172</ele>
        <time>2021-11-16T22:36:31.245Z</time>
      </trkpt>
      <trkpt lat="47.595245" lon="7.792802">
        <ele>338.952006</ele>
        <time>2021-11-16T22:36:33.777Z</time>
      </trkpt>
      <trkpt lat="47.595750" lon="7.792802">
        <ele>339.961185</ele>
        <time>2021-11-16T22:36:45.360Z</time>
      </trkpt>
      <trkpt lat="47.596504" lon="7.792669">
        <ele>341.478581</ele>
        <time>2021-11-16T22:37:02.451Z</time>
      </trkpt>
      <trkpt lat="47.597646" lon="7.792396">
        <ele>344.225387</ele>
        <time>2021-11-16T22:37:29.706Z</time>
      </trkpt>
      <trkpt lat="47.597848" lon="7.792115">
        <ele>344.913785</ele>
        <time>2021-11-16T22:37:36.793Z</time>
      </trkpt>
      <trkpt lat="47.598017" lon="7.791913">
        <ele>345.453291</ele>
        <time>2021-11-16T22:37:42.340Z</time>
      </trkpt>
      <trkpt lat="47.598252" lon="7.791731">
        <ele>346.112242</ele>
        <time>2021-11-16T22:37:49.493Z</time>
      </trkpt>
      <trkpt lat="47.598592" lon="7.791580">
        <ele>346.971088</ele>
        <time>2021-11-16T22:37:59.052Z</time>
      </trkpt>
      <trkpt lat="47.599667" lon="7.791105">
        <ele>349.633868</ele>
        <time>2021-11-16T22:38:27.537Z</time>
      </trkpt>
      <trkpt lat="47.600151" lon="7.790895">
        <ele>350.787218</ele>
        <time>2021-11-16T22:38:38.374Z</time>
      </trkpt>
      <trkpt lat="47.600211" lon="7.790869">
        <ele>350.859932</ele>
        <time>2021-11-16T22:38:39.673Z</time>
      </trkpt>
      <trkpt lat="47.600304" lon="7.790832">
        <ele>350.971940</ele>
        <time>2021-11-16T22:38:41.667Z</time>
      </trkpt>
      <trkpt lat="47.601073" lon="7.790573">
        <ele>351.889265</ele>
        <time>2021-11-16T22:38:57.122Z</time>
      </trkpt>
      <trkpt lat="47.601359" lon="7.790478">
        <ele>352.230200</ele>
        <time>2021-11-16T22:39:02.537Z</time>
      </trkpt>
      <trkpt lat="47.601768" lon="7.790511">
        <ele>352.706677</ele>
        <time>2021-11-16T22:39:10.001Z</time>
      </trkpt>
      <trkpt lat="47.601954" lon="7.790533">
        <ele>352.925222</ele>
        <time>2021-11-16T22:39:13.327Z</time>
      </trkpt>
      <trkpt lat="47.602292" lon="7.790564">
        <ele>353.325963</ele>
        <time>2021-11-16T22:39:19.535Z</time>
      </trkpt>
      <trkpt lat="47.603218" lon="7.790665">
        <ele>354.424719</ele>
        <time>2021-11-16T22:39:37.197Z</time>
      </trkpt>
      <trkpt lat="47.603379" lon="7.790683">
        <ele>354.615781</ele>
        <time>2021-11-16T22:39:40.594Z</time>
      </trkpt>
      <trkpt lat="47.603500" lon="7.790696">
        <ele>354.759343</ele>
        <time>2021-11-16T22:39:43.277Z</time>
      </trkpt>
      <trkpt lat="47.604020" lon="7.790669">
        <ele>355.794790</ele>
        <time>2021-11-16T22:39:54.659Z</time>
      </trkpt>
      <trkpt lat="47.604312" lon="7.790667">
        <ele>356.494793</ele>
        <time>2021-11-16T22:40:01.161Z</time>
      </trkpt>
      <trkpt lat="47.604673" lon="7.790747">
        <ele>357.369804</ele>
        <time>2021-11-16T22:40:09.622Z</time>
      </trkpt>
      <trkpt lat="47.604776" lon="7.790738">
        <ele>357.617149</ele>
        <time>2021-11-16T22:40:12.175Z</time>
      </trkpt>
      <trkpt lat="47.604861" lon="7.790465">
        <ele>358.103180</ele>
        <time>2021-11-16T22:40:17.278Z</time>
      </trkpt>
      <trkpt lat="47.604933" lon="7.789879">
        <ele>359.065939</ele>
        <time>2021-11-16T22:40:28.016Z</time>
      </trkpt>
      <trkpt lat="47.605245" lon="7.789093">
        <ele>361.301332</ele>
        <time>2021-11-16T22:40:46.055Z</time>
      </trkpt>
      <trkpt lat="47.606058" lon="7.787870">
        <ele>365.750895</ele>
        <time>2021-11-16T22:41:23.391Z</time>
      </trkpt>
      <trkpt lat="47.606236" lon="7.787573">
        <ele>366.527127</ele>
        <time>2021-11-16T22:41:30.828Z</time>
      </trkpt>
      <trkpt lat="47.606482" lon="7.786756">
        <ele>367.852424</ele>
        <time>2021-11-16T22:41:46.689Z</time>
      </trkpt>
      <trkpt lat="47.606894" lon="7.785802">
        <ele>369.530463</ele>
        <time>2021-11-16T22:42:02.906Z</time>
      </trkpt>
      <trkpt lat="47.607090" lon="7.785536">
        <ele>370.114092</ele>
        <time>2021-11-16T22:42:08.335Z</time>
      </trkpt>
      <trkpt lat="47.607244" lon="7.785405">
        <ele>370.404158</ele>
        <time>2021-11-16T22:42:11.524Z</time>
      </trkpt>
      <trkpt lat="47.607357" lon="7.785276">
        <ele>370.631342</ele>
        <time>2021-11-16T22:42:14.477Z</time>
      </trkpt>
      <trkpt lat="47.607784" lon="7.784501">
        <ele>371.706433</ele>
        <time>2021-11-16T22:42:26.004Z</time>
      </trkpt>
      <trkpt lat="47.607811" lon="7.784422">
        <ele>371.801572</ele>
        <time>2021-11-16T22:42:27.311Z</time>
      </trkpt>
      <trkpt lat="47.608000" lon="7.783873">
        <ele>372.463710</ele>
        <time>2021-11-16T22:42:36.063Z</time>
      </trkpt>
      <trkpt lat="47.608067" lon="7.783679">
        <ele>372.697844</ele>
        <time>2021-11-16T22:42:39.707Z</time>
      </trkpt>
      <trkpt lat="47.608293" lon="7.782840">
        <ele>375.007433</ele>
        <time>2021-11-16T22:42:56.522Z</time>
      </trkpt>
      <trkpt lat="47.608319" lon="7.782746">
        <ele>375.337230</ele>
        <time>2021-11-16T22:42:58.715Z</time>
      </trkpt>
      <trkpt lat="47.608448" lon="7.782041">
        <ele>377.708394</ele>
        <time>2021-11-16T22:43:14.630Z</time>
      </trkpt>
      <trkpt lat="47.608437" lon="7.781938">
        <ele>378.046893</ele>
        <time>2021-11-16T22:43:17.005Z</time>
      </trkpt>
      <trkpt lat="47.608309" lon="7.781587">
        <ele>379.342204</ele>
        <time>2021-11-16T22:43:26.918Z</time>
      </trkpt>
      <trkpt lat="47.608295" lon="7.781364">
        <ele>380.069179</ele>
        <time>2021-11-16T22:43:32.466Z</time>
      </trkpt>
      <trkpt lat="47.608399" lon="7.780950">
        <ele>381.503247</ele>
        <time>2021-11-16T22:43:44.490Z</time>
      </trkpt>
      <trkpt lat="47.608573" lon="7.780374">
        <ele>384.741133</ele>
        <time>2021-11-16T22:44:03.681Z</time>
      </trkpt>
      <trkpt lat="47.608894" lon="7.779407">
        <ele>390.445258</ele>
        <time>2021-11-16T22:44:38.294Z</time>
      </trkpt>
      <trkpt lat="47.609368" lon="7.778574">
        <ele>396.188809</ele>
        <time>2021-11-16T22:45:13.738Z</time>
      </trkpt>
      <trkpt lat="47.610133" lon="7.777501">
        <ele>403.972338</ele>
        <time>2021-11-16T22:46:02.599Z</time>
      </trkpt>
      <trkpt lat="47.610341" lon="7.777059">
        <ele>406.658840</ele>
        <time>2021-11-16T22:46:18.346Z</time>
      </trkpt>
      <trkpt lat="47.610448" lon="7.776605">
        <ele>409.055833</ele>
        <time>2021-11-16T22:46:31.559Z</time>
      </trkpt>
      <trkpt lat="47.610502" lon="7.776042">
        <ele>410.737008</ele>
        <time>2021-11-16T22:46:46.270Z</time>
      </trkpt>
      <trkpt lat="47.610473" lon="7.775477">
        <ele>412.401868</ele>
        <time>2021-11-16T22:46:59.720Z</time>
      </trkpt>
      <trkpt lat="47.610312" lon="7.774653">
        <ele>414.922539</ele>
        <time>2021-11-16T22:47:16.955Z</time>
      </trkpt>
      <trkpt lat="47.610139" lon="7.773592">
        <ele>417.617378</ele>
        <time>2021-11-16T22:47:36.153Z</time>
      </trkpt>
      <trkpt lat="47.610132" lon="7.773138">
        <ele>418.386570</ele>
        <time>2021-11-16T22:47:43.903Z</time>
      </trkpt>
      <trkpt lat="47.610187" lon="7.772679">
        <ele>419.176214</ele>
        <time>2021-11-16T22:47:51.598Z</time>
      </trkpt>
      <trkpt lat="47.610258" lon="7.772352">
        <ele>419.758106</ele>
        <time>2021-11-16T22:47:56.676Z</time>
      </trkpt>
      <trkpt lat="47.610490" lon="7.771899">
        <ele>420.721690</ele>
        <time>2021-11-16T22:48:05.790Z</time>
      </trkpt>
      <trkpt lat="47.611349" lon="7.770818">
        <ele>424.283518</ele>
        <time>2021-11-16T22:48:34.844Z</time>
      </trkpt>
      <trkpt lat="47.611495" lon="7.770538">
        <ele>425.090656</ele>
        <time>2021-11-16T22:48:42.859Z</time>
      </trkpt>
      <trkpt lat="47.611735" lon="7.769126">
        <ele>428.432574</ele>
        <time>2021-11-16T22:49:12.541Z</time>
      </trkpt>
      <trkpt lat="47.611843" lon="7.768871">
        <ele>429.135896</ele>
        <time>2021-11-16T22:49:18.568Z</time>
      </trkpt>
      <trkpt lat="47.611720" lon="7.768321">
        <ele>430.489241</ele>
        <time>2021-11-16T22:49:29.296Z</time>
      </trkpt>
      <trkpt lat="47.610953" lon="7.766512">
        <ele>435.789473</ele>
        <time>2021-11-16T22:50:09.991Z</time>
      </trkpt>
      <trkpt lat="47.610892" lon="7.766368">
        <ele>436.257793</ele>
        <time>2021-11-16T22:50:13.596Z</time>
      </trkpt>
      <trkpt lat="47.610797" lon="7.765993">
        <ele>437.360941</ele>
        <time>2021-11-16T22:50:21.074Z</time>
      </trkpt>
      <trkpt lat="47.610767" lon="7.765723">
        <ele>438.114477</ele>
        <time>2021-11-16T22:50:26.607Z</time>
      </trkpt>
      <trkpt lat="47.610607" lon="7.764328">
        <ele>442.102600</ele>
        <time>2021-11-16T22:50:59.886Z</time>
      </trkpt>
      <trkpt lat="47.610505" lon="7.763094">
        <ele>445.869961</ele>
        <time>2021-11-16T22:51:29.231Z</time>
      </trkpt>
      <trkpt lat="47.610510" lon="7.762675">
        <ele>447.139846</ele>
        <time>2021-11-16T22:51:38.689Z</time>
      </trkpt>
      <trkpt lat="47.610549" lon="7.761995">
        <ele>449.193680</ele>
        <time>2021-11-16T22:51:52.034Z</time>
      </trkpt>
      <trkpt lat="47.610580" lon="7.761637">
        <ele>449.611613</ele>
        <time>2021-11-16T22:51:58.751Z</time>
      </trkpt>
      <trkpt lat="47.610601" lon="7.761374">
        <ele>449.918268</ele>
        <time>2021-11-16T22:52:03.324Z</time>
      </trkpt>
      <trkpt lat="47.610760" lon="7.761304">
        <ele>450.203129</ele>
        <time>2021-11-16T22:52:07.538Z</time>
      </trkpt>
      <trkpt lat="47.610854" lon="7.761285">
        <ele>450.366069</ele>
        <time>2021-11-16T22:52:09.677Z</time>
      </trkpt>
      <trkpt lat="47.611186" lon="7.761338">
        <ele>450.939580</ele>
        <time>2021-11-16T22:52:17.458Z</time>
      </trkpt>
      <trkpt lat="47.611933" lon="7.761457">
        <ele>452.229950</ele>
        <time>2021-11-16T22:52:30.081Z</time>
      </trkpt>
      <trkpt lat="47.612022" lon="7.761449">
        <ele>452.206906</ele>
        <time>2021-11-16T22:52:31.588Z</time>
      </trkpt>
      <trkpt lat="47.612075" lon="7.761435">
        <ele>452.149879</ele>
        <time>2021-11-16T22:52:32.376Z</time>
      </trkpt>
      <trkpt lat="47.612127" lon="7.761383">
        <ele>452.083446</ele>
        <time>2021-11-16T22:52:33.310Z</time>
      </trkpt>
      <trkpt lat="47.612441" lon="7.760890">
        <ele>451.599099</ele>
        <time>2021-11-16T22:52:40.054Z</time>
      </trkpt>
      <trkpt lat="47.612523" lon="7.760811">
        <ele>451.495522</ele>
        <time>2021-11-16T22:52:41.424Z</time>
      </trkpt>
      <trkpt lat="47.612630" lon="7.760759">
        <ele>451.376247</ele>
        <time>2021-11-16T22:52:42.903Z</time>
      </trkpt>
      <trkpt lat="47.612812" lon="7.760726">
        <ele>451.182016</ele>
        <time>2021-11-16T22:52:45.226Z</time>
      </trkpt>
      <trkpt lat="47.612960" lon="7.760706">
        <ele>451.024587</ele>
        <time>2021-11-16T22:52:47.025Z</time>
      </trkpt>
      <trkpt lat="47.613059" lon="7.760674">
        <ele>450.917254</ele>
        <time>2021-11-16T22:52:48.200Z</time>
      </trkpt>
      <trkpt lat="47.613148" lon="7.760607">
        <ele>450.811529</ele>
        <time>2021-11-16T22:52:49.274Z</time>
      </trkpt>
      <trkpt lat="47.613231" lon="7.760404">
        <ele>450.641983</ele>
        <time>2021-11-16T22:52:51.059Z</time>
      </trkpt>
      <trkpt lat="47.613222" lon="7.760189">
        <ele>450.488151</ele>
        <time>2021-11-16T22:52:52.680Z</time>
      </trkpt>
      <trkpt lat="47.613205" lon="7.760080">
        <ele>450.408256</ele>
        <time>2021-11-16T22:52:53.404Z</time>
      </trkpt>
      <trkpt lat="47.613053" lon="7.759623">
        <ele>448.862939</ele>
        <time>2021-11-16T22:52:56.853Z</time>
      </trkpt>
      <trkpt lat="47.612944" lon="7.759245">
        <ele>447.500242</ele>
        <time>2021-11-16T22:52:59.686Z</time>
      </trkpt>
      <trkpt lat="47.612830" lon="7.758759">
        <ele>445.794652</ele>
        <time>2021-11-16T22:53:03.020Z</time>
      </trkpt>
      <trkpt lat="47.612779" lon="7.758543">
        <ele>445.036071</ele>
        <time>2021-11-16T22:53:04.415Z</time>
      </trkpt>
      <trkpt lat="47.612718" lon="7.758199">
        <ele>443.857085</ele>
        <time>2021-11-16T22:53:06.712Z</time>
      </trkpt>
      <trkpt lat="47.612697" lon="7.758003">
        <ele>443.199281</ele>
        <time>2021-11-16T22:53:07.899Z</time>
      </trkpt>
      <trkpt lat="47.612671" lon="7.757751">
        <ele>442.354291</ele>
        <time>2021-11-16T22:53:09.495Z</time>
      </trkpt>
      <trkpt lat="47.612657" lon="7.757559">
        <ele>441.714187</ele>
        <time>2021-11-16T22:53:10.657Z</time>
      </trkpt>
      <trkpt lat="47.612654" lon="7.757180">
        <ele>439.867321</ele>
        <time>2021-11-16T22:53:12.918Z</time>
      </trkpt>
      <trkpt lat="47.612635" lon="7.756867">
        <ele>438.249402</ele>
        <time>2021-11-16T22:53:14.804Z</time>
      </trkpt>
      <trkpt lat="47.612595" lon="7.756458">
        <ele>436.121729</ele>
        <time>2021-11-16T22:53:17.267Z</time>
      </trkpt>
      <trkpt lat="47.612539" lon="7.756079">
        <ele>434.124226</ele>
        <time>2021-11-16T22:53:19.612Z</time>
      </trkpt>
      <trkpt lat="47.612503" lon="7.755886">
        <ele>433.093281</ele>
        <time>2021-11-16T22:53:20.807Z</time>
      </trkpt>
      <trkpt lat="47.612481" lon="7.755809">
        <ele>432.662732</ele>
        <time>2021-11-16T22:53:21.312Z</time>
      </trkpt>
      <trkpt lat="47.612451" lon="7.755754">
        <ele>432.298501</ele>
        <time>2021-11-16T22:53:21.732Z</time>
      </trkpt>
      <trkpt lat="47.612387" lon="7.755703">
        <ele>431.743688</ele>
        <time>2021-11-16T22:53:22.363Z</time>
      </trkpt>
      <trkpt lat="47.612248" lon="7.755635">
        <ele>430.625940</ele>
        <time>2021-11-16T22:53:23.648Z</time>
      </trkpt>
      <trkpt lat="47.612196" lon="7.755580">
        <ele>430.138216</ele>
        <time>2021-11-16T22:53:24.212Z</time>
      </trkpt>
      <trkpt lat="47.612172" lon="7.755521">
        <ele>429.783455</ele>
        <time>2021-11-16T22:53:24.624Z</time>
      </trkpt>
      <trkpt lat="47.612161" lon="7.755449">
        <ele>429.403379</ele>
        <time>2021-11-16T22:53:25.074Z</time>
      </trkpt>
      <trkpt lat="47.612159" lon="7.755380">
        <ele>429.047819</ele>
        <time>2021-11-16T22:53:25.487Z</time>
      </trkpt>
      <trkpt lat="47.612161" lon="7.755353">
        <ele>428.907979</ele>
        <time>2021-11-16T22:53:25.639Z</time>
      </trkpt>
      <trkpt lat="47.612192" lon="7.754954">
        <ele>426.905681</ele>
        <time>2021-11-16T22:53:28.059Z</time>
      </trkpt>
      <trkpt lat="47.612146" lon="7.754726">
        <ele>425.764921</ele>
        <time>2021-11-16T22:53:29.471Z</time>
      </trkpt>
      <trkpt lat="47.611848" lon="7.754391">
        <ele>423.106374</ele>
        <time>2021-11-16T22:53:32.794Z</time>
      </trkpt>
      <trkpt lat="47.611701" lon="7.754245">
        <ele>421.848526</ele>
        <time>2021-11-16T22:53:34.379Z</time>
      </trkpt>
      <trkpt lat="47.611506" lon="7.753985">
        <ele>419.984255</ele>
        <time>2021-11-16T22:53:36.730Z</time>
      </trkpt>
      <trkpt lat="47.611310" lon="7.753428">
        <ele>416.972538</ele>
        <time>2021-11-16T22:53:40.572Z</time>
      </trkpt>
      <trkpt lat="47.611269" lon="7.753071">
        <ele>415.236656</ele>
        <time>2021-11-16T22:53:42.806Z</time>
      </trkpt>
      <trkpt lat="47.611242" lon="7.752336">
        <ele>412.755182</ele>
        <time>2021-11-16T22:53:47.285Z</time>
      </trkpt>
      <trkpt lat="47.611288" lon="7.751378">
        <ele>409.615218</ele>
        <time>2021-11-16T22:53:53.367Z</time>
      </trkpt>
      <trkpt lat="47.611255" lon="7.751205">
        <ele>409.027416</ele>
        <time>2021-11-16T22:53:54.521Z</time>
      </trkpt>
      <trkpt lat="47.611197" lon="7.751064">
        <ele>408.487403</ele>
        <time>2021-11-16T22:53:55.608Z</time>
      </trkpt>
      <trkpt lat="47.611094" lon="7.750951">
        <ele>407.866126</ele>
        <time>2021-11-16T22:53:56.961Z</time>
      </trkpt>
      <trkpt lat="47.610714" lon="7.750722">
        <ele>406.135087</ele>
        <time>2021-11-16T22:54:01.089Z</time>
      </trkpt>
      <trkpt lat="47.610643" lon="7.750603">
        <ele>405.949598</ele>
        <time>2021-11-16T22:54:02.160Z</time>
      </trkpt>
      <trkpt lat="47.610520" lon="7.750319">
        <ele>405.555583</ele>
        <time>2021-11-16T22:54:04.603Z</time>
      </trkpt>
      <trkpt lat="47.610345" lon="7.749815">
        <ele>404.893838</ele>
        <time>2021-11-16T22:54:08.677Z</time>
      </trkpt>
      <trkpt lat="47.610303" lon="7.749507">
        <ele>404.527039</ele>
        <time>2021-11-16T22:54:10.973Z</time>
      </trkpt>
      <trkpt lat="47.610331" lon="7.749289">
        <ele>404.267997</ele>
        <time>2021-11-16T22:54:12.761Z</time>
      </trkpt>
      <trkpt lat="47.610399" lon="7.749144">
        <ele>404.061821</ele>
        <time>2021-11-16T22:54:14.298Z</time>
      </trkpt>
      <trkpt lat="47.610897" lon="7.748667">
        <ele>403.073421</ele>
        <time>2021-11-16T22:54:22.291Z</time>
      </trkpt>
      <trkpt lat="47.611024" lon="7.748403">
        <ele>402.806560</ele>
        <time>2021-11-16T22:54:25.565Z</time>
      </trkpt>
      <trkpt lat="47.611423" lon="7.747196">
        <ele>401.700433</ele>
        <time>2021-11-16T22:54:37.474Z</time>
      </trkpt>
      <trkpt lat="47.611508" lon="7.746851">
        <ele>401.398195</ele>
        <time>2021-11-16T22:54:40.136Z</time>
      </trkpt>
      <trkpt lat="47.611647" lon="7.746050">
        <ele>400.264229</ele>
        <time>2021-11-16T22:54:46.045Z</time>
      </trkpt>
      <trkpt lat="47.611691" lon="7.745486">
        <ele>398.954043</ele>
        <time>2021-11-16T22:54:49.838Z</time>
      </trkpt>
      <trkpt lat="47.611651" lon="7.745141">
        <ele>398.146224</ele>
        <time>2021-11-16T22:54:52.210Z</time>
      </trkpt>
      <trkpt lat="47.611609" lon="7.744853">
        <ele>397.466255</ele>
        <time>2021-11-16T22:54:54.122Z</time>
      </trkpt>
      <trkpt lat="47.611456" lon="7.744262">
        <ele>396.005344</ele>
        <time>2021-11-16T22:54:58.393Z</time>
      </trkpt>
      <trkpt lat="47.611241" lon="7.743837">
        <ele>394.782733</ele>
        <time>2021-11-16T22:55:01.964Z</time>
      </trkpt>
      <trkpt lat="47.611161" lon="7.743634">
        <ele>394.298658</ele>
        <time>2021-11-16T22:55:03.517Z</time>
      </trkpt>
      <trkpt lat="47.611010" lon="7.743033">
        <ele>392.978264</ele>
        <time>2021-11-16T22:55:07.753Z</time>
      </trkpt>
      <trkpt lat="47.610879" lon="7.741793">
        <ele>390.394346</ele>
        <time>2021-11-16T22:55:16.440Z</time>
      </trkpt>
      <trkpt lat="47.610871" lon="7.741420">
        <ele>389.626068</ele>
        <time>2021-11-16T22:55:19.208Z</time>
      </trkpt>
      <trkpt lat="47.610898" lon="7.741056">
        <ele>388.941694</ele>
        <time>2021-11-16T22:55:21.970Z</time>
      </trkpt>
      <trkpt lat="47.611129" lon="7.739819">
        <ele>386.709720</ele>
        <time>2021-11-16T22:55:31.023Z</time>
      </trkpt>
      <trkpt lat="47.611382" lon="7.739254">
        <ele>385.530288</ele>
        <time>2021-11-16T22:55:35.674Z</time>
      </trkpt>
      <trkpt lat="47.611618" lon="7.738936">
        <ele>384.707917</ele>
        <time>2021-11-16T22:55:39.017Z</time>
      </trkpt>
      <trkpt lat="47.611684" lon="7.738828">
        <ele>384.597520</ele>
        <time>2021-11-16T22:55:40.082Z</time>
      </trkpt>
      <trkpt lat="47.611751" lon="7.738698">
        <ele>384.493177</ele>
        <time>2021-11-16T22:55:41.297Z</time>
      </trkpt>
      <trkpt lat="47.611785" lon="7.738609">
        <ele>384.427948</ele>
        <time>2021-11-16T22:55:41.985Z</time>
      </trkpt>
      <trkpt lat="47.611872" lon="7.738156">
        <ele>384.127601</ele>
        <time>2021-11-16T22:55:45.609Z</time>
      </trkpt>
      <trkpt lat="47.611893" lon="7.737711">
        <ele>383.843154</ele>
        <time>2021-11-16T22:55:49.048Z</time>
      </trkpt>
      <trkpt lat="47.611965" lon="7.737457">
        <ele>383.667456</ele>
        <time>2021-11-16T22:55:51.284Z</time>
      </trkpt>
      <trkpt lat="47.612044" lon="7.737224">
        <ele>383.501153</ele>
        <time>2021-11-16T22:55:53.360Z</time>
      </trkpt>
      <trkpt lat="47.612194" lon="7.737048">
        <ele>383.320255</ele>
        <time>2021-11-16T22:55:56.436Z</time>
      </trkpt>
      <trkpt lat="47.612447" lon="7.736778">
        <ele>383.025458</ele>
        <time>2021-11-16T22:56:01.229Z</time>
      </trkpt>
      <trkpt lat="47.612462" lon="7.736742">
        <ele>382.998473</ele>
        <time>2021-11-16T22:56:02.118Z</time>
      </trkpt>
      <trkpt lat="47.612712" lon="7.736151">
        <ele>384.327647</ele>
        <time>2021-11-16T22:56:11.685Z</time>
      </trkpt>
      <trkpt lat="47.613210" lon="7.735944">
        <ele>385.877890</ele>
        <time>2021-11-16T22:56:23.621Z</time>
      </trkpt>
      <trkpt lat="47.613317" lon="7.735838">
        <ele>386.263567</ele>
        <time>2021-11-16T22:56:27.660Z</time>
      </trkpt>
      <trkpt lat="47.613375" lon="7.735736">
        <ele>386.533209</ele>
        <time>2021-11-16T22:56:29.777Z</time>
      </trkpt>
      <trkpt lat="47.613434" lon="7.735397">
        <ele>387.240684</ele>
        <time>2021-11-16T22:56:37.069Z</time>
      </trkpt>
      <trkpt lat="47.613390" lon="7.735211">
        <ele>387.639001</ele>
        <time>2021-11-16T22:56:41.286Z</time>
      </trkpt>
      <trkpt lat="47.613220" lon="7.735037">
        <ele>388.258103</ele>
        <time>2021-11-16T22:56:49.588Z</time>
      </trkpt>
      <trkpt lat="47.613181" lon="7.734997">
        <ele>388.432018</ele>
        <time>2021-11-16T22:56:51.319Z</time>
      </trkpt>
      <trkpt lat="47.612755" lon="7.734867">
        <ele>391.130437</ele>
        <time>2021-11-16T22:57:07.760Z</time>
      </trkpt>
      <trkpt lat="47.612618" lon="7.734756">
        <ele>392.098966</ele>
        <time>2021-11-16T22:57:14.616Z</time>
      </trkpt>
      <trkpt lat="47.612558" lon="7.734604">
        <ele>392.835695</ele>
        <time>2021-11-16T22:57:19.160Z</time>
      </trkpt>
      <trkpt lat="47.612560" lon="7.734334">
        <ele>393.965073</ele>
        <time>2021-11-16T22:57:26.894Z</time>
      </trkpt>
      <trkpt lat="47.612562" lon="7.734273">
        <ele>394.220515</ele>
        <time>2021-11-16T22:57:28.663Z</time>
      </trkpt>
      <trkpt lat="47.612580" lon="7.733842">
        <ele>396.026684</ele>
        <time>2021-11-16T22:57:38.451Z</time>
      </trkpt>
      <trkpt lat="47.612580" lon="7.733841">
        <ele>396.030866</ele>
        <time>2021-11-16T22:57:38.845Z</time>
      </trkpt>
      <trkpt lat="47.612582" lon="7.733083">
        <ele>399.201322</ele>
        <time>2021-11-16T22:57:59.212Z</time>
      </trkpt>
      <trkpt lat="47.612414" lon="7.731732">
        <ele>404.917596</ele>
        <time>2021-11-16T22:58:39.129Z</time>
      </trkpt>
      <trkpt lat="47.612490" lon="7.730332">
        <ele>410.785327</ele>
        <time>2021-11-16T22:59:13.855Z</time>
      </trkpt>
      <trkpt lat="47.612445" lon="7.730023">
        <ele>412.353590</ele>
        <time>2021-11-16T22:59:21.319Z</time>
      </trkpt>
      <trkpt lat="47.612234" lon="7.729223">
        <ele>416.615207</ele>
        <time>2021-11-16T22:59:43.575Z</time>
      </trkpt>
      <trkpt lat="47.612102" lon="7.728839">
        <ele>418.753541</ele>
        <time>2021-11-16T22:59:56.988Z</time>
      </trkpt>
      <trkpt lat="47.611794" lon="7.728207">
        <ele>422.622270</ele>
        <time>2021-11-16T23:00:22.623Z</time>
      </trkpt>
      <trkpt lat="47.611673" lon="7.727743">
        <ele>425.315716</ele>
        <time>2021-11-16T23:00:40.456Z</time>
      </trkpt>
      <trkpt lat="47.611558" lon="7.727374">
        <ele>427.703022</ele>
        <time>2021-11-16T23:00:55.496Z</time>
      </trkpt>
      <trkpt lat="47.611447" lon="7.727328">
        <ele>428.706965</ele>
        <time>2021-11-16T23:01:03.138Z</time>
      </trkpt>
      <trkpt lat="47.610833" lon="7.727203">
        <ele>434.105632</ele>
        <time>2021-11-16T23:01:34.807Z</time>
      </trkpt>
      <trkpt lat="47.610604" lon="7.726979">
        <ele>436.495133</ele>
        <time>2021-11-16T23:01:48.774Z</time>
      </trkpt>
      <trkpt lat="47.610578" lon="7.726917">
        <ele>436.923930</ele>
        <time>2021-11-16T23:01:50.775Z</time>
      </trkpt>
      <trkpt lat="47.610487" lon="7.726582">
        <ele>439.044960</ele>
        <time>2021-11-16T23:02:02.707Z</time>
      </trkpt>
      <trkpt lat="47.610415" lon="7.726318">
        <ele>439.940499</ele>
        <time>2021-11-16T23:02:11.242Z</time>
      </trkpt>
      <trkpt lat="47.610108" lon="7.725107">
        <ele>442.559709</ele>
        <time>2021-11-16T23:02:38.652Z</time>
      </trkpt>
      <trkpt lat="47.609970" lon="7.724684">
        <ele>443.511052</ele>
        <time>2021-11-16T23:02:45.438Z</time>
      </trkpt>
      <trkpt lat="47.609742" lon="7.724373">
        <ele>444.441193</ele>
        <time>2021-11-16T23:02:50.069Z</time>
      </trkpt>
      <trkpt lat="47.609636" lon="7.724285">
        <ele>444.805962</ele>
        <time>2021-11-16T23:02:51.492Z</time>
      </trkpt>
      <trkpt lat="47.609341" lon="7.724198">
        <ele>444.606555</ele>
        <time>2021-11-16T23:02:55.030Z</time>
      </trkpt>
      <trkpt lat="47.609161" lon="7.724017">
        <ele>444.332019</ele>
        <time>2021-11-16T23:02:57.601Z</time>
      </trkpt>
      <trkpt lat="47.609127" lon="7.723743">
        <ele>444.094894</ele>
        <time>2021-11-16T23:02:59.815Z</time>
      </trkpt>
      <trkpt lat="47.609174" lon="7.722708">
        <ele>443.211990</ele>
        <time>2021-11-16T23:03:07.958Z</time>
      </trkpt>
      <trkpt lat="47.608991" lon="7.721651">
        <ele>442.168513</ele>
        <time>2021-11-16T23:03:16.367Z</time>
      </trkpt>
      <trkpt lat="47.608945" lon="7.721056">
        <ele>441.504597</ele>
        <time>2021-11-16T23:03:20.877Z</time>
      </trkpt>
      <trkpt lat="47.608949" lon="7.720323">
        <ele>440.691994</ele>
        <time>2021-11-16T23:03:26.173Z</time>
      </trkpt>
      <trkpt lat="47.609035" lon="7.720082">
        <ele>440.389715</ele>
        <time>2021-11-16T23:03:28.418Z</time>
      </trkpt>
      <trkpt lat="47.609123" lon="7.720028">
        <ele>440.233123</ele>
        <time>2021-11-16T23:03:29.560Z</time>
      </trkpt>
      <trkpt lat="47.609694" lon="7.720088">
        <ele>439.544431</ele>
        <time>2021-11-16T23:03:36.253Z</time>
      </trkpt>
      <trkpt lat="47.609869" lon="7.719982">
        <ele>439.423756</ele>
        <time>2021-11-16T23:03:38.722Z</time>
      </trkpt>
      <trkpt lat="47.609938" lon="7.719910">
        <ele>439.369899</ele>
        <time>2021-11-16T23:03:39.529Z</time>
      </trkpt>
      <trkpt lat="47.609981" lon="7.719813">
        <ele>439.319934</ele>
        <time>2021-11-16T23:03:41.423Z</time>
      </trkpt>
      <trkpt lat="47.610040" lon="7.719503">
        <ele>439.181299</ele>
        <time>2021-11-16T23:03:44.202Z</time>
      </trkpt>
      <trkpt lat="47.609964" lon="7.719178">
        <ele>439.033247</ele>
        <time>2021-11-16T23:03:47.349Z</time>
      </trkpt>
      <trkpt lat="47.609896" lon="7.719065">
        <ele>438.968056</ele>
        <time>2021-11-16T23:03:48.806Z</time>
      </trkpt>
      <trkpt lat="47.609572" lon="7.718806">
        <ele>438.733091</ele>
        <time>2021-11-16T23:03:53.826Z</time>
      </trkpt>
      <trkpt lat="47.609453" lon="7.718554">
        <ele>438.600672</ele>
        <time>2021-11-16T23:03:56.638Z</time>
      </trkpt>
      <trkpt lat="47.609476" lon="7.718077">
        <ele>438.407127</ele>
        <time>2021-11-16T23:04:01.184Z</time>
      </trkpt>
      <trkpt lat="47.609289" lon="7.717671">
        <ele>438.211577</ele>
        <time>2021-11-16T23:04:06.295Z</time>
      </trkpt>
      <trkpt lat="47.609310" lon="7.717330">
        <ele>438.075396</ele>
        <time>2021-11-16T23:04:09.421Z</time>
      </trkpt>
      <trkpt lat="47.609360" lon="7.717199">
        <ele>438.015528</ele>
        <time>2021-11-16T23:04:10.796Z</time>
      </trkpt>
      <trkpt lat="47.609492" lon="7.717058">
        <ele>437.919571</ele>
        <time>2021-11-16T23:04:12.814Z</time>
      </trkpt>
      <trkpt lat="47.609597" lon="7.717035">
        <ele>437.856960</ele>
        <time>2021-11-16T23:04:14.088Z</time>
      </trkpt>
      <trkpt lat="47.609949" lon="7.717160">
        <ele>437.643447</ele>
        <time>2021-11-16T23:04:18.517Z</time>
      </trkpt>
      <trkpt lat="47.610060" lon="7.717147">
        <ele>437.577764</ele>
        <time>2021-11-16T23:04:19.920Z</time>
      </trkpt>
      <trkpt lat="47.610141" lon="7.717048">
        <ele>437.515851</ele>
        <time>2021-11-16T23:04:21.185Z</time>
      </trkpt>
      <trkpt lat="47.610179" lon="7.716821">
        <ele>437.421419</ele>
        <time>2021-11-16T23:04:23.059Z</time>
      </trkpt>
      <trkpt lat="47.610137" lon="7.716271">
        <ele>437.197002</ele>
        <time>2021-11-16T23:04:27.606Z</time>
      </trkpt>
      <trkpt lat="47.610177" lon="7.716108">
        <ele>437.126673</ele>
        <time>2021-11-16T23:04:29.106Z</time>
      </trkpt>
      <trkpt lat="47.610328" lon="7.715981">
        <ele>437.022281</ele>
        <time>2021-11-16T23:04:31.198Z</time>
      </trkpt>
      <trkpt lat="47.610823" lon="7.716092">
        <ele>436.721211</ele>
        <time>2021-11-16T23:04:37.587Z</time>
      </trkpt>
      <trkpt lat="47.611451" lon="7.716117">
        <ele>436.556166</ele>
        <time>2021-11-16T23:04:46.355Z</time>
      </trkpt>
      <trkpt lat="47.612400" lon="7.716363">
        <ele>437.728712</ele>
        <time>2021-11-16T23:05:03.984Z</time>
      </trkpt>
      <trkpt lat="47.612794" lon="7.716290">
        <ele>438.211982</ele>
        <time>2021-11-16T23:05:12.395Z</time>
      </trkpt>
      <trkpt lat="47.612886" lon="7.716219">
        <ele>438.338204</ele>
        <time>2021-11-16T23:05:14.981Z</time>
      </trkpt>
      <trkpt lat="47.613063" lon="7.715952">
        <ele>438.680257</ele>
        <time>2021-11-16T23:05:21.446Z</time>
      </trkpt>
      <trkpt lat="47.613126" lon="7.715447">
        <ele>439.446430</ele>
        <time>2021-11-16T23:05:30.363Z</time>
      </trkpt>
      <trkpt lat="47.613053" lon="7.714840">
        <ele>440.366278</ele>
        <time>2021-11-16T23:05:40.726Z</time>
      </trkpt>
      <trkpt lat="47.612918" lon="7.714393">
        <ele>441.096997</ele>
        <time>2021-11-16T23:05:48.754Z</time>
      </trkpt>
      <trkpt lat="47.612715" lon="7.713994">
        <ele>441.842741</ele>
        <time>2021-11-16T23:05:56.662Z</time>
      </trkpt>
      <trkpt lat="47.612616" lon="7.713746">
        <ele>442.272723</ele>
        <time>2021-11-16T23:06:01.013Z</time>
      </trkpt>
      <trkpt lat="47.612529" lon="7.713387">
        <ele>442.723039</ele>
        <time>2021-11-16T23:06:06.441Z</time>
      </trkpt>
      <trkpt lat="47.612421" lon="7.711182">
        <ele>444.505685</ele>
        <time>2021-11-16T23:06:36.280Z</time>
      </trkpt>
      <trkpt lat="47.612153" lon="7.710516">
        <ele>444.846550</ele>
        <time>2021-11-16T23:06:44.825Z</time>
      </trkpt>
      <trkpt lat="47.611851" lon="7.709998">
        <ele>445.002449</ele>
        <time>2021-11-16T23:06:52.189Z</time>
      </trkpt>
      <trkpt lat="47.611254" lon="7.709366">
        <ele>445.250116</ele>
        <time>2021-11-16T23:07:03.940Z</time>
      </trkpt>
      <trkpt lat="47.610962" lon="7.709157">
        <ele>445.381242</ele>
        <time>2021-11-16T23:07:08.761Z</time>
      </trkpt>
      <trkpt lat="47.610583" lon="7.708562">
        <ele>445.796504</ele>
        <time>2021-11-16T23:07:16.819Z</time>
      </trkpt>
      <trkpt lat="47.610375" lon="7.708322">
        <ele>445.994799</ele>
        <time>2021-11-16T23:07:21.479Z</time>
      </trkpt>
      <trkpt lat="47.609945" lon="7.708077">
        <ele>446.341417</ele>
        <time>2021-11-16T23:07:30.394Z</time>
      </trkpt>
      <trkpt lat="47.609432" lon="7.708024">
        <ele>446.739592</ele>
        <time>2021-11-16T23:07:40.628Z</time>
      </trkpt>
      <trkpt lat="47.608857" lon="7.707990">
        <ele>447.320007</ele>
        <time>2021-11-16T23:07:52.895Z</time>
      </trkpt>
      <trkpt lat="47.608616" lon="7.707855">
        <ele>447.579841</ele>
        <time>2021-11-16T23:07:58.162Z</time>
      </trkpt>
      <trkpt lat="47.608415" lon="7.707586">
        <ele>447.852898</ele>
        <time>2021-11-16T23:08:03.426Z</time>
      </trkpt>
      <trkpt lat="47.608185" lon="7.707104">
        <ele>448.254450</ele>
        <time>2021-11-16T23:08:10.778Z</time>
      </trkpt>
      <trkpt lat="47.608116" lon="7.706776">
        <ele>448.488097</ele>
        <time>2021-11-16T23:08:14.727Z</time>
      </trkpt>
      <trkpt lat="47.608202" lon="7.706065">
        <ele>448.133288</ele>
        <time>2021-11-16T23:08:21.453Z</time>
      </trkpt>
      <trkpt lat="47.608553" lon="7.704890">
        <ele>447.433239</ele>
        <time>2021-11-16T23:08:31.933Z</time>
      </trkpt>
      <trkpt lat="47.608768" lon="7.704298">
        <ele>447.066960</ele>
        <time>2021-11-16T23:08:37.301Z</time>
      </trkpt>
      <trkpt lat="47.608889" lon="7.703993">
        <ele>446.638438</ele>
        <time>2021-11-16T23:08:40.101Z</time>
      </trkpt>
      <trkpt lat="47.609456" lon="7.702382">
        <ele>444.367429</ele>
        <time>2021-11-16T23:08:54.238Z</time>
      </trkpt>
      <trkpt lat="47.609709" lon="7.701136">
        <ele>441.685044</ele>
        <time>2021-11-16T23:09:03.167Z</time>
      </trkpt>
      <trkpt lat="47.609747" lon="7.700598">
        <ele>440.281338</ele>
        <time>2021-11-16T23:09:06.632Z</time>
      </trkpt>
      <trkpt lat="47.609728" lon="7.699617">
        <ele>437.734675</ele>
        <time>2021-11-16T23:09:13.049Z</time>
      </trkpt>
      <trkpt lat="47.609692" lon="7.699268">
        <ele>436.818509</ele>
        <time>2021-11-16T23:09:15.328Z</time>
      </trkpt>
      <trkpt lat="47.609650" lon="7.698957">
        <ele>436.128330</ele>
        <time>2021-11-16T23:09:17.420Z</time>
      </trkpt>
      <trkpt lat="47.609551" lon="7.698537">
        <ele>435.164583</ele>
        <time>2021-11-16T23:09:20.346Z</time>
      </trkpt>
      <trkpt lat="47.609611" lon="7.698509">
        <ele>434.962494</ele>
        <time>2021-11-16T23:09:22.192Z</time>
      </trkpt>
      <trkpt lat="47.609644" lon="7.698649">
        <ele>434.641245</ele>
        <time>2021-11-16T23:09:25.168Z</time>
      </trkpt>
      <trkpt lat="47.609749" lon="7.698633">
        <ele>434.302116</ele>
        <time>2021-11-16T23:09:28.484Z</time>
      </trkpt>
      <trkpt lat="47.609864" lon="7.698392">
        <ele>433.662569</ele>
        <time>2021-11-16T23:09:30.535Z</time>
      </trkpt>
      <trkpt lat="47.610367" lon="7.697800">
        <ele>431.599560</ele>
        <time>2021-11-16T23:09:37.081Z</time>
      </trkpt>
      <trkpt lat="47.610528" lon="7.697513">
        <ele>430.738054</ele>
        <time>2021-11-16T23:09:39.816Z</time>
      </trkpt>
      <trkpt lat="47.610700" lon="7.696880">
        <ele>428.920125</ele>
        <time>2021-11-16T23:09:44.759Z</time>
      </trkpt>
      <trkpt lat="47.610722" lon="7.696534">
        <ele>427.994395</ele>
        <time>2021-11-16T23:09:47.159Z</time>
      </trkpt>
      <trkpt lat="47.610655" lon="7.696141">
        <ele>426.914607</ele>
        <time>2021-11-16T23:09:49.857Z</time>
      </trkpt>
      <trkpt lat="47.610378" lon="7.694955">
        <ele>423.351677</ele>
        <time>2021-11-16T23:09:57.865Z</time>
      </trkpt>
      <trkpt lat="47.610350" lon="7.694573">
        <ele>421.672417</ele>
        <time>2021-11-16T23:10:00.187Z</time>
      </trkpt>
      <trkpt lat="47.610479" lon="7.693184">
        <ele>415.544868</ele>
        <time>2021-11-16T23:10:08.726Z</time>
      </trkpt>
      <trkpt lat="47.610505" lon="7.692984">
        <ele>414.654726</ele>
        <time>2021-11-16T23:10:09.937Z</time>
      </trkpt>
      <trkpt lat="47.610669" lon="7.691862">
        <ele>409.911691</ele>
        <time>2021-11-16T23:10:16.958Z</time>
      </trkpt>
      <trkpt lat="47.610882" lon="7.690511">
        <ele>404.483684</ele>
        <time>2021-11-16T23:10:25.529Z</time>
      </trkpt>
      <trkpt lat="47.611115" lon="7.689563">
        <ele>400.907896</ele>
        <time>2021-11-16T23:10:31.994Z</time>
      </trkpt>
      <trkpt lat="47.611364" lon="7.688604">
        <ele>398.054516</ele>
        <time>2021-11-16T23:10:38.686Z</time>
      </trkpt>
      <trkpt lat="47.611595" lon="7.687911">
        <ele>395.908011</ele>
        <time>2021-11-16T23:10:43.736Z</time>
      </trkpt>
      <trkpt lat="47.611833" lon="7.687241">
        <ele>394.232479</ele>
        <time>2021-11-16T23:10:48.825Z</time>
      </trkpt>
      <trkpt lat="47.611888" lon="7.687112">
        <ele>394.108560</ele>
        <time>2021-11-16T23:10:49.877Z</time>
      </trkpt>
      <trkpt lat="47.611904" lon="7.687083">
        <ele>394.078136</ele>
        <time>2021-11-16T23:10:50.159Z</time>
      </trkpt>
      <trkpt lat="47.612074" lon="7.686779">
        <ele>393.757467</ele>
        <time>2021-11-16T23:10:52.921Z</time>
      </trkpt>
      <trkpt lat="47.612297" lon="7.686486">
        <ele>393.398709</ele>
        <time>2021-11-16T23:10:56.260Z</time>
      </trkpt>
      <trkpt lat="47.612387" lon="7.686331">
        <ele>393.232627</ele>
        <time>2021-11-16T23:10:57.852Z</time>
      </trkpt>
      <trkpt lat="47.612520" lon="7.686175">
        <ele>393.028434</ele>
        <time>2021-11-16T23:10:59.958Z</time>
      </trkpt>
      <trkpt lat="47.612667" lon="7.685979">
        <ele>392.790400</ele>
        <time>2021-11-16T23:11:02.816Z</time>
      </trkpt>
      <trkpt lat="47.612911" lon="7.685184">
        <ele>392.702729</ele>
        <time>2021-11-16T23:11:12.945Z</time>
      </trkpt>
      <trkpt lat="47.613050" lon="7.684935">
        <ele>393.449084</ele>
        <time>2021-11-16T23:11:17.162Z</time>
      </trkpt>
      <trkpt lat="47.613302" lon="7.684674">
        <ele>394.501620</ele>
        <time>2021-11-16T23:11:25.107Z</time>
      </trkpt>
      <trkpt lat="47.613704" lon="7.684360">
        <ele>396.057496</ele>
        <time>2021-11-16T23:11:39.827Z</time>
      </trkpt>
      <trkpt lat="47.614363" lon="7.683879">
        <ele>398.602466</ele>
        <time>2021-11-16T23:12:04.779Z</time>
      </trkpt>
      <trkpt lat="47.614555" lon="7.683754">
        <ele>399.446161</ele>
        <time>2021-11-16T23:12:12.485Z</time>
      </trkpt>
      <trkpt lat="47.614608" lon="7.683648">
        <ele>399.804141</ele>
        <time>2021-11-16T23:12:14.945Z</time>
      </trkpt>
      <trkpt lat="47.614704" lon="7.683562">
        <ele>400.255396</ele>
        <time>2021-11-16T23:12:19.616Z</time>
      </trkpt>
      <trkpt lat="47.616172" lon="7.682626">
        <ele>405.784118</ele>
        <time>2021-11-16T23:13:08.237Z</time>
      </trkpt>
      <trkpt lat="47.617266" lon="7.682090">
        <ele>406.424019</ele>
        <time>2021-11-16T23:13:28.683Z</time>
      </trkpt>
      <trkpt lat="47.617389" lon="7.682068">
        <ele>406.492829</ele>
        <time>2021-11-16T23:13:30.141Z</time>
      </trkpt>
      <trkpt lat="47.619135" lon="7.681762">
        <ele>402.150100</ele>
        <time>2021-11-16T23:13:48.333Z</time>
      </trkpt>
      <trkpt lat="47.619249" lon="7.681755">
        <ele>401.807564</ele>
        <time>2021-11-16T23:13:49.433Z</time>
      </trkpt>
      <trkpt lat="47.619402" lon="7.681718">
        <ele>401.342176</ele>
        <time>2021-11-16T23:13:50.925Z</time>
      </trkpt>
      <trkpt lat="47.620388" lon="7.681613">
        <ele>396.675503</ele>
        <time>2021-11-16T23:14:00.486Z</time>
      </trkpt>
      <trkpt lat="47.621673" lon="7.681692">
        <ele>389.373679</ele>
        <time>2021-11-16T23:14:12.465Z</time>
      </trkpt>
      <trkpt lat="47.621882" lon="7.681706">
        <ele>387.827932</ele>
        <time>2021-11-16T23:14:14.361Z</time>
      </trkpt>
      <trkpt lat="47.622378" lon="7.681659">
        <ele>384.155822</ele>
        <time>2021-11-16T23:14:18.798Z</time>
      </trkpt>
      <trkpt lat="47.622511" lon="7.681653">
        <ele>383.172712</ele>
        <time>2021-11-16T23:14:19.973Z</time>
      </trkpt>
      <trkpt lat="47.622639" lon="7.681643">
        <ele>382.225687</ele>
        <time>2021-11-16T23:14:21.104Z</time>
      </trkpt>
      <trkpt lat="47.623182" lon="7.681673">
        <ele>377.793177</ele>
        <time>2021-11-16T23:14:25.826Z</time>
      </trkpt>
      <trkpt lat="47.624176" lon="7.681420">
        <ele>367.603055</ele>
        <time>2021-11-16T23:14:34.478Z</time>
      </trkpt>
      <trkpt lat="47.624973" lon="7.681113">
        <ele>359.125298</ele>
        <time>2021-11-16T23:14:41.539Z</time>
      </trkpt>
      <trkpt lat="47.625979" lon="7.681069">
        <ele>348.107215</ele>
        <time>2021-11-16T23:14:50.151Z</time>
      </trkpt>
      <trkpt lat="47.626712" lon="7.680920">
        <ele>340.220550</ele>
        <time>2021-11-16T23:14:56.437Z</time>
      </trkpt>
      <trkpt lat="47.626868" lon="7.680966">
        <ele>338.730515</ele>
        <time>2021-11-16T23:14:57.743Z</time>
      </trkpt>
      <trkpt lat="47.627141" lon="7.681067">
        <ele>336.094667</ele>
        <time>2021-11-16T23:15:00.251Z</time>
      </trkpt>
      <trkpt lat="47.627170" lon="7.681096">
        <ele>335.767046</ele>
        <time>2021-11-16T23:15:01.035Z</time>
      </trkpt>
      <trkpt lat="47.627478" lon="7.681292">
        <ele>332.627437</ele>
        <time>2021-11-16T23:15:09.624Z</time>
      </trkpt>
      <trkpt lat="47.627719" lon="7.681152">
        <ele>330.202813</ele>
        <time>2021-11-16T23:15:16.439Z</time>
      </trkpt>
      <trkpt lat="47.627825" lon="7.680994">
        <ele>328.795238</ele>
        <time>2021-11-16T23:15:19.927Z</time>
      </trkpt>
      <trkpt lat="47.627848" lon="7.681023">
        <ele>328.512480</ele>
        <time>2021-11-16T23:15:20.676Z</time>
      </trkpt>
      <trkpt lat="47.627894" lon="7.681084">
        <ele>327.934517</ele>
        <time>2021-11-16T23:15:26.633Z</time>
      </trkpt>
      <trkpt lat="47.628042" lon="7.681160">
        <ele>326.467325</ele>
        <time>2021-11-16T23:15:41.726Z</time>
      </trkpt>
      <trkpt lat="47.628562" lon="7.681909">
        <ele>321.216842</ele>
        <time>2021-11-16T23:16:47.379Z</time>
      </trkpt>
      <trkpt lat="47.628790" lon="7.682131">
        <ele>319.455439</ele>
        <time>2021-11-16T23:17:12.773Z</time>
      </trkpt>
      <trkpt lat="47.628801" lon="7.682335">
        <ele>318.564605</ele>
        <time>2021-11-16T23:17:25.913Z</time>
      </trkpt>
      <trkpt lat="47.628819" lon="7.682374">
        <ele>318.358847</ele>
        <time>2021-11-16T23:17:28.926Z</time>
      </trkpt>
      <trkpt lat="47.628926" lon="7.682175">
        <ele>317.250698</ele>
        <time>2021-11-16T23:17:30.476Z</time>
      </trkpt>
      <trkpt lat="47.629021" lon="7.682285">
        <ele>316.472380</ele>
        <time>2021-11-16T23:17:31.795Z</time>
      </trkpt>
      <trkpt lat="47.629074" lon="7.682346">
        <ele>316.039145</ele>
        <time>2021-11-16T23:17:32.483Z</time>
      </trkpt>
      <trkpt lat="47.629225" lon="7.682524">
        <ele>314.793526</ele>
        <time>2021-11-16T23:17:34.221Z</time>
      </trkpt>
      <trkpt lat="47.629502" lon="7.682853">
        <ele>312.644859</ele>
        <time>2021-11-16T23:17:37.554Z</time>
      </trkpt>
      <trkpt lat="47.629964" lon="7.683492">
        <ele>309.700950</ele>
        <time>2021-11-16T23:17:43.404Z</time>
      </trkpt>
      <trkpt lat="47.630114" lon="7.683752">
        <ele>308.625825</ele>
        <time>2021-11-16T23:17:45.561Z</time>
      </trkpt>
      <trkpt lat="47.630209" lon="7.683667">
        <ele>308.108741</ele>
        <time>2021-11-16T23:17:46.581Z</time>
      </trkpt>
      <trkpt lat="47.630774" lon="7.683270">
        <ele>305.194824</ele>
        <time>2021-11-16T23:17:52.738Z</time>
      </trkpt>
      <trkpt lat="47.631178" lon="7.683073">
        <ele>304.021195</ele>
        <time>2021-11-16T23:17:57.069Z</time>
      </trkpt>
      <trkpt lat="47.631334" lon="7.683002">
        <ele>303.693923</ele>
        <time>2021-11-16T23:17:58.806Z</time>
      </trkpt>
      <trkpt lat="47.631526" lon="7.682917">
        <ele>303.292060</ele>
        <time>2021-11-16T23:18:00.867Z</time>
      </trkpt>
      <trkpt lat="47.631905" lon="7.682724">
        <ele>302.488393</ele>
        <time>2021-11-16T23:18:05.432Z</time>
      </trkpt>
      <trkpt lat="47.632267" lon="7.682536">
        <ele>301.719156</ele>
        <time>2021-11-16T23:18:09.918Z</time>
      </trkpt>
      <trkpt lat="47.632628" lon="7.682333">
        <ele>301.005464</ele>
        <time>2021-11-16T23:18:14.519Z</time>
      </trkpt>
      <trkpt lat="47.633030" lon="7.682107">
        <ele>300.800263</ele>
        <time>2021-11-16T23:18:19.922Z</time>
      </trkpt>
      <trkpt lat="47.633343" lon="7.681932">
        <ele>300.640601</ele>
        <time>2021-11-16T23:18:24.235Z</time>
      </trkpt>
      <trkpt lat="47.633520" lon="7.681832">
        <ele>300.550195</ele>
        <time>2021-11-16T23:18:26.701Z</time>
      </trkpt>
      <trkpt lat="47.634414" lon="7.681326">
        <ele>300.235975</ele>
        <time>2021-11-16T23:18:40.640Z</time>
      </trkpt>
      <trkpt lat="47.634772" lon="7.681125">
        <ele>300.413126</ele>
        <time>2021-11-16T23:18:46.580Z</time>
      </trkpt>
      <trkpt lat="47.634885" lon="7.681015">
        <ele>300.475672</ele>
        <time>2021-11-16T23:18:48.463Z</time>
      </trkpt>
      <trkpt lat="47.634945" lon="7.680881">
        <ele>300.525847</ele>
        <time>2021-11-16T23:18:50.259Z</time>
      </trkpt>
      <trkpt lat="47.634977" lon="7.680793">
        <ele>300.557033</ele>
        <time>2021-11-16T23:18:51.315Z</time>
      </trkpt>
      <trkpt lat="47.635021" lon="7.680801">
        <ele>300.577549</ele>
        <time>2021-11-16T23:18:52.145Z</time>
      </trkpt>
      <trkpt lat="47.635101" lon="7.680748">
        <ele>300.618097</ele>
        <time>2021-11-16T23:18:53.330Z</time>
      </trkpt>
      <trkpt lat="47.635126" lon="7.680695">
        <ele>300.638273</ele>
        <time>2021-11-16T23:18:54.046Z</time>
      </trkpt>
      <trkpt lat="47.635194" lon="7.680731">
        <ele>300.671687</ele>
        <time>2021-11-16T23:18:55.262Z</time>
      </trkpt>
      <trkpt lat="47.635253" lon="7.680756">
        <ele>300.700085</ele>
        <time>2021-11-16T23:18:56.379Z</time>
      </trkpt>
      <trkpt lat="47.635369" lon="7.680775">
        <ele>300.754098</ele>
        <time>2021-11-16T23:18:58.484Z</time>
      </trkpt>
      <trkpt lat="47.635459" lon="7.680761">
        <ele>300.795980</ele>
        <time>2021-11-16T23:18:59.854Z</time>
      </trkpt>
      <trkpt lat="47.635892" lon="7.680639">
        <ele>300.999423</ele>
        <time>2021-11-16T23:19:08.378Z</time>
      </trkpt>
      <trkpt lat="47.636123" lon="7.680551">
        <ele>301.074795</ele>
        <time>2021-11-16T23:19:13.103Z</time>
      </trkpt>
      <trkpt lat="47.636243" lon="7.680482">
        <ele>301.115467</ele>
        <time>2021-11-16T23:19:15.508Z</time>
      </trkpt>
      <trkpt lat="47.636436" lon="7.680367">
        <ele>301.181196</ele>
        <time>2021-11-16T23:19:19.488Z</time>
      </trkpt>
      <trkpt lat="47.636622" lon="7.680223">
        <ele>301.247498</ele>
        <time>2021-11-16T23:19:23.194Z</time>
      </trkpt>
      <trkpt lat="47.636761" lon="7.680087">
        <ele>301.300116</ele>
        <time>2021-11-16T23:19:25.756Z</time>
      </trkpt>
      <trkpt lat="47.637259" lon="7.679526">
        <ele>301.497711</ele>
        <time>2021-11-16T23:19:34.522Z</time>
      </trkpt>
      <trkpt lat="47.637144" lon="7.679275">
        <ele>301.562349</ele>
        <time>2021-11-16T23:19:37.335Z</time>
      </trkpt>
      <trkpt lat="47.637023" lon="7.679013">
        <ele>301.448218</ele>
        <time>2021-11-16T23:19:40.310Z</time>
      </trkpt>
      <trkpt lat="47.636923" lon="7.678721">
        <ele>301.317603</ele>
        <time>2021-11-16T23:19:43.423Z</time>
      </trkpt>
      <trkpt lat="47.636832" lon="7.678413">
        <ele>301.183495</ele>
        <time>2021-11-16T23:19:46.443Z</time>
      </trkpt>
      <trkpt lat="47.636749" lon="7.678128">
        <ele>301.059686</ele>
        <time>2021-11-16T23:19:49.400Z</time>
      </trkpt>
      <trkpt lat="47.636457" lon="7.677161">
        <ele>300.637127</ele>
        <time>2021-11-16T23:19:58.222Z</time>
      </trkpt>
      <trkpt lat="47.636415" lon="7.676977">
        <ele>300.559658</ele>
        <time>2021-11-16T23:19:59.810Z</time>
      </trkpt>
      <trkpt lat="47.636379" lon="7.676790">
        <ele>300.487039</ele>
        <time>2021-11-16T23:20:01.498Z</time>
      </trkpt>
      <trkpt lat="47.636324" lon="7.676428">
        <ele>300.375244</ele>
        <time>2021-11-16T23:20:04.522Z</time>
      </trkpt>
      <trkpt lat="47.636311" lon="7.676340">
        <ele>300.348103</ele>
        <time>2021-11-16T23:20:05.312Z</time>
      </trkpt>
      <trkpt lat="47.636308" lon="7.676290">
        <ele>300.332981</ele>
        <time>2021-11-16T23:20:05.787Z</time>
      </trkpt>
      <trkpt lat="47.636278" lon="7.676133">
        <ele>300.283817</ele>
        <time>2021-11-16T23:20:07.250Z</time>
      </trkpt>
      <trkpt lat="47.636199" lon="7.675898">
        <ele>300.204699</ele>
        <time>2021-11-16T23:20:09.546Z</time>
      </trkpt>
      <trkpt lat="47.636128" lon="7.675692">
        <ele>300.134992</ele>
        <time>2021-11-16T23:20:11.870Z</time>
      </trkpt>
      <trkpt lat="47.635792" lon="7.674789">
        <ele>299.824229</ele>
        <time>2021-11-16T23:20:21.544Z</time>
      </trkpt>
      <trkpt lat="47.635682" lon="7.674470">
        <ele>299.716273</ele>
        <time>2021-11-16T23:20:24.825Z</time>
      </trkpt>
      <trkpt lat="47.635626" lon="7.674224">
        <ele>299.684166</ele>
        <time>2021-11-16T23:20:27.341Z</time>
      </trkpt>
      <trkpt lat="47.635594" lon="7.673886">
        <ele>299.660262</ele>
        <time>2021-11-16T23:20:30.369Z</time>
      </trkpt>
      <trkpt lat="47.635535" lon="7.673501">
        <ele>299.632611</ele>
        <time>2021-11-16T23:20:34.133Z</time>
      </trkpt>
      <trkpt lat="47.635491" lon="7.673324">
        <ele>299.619399</ele>
        <time>2021-11-16T23:20:35.900Z</time>
      </trkpt>
      <trkpt lat="47.635475" lon="7.673250">
        <ele>299.613956</ele>
        <time>2021-11-16T23:20:36.756Z</time>
      </trkpt>
      <trkpt lat="47.635387" lon="7.672979">
        <ele>299.592889</ele>
        <time>2021-11-16T23:20:39.587Z</time>
      </trkpt>
      <trkpt lat="47.635256" lon="7.672698">
        <ele>299.568959</ele>
        <time>2021-11-16T23:20:43.136Z</time>
      </trkpt>
      <trkpt lat="47.635163" lon="7.672505">
        <ele>299.552342</ele>
        <time>2021-11-16T23:20:45.323Z</time>
      </trkpt>
      <trkpt lat="47.635139" lon="7.672456">
        <ele>299.548099</ele>
        <time>2021-11-16T23:20:45.927Z</time>
      </trkpt>
      <trkpt lat="47.634938" lon="7.671873">
        <ele>299.598748</ele>
        <time>2021-11-16T23:20:52.824Z</time>
      </trkpt>
      <trkpt lat="47.634883" lon="7.671522">
        <ele>299.845225</ele>
        <time>2021-11-16T23:20:56.442Z</time>
      </trkpt>
      <trkpt lat="47.634796" lon="7.671049">
        <ele>300.180577</ele>
        <time>2021-11-16T23:21:01.894Z</time>
      </trkpt>
      <trkpt lat="47.634627" lon="7.670463">
        <ele>300.616548</ele>
        <time>2021-11-16T23:21:10.108Z</time>
      </trkpt>
      <trkpt lat="47.634441" lon="7.669401">
        <ele>301.340809</ele>
        <time>2021-11-16T23:21:27.072Z</time>
      </trkpt>
      <trkpt lat="47.634401" lon="7.669133">
        <ele>301.365468</ele>
        <time>2021-11-16T23:21:30.621Z</time>
      </trkpt>
      <trkpt lat="47.634300" lon="7.668502">
        <ele>301.423729</ele>
        <time>2021-11-16T23:21:39.151Z</time>
      </trkpt>
      <trkpt lat="47.634240" lon="7.668207">
        <ele>301.451410</ele>
        <time>2021-11-16T23:21:42.061Z</time>
      </trkpt>
      <trkpt lat="47.634226" lon="7.668142">
        <ele>301.457540</ele>
        <time>2021-11-16T23:21:42.586Z</time>
      </trkpt>
      <trkpt lat="47.634116" lon="7.667864">
        <ele>301.486501</ele>
        <time>2021-11-16T23:21:46.591Z</time>
      </trkpt>
      <trkpt lat="47.633954" lon="7.667571">
        <ele>301.520548</ele>
        <time>2021-11-16T23:21:49.727Z</time>
      </trkpt>
      <trkpt lat="47.633883" lon="7.667489">
        <ele>301.532542</ele>
        <time>2021-11-16T23:21:51.497Z</time>
      </trkpt>
      <trkpt lat="47.633741" lon="7.667324">
        <ele>301.556584</ele>
        <time>2021-11-16T23:21:53.450Z</time>
      </trkpt>
      <trkpt lat="47.633639" lon="7.667236">
        <ele>301.572313</ele>
        <time>2021-11-16T23:21:55.450Z</time>
      </trkpt>
      <trkpt lat="47.633452" lon="7.667196">
        <ele>301.211036</ele>
        <time>2021-11-16T23:21:57.564Z</time>
      </trkpt>
      <trkpt lat="47.633447" lon="7.667196">
        <ele>301.199367</ele>
        <time>2021-11-16T23:21:57.602Z</time>
      </trkpt>
      <trkpt lat="47.633224" lon="7.667186">
        <ele>300.678678</ele>
        <time>2021-11-16T23:22:00.680Z</time>
      </trkpt>
      <trkpt lat="47.633104" lon="7.667189">
        <ele>300.398575</ele>
        <time>2021-11-16T23:22:01.844Z</time>
      </trkpt>
      <trkpt lat="47.632731" lon="7.667140">
        <ele>299.524639</ele>
        <time>2021-11-16T23:22:05.743Z</time>
      </trkpt>
      <trkpt lat="47.632565" lon="7.667038">
        <ele>299.105318</ele>
        <time>2021-11-16T23:22:07.695Z</time>
      </trkpt>
      <trkpt lat="47.632236" lon="7.666727">
        <ele>298.194920</ele>
        <time>2021-11-16T23:22:11.655Z</time>
      </trkpt>
      <trkpt lat="47.632091" lon="7.666470">
        <ele>297.667759</ele>
        <time>2021-11-16T23:22:13.914Z</time>
      </trkpt>
      <trkpt lat="47.631896" lon="7.665740">
        <ele>296.625322</ele>
        <time>2021-11-16T23:22:19.541Z</time>
      </trkpt>
      <trkpt lat="47.631747" lon="7.664416">
        <ele>294.943900</ele>
        <time>2021-11-16T23:22:29.641Z</time>
      </trkpt>
      <trkpt lat="47.631716" lon="7.664272">
        <ele>294.754544</ele>
        <time>2021-11-16T23:22:30.840Z</time>
      </trkpt>
      <trkpt lat="47.631607" lon="7.663883">
        <ele>294.226833</ele>
        <time>2021-11-16T23:22:34.146Z</time>
      </trkpt>
      <trkpt lat="47.631459" lon="7.663529">
        <ele>293.900303</ele>
        <time>2021-11-16T23:22:37.544Z</time>
      </trkpt>
      <trkpt lat="47.631255" lon="7.663153">
        <ele>293.652882</ele>
        <time>2021-11-16T23:22:41.593Z</time>
      </trkpt>
      <trkpt lat="47.630969" lon="7.662627">
        <ele>293.306460</ele>
        <time>2021-11-16T23:22:47.311Z</time>
      </trkpt>
      <trkpt lat="47.630740" lon="7.662152">
        <ele>293.007103</ele>
        <time>2021-11-16T23:22:52.263Z</time>
      </trkpt>
      <trkpt lat="47.630537" lon="7.661731">
        <ele>292.741763</ele>
        <time>2021-11-16T23:22:56.904Z</time>
      </trkpt>
      <trkpt lat="47.630468" lon="7.661618">
        <ele>292.666638</ele>
        <time>2021-11-16T23:22:58.303Z</time>
      </trkpt>
      <trkpt lat="47.630371" lon="7.661465">
        <ele>292.642151</ele>
        <time>2021-11-16T23:23:00.213Z</time>
      </trkpt>
      <trkpt lat="47.630333" lon="7.661403">
        <ele>292.632382</ele>
        <time>2021-11-16T23:23:01.032Z</time>
      </trkpt>
      <trkpt lat="47.630301" lon="7.661352">
        <ele>292.624259</ele>
        <time>2021-11-16T23:23:01.669Z</time>
      </trkpt>
      <trkpt lat="47.630245" lon="7.661264">
        <ele>292.610150</ele>
        <time>2021-11-16T23:23:02.881Z</time>
      </trkpt>
      <trkpt lat="47.630226" lon="7.661234">
        <ele>292.605351</ele>
        <time>2021-11-16T23:23:03.287Z</time>
      </trkpt>
      <trkpt lat="47.630136" lon="7.661090">
        <ele>292.582458</ele>
        <time>2021-11-16T23:23:05.266Z</time>
      </trkpt>
      <trkpt lat="47.630113" lon="7.661055">
        <ele>292.576759</ele>
        <time>2021-11-16T23:23:05.741Z</time>
      </trkpt>
      <trkpt lat="47.630088" lon="7.661016">
        <ele>292.570485</ele>
        <time>2021-11-16T23:23:06.258Z</time>
      </trkpt>
      <trkpt lat="47.630074" lon="7.660993">
        <ele>292.566872</ele>
        <time>2021-11-16T23:23:06.518Z</time>
      </trkpt>
      <trkpt lat="47.629847" lon="7.660640">
        <ele>292.509995</ele>
        <time>2021-11-16T23:23:11.361Z</time>
      </trkpt>
      <trkpt lat="47.629754" lon="7.660495">
        <ele>292.486661</ele>
        <time>2021-11-16T23:23:13.272Z</time>
      </trkpt>
      <trkpt lat="47.629556" lon="7.660152">
        <ele>292.434015</ele>
        <time>2021-11-16T23:23:17.763Z</time>
      </trkpt>
      <trkpt lat="47.629355" lon="7.659804">
        <ele>292.380588</ele>
        <time>2021-11-16T23:23:22.511Z</time>
      </trkpt>
      <trkpt lat="47.629064" lon="7.659209">
        <ele>292.221492</ele>
        <time>2021-11-16T23:23:29.390Z</time>
      </trkpt>
      <trkpt lat="47.628899" lon="7.658873">
        <ele>292.115214</ele>
        <time>2021-11-16T23:23:33.241Z</time>
      </trkpt>
      <trkpt lat="47.628592" lon="7.658294">
        <ele>291.926883</ele>
        <time>2021-11-16T23:23:40.063Z</time>
      </trkpt>
      <trkpt lat="47.628538" lon="7.658192">
        <ele>291.893725</ele>
        <time>2021-11-16T23:23:41.311Z</time>
      </trkpt>
      <trkpt lat="47.628458" lon="7.658044">
        <ele>291.845225</ele>
        <time>2021-11-16T23:23:42.927Z</time>
      </trkpt>
      <trkpt lat="47.628321" lon="7.657798">
        <ele>291.763645</ele>
        <time>2021-11-16T23:23:45.887Z</time>
      </trkpt>
      <trkpt lat="47.628261" lon="7.657704">
        <ele>291.730548</ele>
        <time>2021-11-16T23:23:46.951Z</time>
      </trkpt>
      <trkpt lat="47.628109" lon="7.657481">
        <ele>291.611811</ele>
        <time>2021-11-16T23:23:49.732Z</time>
      </trkpt>
      <trkpt lat="47.627886" lon="7.657228">
        <ele>291.342910</ele>
        <time>2021-11-16T23:23:53.226Z</time>
      </trkpt>
      <trkpt lat="47.627833" lon="7.657156">
        <ele>291.274076</ele>
        <time>2021-11-16T23:23:54.164Z</time>
      </trkpt>
      <trkpt lat="47.627796" lon="7.657096">
        <ele>291.221573</ele>
        <time>2021-11-16T23:23:54.910Z</time>
      </trkpt>
      <trkpt lat="47.627648" lon="7.656963">
        <ele>291.055829</ele>
        <time>2021-11-16T23:23:56.973Z</time>
      </trkpt>
      <trkpt lat="47.627519" lon="7.656866">
        <ele>290.917297</ele>
        <time>2021-11-16T23:23:58.787Z</time>
      </trkpt>
      <trkpt lat="47.627453" lon="7.656817">
        <ele>290.846602</ele>
        <time>2021-11-16T23:23:59.707Z</time>
      </trkpt>
      <trkpt lat="47.627090" lon="7.656600">
        <ele>290.471721</ele>
        <time>2021-11-16T23:24:04.334Z</time>
      </trkpt>
      <trkpt lat="47.626886" lon="7.656437">
        <ele>290.249775</ele>
        <time>2021-11-16T23:24:07.131Z</time>
      </trkpt>
      <trkpt lat="47.626803" lon="7.656356">
        <ele>290.154613</ele>
        <time>2021-11-16T23:24:08.335Z</time>
      </trkpt>
      <trkpt lat="47.626748" lon="7.656303">
        <ele>290.091792</ele>
        <time>2021-11-16T23:24:09.148Z</time>
      </trkpt>
      <trkpt lat="47.626624" lon="7.656176">
        <ele>289.949747</ele>
        <time>2021-11-16T23:24:10.950Z</time>
      </trkpt>
      <trkpt lat="47.626545" lon="7.656094">
        <ele>289.913625</ele>
        <time>2021-11-16T23:24:12.171Z</time>
      </trkpt>
      <trkpt lat="47.626414" lon="7.655973">
        <ele>289.855811</ele>
        <time>2021-11-16T23:24:14.867Z</time>
      </trkpt>
      <trkpt lat="47.626390" lon="7.655951">
        <ele>289.845242</ele>
        <time>2021-11-16T23:24:15.334Z</time>
      </trkpt>
      <trkpt lat="47.626091" lon="7.655684">
        <ele>289.714493</ele>
        <time>2021-11-16T23:24:21.471Z</time>
      </trkpt>
      <trkpt lat="47.626043" lon="7.655643">
        <ele>289.693742</ele>
        <time>2021-11-16T23:24:22.439Z</time>
      </trkpt>
      <trkpt lat="47.625222" lon="7.654928">
        <ele>289.337070</ele>
        <time>2021-11-16T23:24:40.645Z</time>
      </trkpt>
      <trkpt lat="47.625007" lon="7.654737">
        <ele>289.536329</ele>
        <time>2021-11-16T23:24:45.990Z</time>
      </trkpt>
      <trkpt lat="47.624796" lon="7.654502">
        <ele>290.286130</ele>
        <time>2021-11-16T23:24:52.276Z</time>
      </trkpt>
      <trkpt lat="47.624628" lon="7.654306">
        <ele>290.893505</ele>
        <time>2021-11-16T23:24:57.469Z</time>
      </trkpt>
      <trkpt lat="47.624578" lon="7.654243">
        <ele>291.079929</ele>
        <time>2021-11-16T23:24:59.109Z</time>
      </trkpt>
      <trkpt lat="47.624417" lon="7.654036">
        <ele>291.685379</ele>
        <time>2021-11-16T23:25:04.929Z</time>
      </trkpt>
      <trkpt lat="47.624230" lon="7.653711">
        <ele>292.503897</ele>
        <time>2021-11-16T23:25:13.672Z</time>
      </trkpt>
      <trkpt lat="47.623984" lon="7.653230">
        <ele>293.660461</ele>
        <time>2021-11-16T23:25:28.540Z</time>
      </trkpt>
      <trkpt lat="47.623840" lon="7.652852">
        <ele>294.656685</ele>
        <time>2021-11-16T23:25:40.909Z</time>
      </trkpt>
      <trkpt lat="47.623719" lon="7.652535">
        <ele>296.467577</ele>
        <time>2021-11-16T23:25:53.890Z</time>
      </trkpt>
      <trkpt lat="47.623696" lon="7.652412">
        <ele>297.102082</ele>
        <time>2021-11-16T23:25:57.512Z</time>
      </trkpt>
      <trkpt lat="47.623596" lon="7.651870">
        <ele>299.895386</ele>
        <time>2021-11-16T23:26:16.357Z</time>
      </trkpt>
      <trkpt lat="47.623573" lon="7.651619">
        <ele>301.154540</ele>
        <time>2021-11-16T23:26:25.938Z</time>
      </trkpt>
      <trkpt lat="47.623570" lon="7.651585">
        <ele>301.324990</ele>
        <time>2021-11-16T23:26:27.698Z</time>
      </trkpt>
      <trkpt lat="47.623570" lon="7.651292">
        <ele>302.781442</ele>
        <time>2021-11-16T23:26:36.304Z</time>
      </trkpt>
      <trkpt lat="47.623591" lon="7.651055">
        <ele>303.969664</ele>
        <time>2021-11-16T23:26:46.281Z</time>
      </trkpt>
      <trkpt lat="47.623627" lon="7.650817">
        <ele>305.182146</ele>
        <time>2021-11-16T23:26:53.715Z</time>
      </trkpt>
      <trkpt lat="47.623733" lon="7.650546">
        <ele>306.739646</ele>
        <time>2021-11-16T23:27:06.234Z</time>
      </trkpt>
      <trkpt lat="47.623600" lon="7.650463">
        <ele>307.769338</ele>
        <time>2021-11-16T23:27:12.600Z</time>
      </trkpt>
      <trkpt lat="47.623265" lon="7.650061">
        <ele>310.215189</ele>
        <time>2021-11-16T23:27:34.884Z</time>
      </trkpt>
      <trkpt lat="47.622980" lon="7.649768">
        <ele>312.183498</ele>
        <time>2021-11-16T23:27:51.674Z</time>
      </trkpt>
      <trkpt lat="47.622865" lon="7.649722">
        <ele>312.859629</ele>
        <time>2021-11-16T23:28:00.034Z</time>
      </trkpt>
      <trkpt lat="47.622829" lon="7.649707">
        <ele>313.071896</ele>
        <time>2021-11-16T23:28:02.641Z</time>
      </trkpt>
      <trkpt lat="47.622586" lon="7.649659">
        <ele>314.463509</ele>
        <time>2021-11-16T23:28:34.406Z</time>
      </trkpt>
      <trkpt lat="47.621011" lon="7.649752">
        <ele>320.491364</ele>
        <time>2021-11-16T23:31:49.835Z</time>
      </trkpt>
      <trkpt lat="47.620841" lon="7.649697">
        <ele>320.959111</ele>
        <time>2021-11-16T23:32:10.786Z</time>
      </trkpt>
      <trkpt lat="47.619979" lon="7.649421">
        <ele>323.150316</ele>
        <time>2021-11-16T23:33:55.801Z</time>
      </trkpt>
      <trkpt lat="47.618854" lon="7.649064">
        <ele>325.362000</ele>
        <time>2021-11-16T23:36:12.726Z</time>
      </trkpt>
      <trkpt lat="47.618445" lon="7.648934">
        <ele>326.163971</ele>
        <time>2021-11-16T23:37:02.399Z</time>
      </trkpt>
      <trkpt lat="47.617849" lon="7.648759">
        <ele>327.034119</ele>
        <time>2021-11-16T23:37:19.003Z</time>
      </trkpt>
      <trkpt lat="47.616653" lon="7.648490">
        <ele>328.755237</ele>
        <time>2021-11-16T23:37:50.099Z</time>
      </trkpt>
      <trkpt lat="47.615344" lon="7.648363">
        <ele>329.985406</ele>
        <time>2021-11-16T23:38:19.926Z</time>
      </trkpt>
      <trkpt lat="47.614862" lon="7.648276">
        <ele>330.484465</ele>
        <time>2021-11-16T23:38:31.202Z</time>
      </trkpt>
      <trkpt lat="47.614246" lon="7.648174">
        <ele>332.314853</ele>
        <time>2021-11-16T23:38:48.843Z</time>
      </trkpt>
      <trkpt lat="47.613687" lon="7.648225">
        <ele>333.968738</ele>
        <time>2021-11-16T23:39:07.328Z</time>
      </trkpt>
      <trkpt lat="47.613177" lon="7.648136">
        <ele>335.485190</ele>
        <time>2021-11-16T23:39:25.281Z</time>
      </trkpt>
      <trkpt lat="47.613095" lon="7.648112">
        <ele>335.732074</ele>
        <time>2021-11-16T23:39:29.517Z</time>
      </trkpt>
      <trkpt lat="47.612548" lon="7.647790">
        <ele>338.740140</ele>
        <time>2021-11-16T23:39:51.478Z</time>
      </trkpt>
      <trkpt lat="47.610478" lon="7.647823">
        <ele>349.355464</ele>
        <time>2021-11-16T23:41:19.104Z</time>
      </trkpt>
      <trkpt lat="47.610440" lon="7.647809">
        <ele>349.557150</ele>
        <time>2021-11-16T23:41:22.188Z</time>
      </trkpt>
      <trkpt lat="47.609446" lon="7.647368">
        <ele>354.497181</ele>
        <time>2021-11-16T23:42:02.284Z</time>
      </trkpt>
      <trkpt lat="47.609247" lon="7.647321">
        <ele>354.945030</ele>
        <time>2021-11-16T23:42:10.887Z</time>
      </trkpt>
      <trkpt lat="47.608285" lon="7.647123">
        <ele>357.103563</ele>
        <time>2021-11-16T23:42:37.895Z</time>
      </trkpt>
      <trkpt lat="47.608124" lon="7.647120">
        <ele>357.461415</ele>
        <time>2021-11-16T23:42:42.309Z</time>
      </trkpt>
      <trkpt lat="47.607751" lon="7.647191">
        <ele>358.203406</ele>
        <time>2021-11-16T23:42:51.106Z</time>
      </trkpt>
      <trkpt lat="47.607574" lon="7.647225">
        <ele>358.259660</ele>
        <time>2021-11-16T23:42:54.233Z</time>
      </trkpt>
      <trkpt lat="47.607235" lon="7.647213">
        <ele>358.366537</ele>
        <time>2021-11-16T23:43:00.646Z</time>
      </trkpt>
      <trkpt lat="47.607165" lon="7.647189">
        <ele>358.389182</ele>
        <time>2021-11-16T23:43:02.107Z</time>
      </trkpt>
      <trkpt lat="47.605841" lon="7.646737">
        <ele>359.253574</ele>
        <time>2021-11-16T23:43:29.906Z</time>
      </trkpt>
      <trkpt lat="47.604848" lon="7.646263">
        <ele>361.873698</ele>
        <time>2021-11-16T23:44:02.655Z</time>
      </trkpt>
      <trkpt lat="47.604602" lon="7.646139">
        <ele>362.526289</ele>
        <time>2021-11-16T23:44:11.975Z</time>
      </trkpt>
      <trkpt lat="47.604451" lon="7.646134">
        <ele>362.905653</ele>
        <time>2021-11-16T23:44:16.608Z</time>
      </trkpt>
      <trkpt lat="47.604155" lon="7.645933">
        <ele>363.960130</ele>
        <time>2021-11-16T23:44:25.832Z</time>
      </trkpt>
      <trkpt lat="47.603966" lon="7.645772">
        <ele>364.795094</ele>
        <time>2021-11-16T23:44:32.527Z</time>
      </trkpt>
      <trkpt lat="47.603844" lon="7.645602">
        <ele>365.436378</ele>
        <time>2021-11-16T23:44:36.982Z</time>
      </trkpt>
      <trkpt lat="47.603720" lon="7.645470">
        <ele>366.021101</ele>
        <time>2021-11-16T23:44:42.092Z</time>
      </trkpt>
      <trkpt lat="47.603683" lon="7.645438">
        <ele>366.185183</ele>
        <time>2021-11-16T23:44:43.336Z</time>
      </trkpt>
      <trkpt lat="47.603632" lon="7.645400">
        <ele>366.403827</ele>
        <time>2021-11-16T23:44:44.694Z</time>
      </trkpt>
      <trkpt lat="47.603524" lon="7.645343">
        <ele>366.842977</ele>
        <time>2021-11-16T23:44:48.329Z</time>
      </trkpt>
      <trkpt lat="47.603252" lon="7.645245">
        <ele>367.915281</ele>
        <time>2021-11-16T23:44:57.244Z</time>
      </trkpt>
      <trkpt lat="47.602928" lon="7.645105">
        <ele>369.208090</ele>
        <time>2021-11-16T23:45:08.077Z</time>
      </trkpt>
      <trkpt lat="47.602795" lon="7.645046">
        <ele>369.739899</ele>
        <time>2021-11-16T23:45:13.003Z</time>
      </trkpt>
      <trkpt lat="47.602604" lon="7.644961">
        <ele>370.303089</ele>
        <time>2021-11-16T23:45:18.827Z</time>
      </trkpt>
      <trkpt lat="47.602523" lon="7.644921">
        <ele>370.437593</ele>
        <time>2021-11-16T23:45:21.593Z</time>
      </trkpt>
      <trkpt lat="47.602361" lon="7.644841">
        <ele>370.706601</ele>
        <time>2021-11-16T23:45:26.908Z</time>
      </trkpt>
      <trkpt lat="47.602265" lon="7.644771">
        <ele>370.875141</ele>
        <time>2021-11-16T23:45:29.153Z</time>
      </trkpt>
      <trkpt lat="47.602157" lon="7.644668">
        <ele>371.077441</ele>
        <time>2021-11-16T23:45:32.743Z</time>
      </trkpt>
      <trkpt lat="47.601944" lon="7.644433">
        <ele>371.495697</ele>
        <time>2021-11-16T23:45:38.930Z</time>
      </trkpt>
      <trkpt lat="47.601879" lon="7.644363">
        <ele>371.622256</ele>
        <time>2021-11-16T23:45:40.609Z</time>
      </trkpt>
      <trkpt lat="47.601717" lon="7.644206">
        <ele>371.927150</ele>
        <time>2021-11-16T23:45:44.268Z</time>
      </trkpt>
      <trkpt lat="47.601589" lon="7.644110">
        <ele>372.153134</ele>
        <time>2021-11-16T23:45:47.018Z</time>
      </trkpt>
      <trkpt lat="47.601161" lon="7.643867">
        <ele>372.875174</ele>
        <time>2021-11-16T23:45:54.058Z</time>
      </trkpt>
      <trkpt lat="47.600969" lon="7.643771">
        <ele>372.478459</ele>
        <time>2021-11-16T23:45:56.967Z</time>
      </trkpt>
      <trkpt lat="47.600736" lon="7.643687">
        <ele>371.488656</ele>
        <time>2021-11-16T23:45:59.698Z</time>
      </trkpt>
      <trkpt lat="47.600602" lon="7.643671">
        <ele>370.933733</ele>
        <time>2021-11-16T23:46:01.277Z</time>
      </trkpt>
      <trkpt lat="47.600456" lon="7.643690">
        <ele>370.328749</ele>
        <time>2021-11-16T23:46:02.722Z</time>
      </trkpt>
      <trkpt lat="47.599447" lon="7.643794">
        <ele>366.153687</ele>
        <time>2021-11-16T23:46:12.156Z</time>
      </trkpt>
      <trkpt lat="47.598491" lon="7.643991">
        <ele>360.176833</ele>
        <time>2021-11-16T23:46:20.800Z</time>
      </trkpt>
      <trkpt lat="47.598286" lon="7.644014">
        <ele>358.831201</ele>
        <time>2021-11-16T23:46:22.631Z</time>
      </trkpt>
      <trkpt lat="47.598012" lon="7.644023">
        <ele>357.037335</ele>
        <time>2021-11-16T23:46:25.128Z</time>
      </trkpt>
      <trkpt lat="47.596943" lon="7.643837">
        <ele>350.795386</ele>
        <time>2021-11-16T23:46:35.032Z</time>
      </trkpt>
      <trkpt lat="47.596585" lon="7.643680">
        <ele>348.867267</ele>
        <time>2021-11-16T23:46:38.547Z</time>
      </trkpt>
      <trkpt lat="47.596404" lon="7.643518">
        <ele>347.775385</ele>
        <time>2021-11-16T23:46:40.671Z</time>
      </trkpt>
      <trkpt lat="47.596335" lon="7.643445">
        <ele>347.337623</ele>
        <time>2021-11-16T23:46:41.421Z</time>
      </trkpt>
      <trkpt lat="47.596252" lon="7.643332">
        <ele>346.755690</ele>
        <time>2021-11-16T23:46:42.595Z</time>
      </trkpt>
      <trkpt lat="47.596132" lon="7.643092">
        <ele>345.715115</ele>
        <time>2021-11-16T23:46:44.459Z</time>
      </trkpt>
      <trkpt lat="47.596103" lon="7.643007">
        <ele>345.383343</ele>
        <time>2021-11-16T23:46:45.098Z</time>
      </trkpt>
      <trkpt lat="47.596081" lon="7.642909">
        <ele>345.023610</ele>
        <time>2021-11-16T23:46:45.816Z</time>
      </trkpt>
      <trkpt lat="47.596022" lon="7.642553">
        <ele>343.707100</ele>
        <time>2021-11-16T23:46:48.097Z</time>
      </trkpt>
      <trkpt lat="47.595898" lon="7.642187">
        <ele>342.206276</ele>
        <time>2021-11-16T23:46:50.814Z</time>
      </trkpt>
      <trkpt lat="47.595879" lon="7.642175">
        <ele>342.094064</ele>
        <time>2021-11-16T23:46:51.017Z</time>
      </trkpt>
      <trkpt lat="47.595834" lon="7.642146">
        <ele>341.827461</ele>
        <time>2021-11-16T23:46:51.428Z</time>
      </trkpt>
      <trkpt lat="47.595714" lon="7.642163">
        <ele>341.172460</ele>
        <time>2021-11-16T23:46:52.643Z</time>
      </trkpt>
      <trkpt lat="47.595598" lon="7.642302">
        <ele>340.362100</ele>
        <time>2021-11-16T23:46:54.063Z</time>
      </trkpt>
      <trkpt lat="47.595558" lon="7.642639">
        <ele>339.108285</ele>
        <time>2021-11-16T23:46:56.184Z</time>
      </trkpt>
      <trkpt lat="47.595791" lon="7.643400">
        <ele>336.045888</ele>
        <time>2021-11-16T23:47:01.454Z</time>
      </trkpt>
      <trkpt lat="47.596075" lon="7.644114">
        <ele>332.638614</ele>
        <time>2021-11-16T23:47:06.551Z</time>
      </trkpt>
      <trkpt lat="47.596072" lon="7.644283">
        <ele>331.886591</ele>
        <time>2021-11-16T23:47:07.576Z</time>
      </trkpt>
      <trkpt lat="47.595958" lon="7.644401">
        <ele>330.969526</ele>
        <time>2021-11-16T23:47:08.825Z</time>
      </trkpt>
      <trkpt lat="47.595866" lon="7.644353">
        <ele>330.326191</ele>
        <time>2021-11-16T23:47:09.722Z</time>
      </trkpt>
      <trkpt lat="47.595406" lon="7.643488">
        <ele>325.425895</ele>
        <time>2021-11-16T23:47:16.429Z</time>
      </trkpt>
      <trkpt lat="47.595269" lon="7.643258">
        <ele>324.060807</ele>
        <time>2021-11-16T23:47:18.284Z</time>
      </trkpt>
      <trkpt lat="47.595175" lon="7.643108">
        <ele>323.149924</ele>
        <time>2021-11-16T23:47:19.547Z</time>
      </trkpt>
      <trkpt lat="47.594961" lon="7.642788">
        <ele>321.090644</ele>
        <time>2021-11-16T23:47:22.278Z</time>
      </trkpt>
      <trkpt lat="47.593962" lon="7.641202">
        <ele>311.131691</ele>
        <time>2021-11-16T23:47:35.426Z</time>
      </trkpt>
      <trkpt lat="47.593994" lon="7.639593">
        <ele>304.633512</ele>
        <time>2021-11-16T23:47:45.446Z</time>
      </trkpt>
      <trkpt lat="47.594078" lon="7.638956">
        <ele>302.039259</ele>
        <time>2021-11-16T23:47:49.503Z</time>
      </trkpt>
      <trkpt lat="47.594072" lon="7.638598">
        <ele>300.607922</ele>
        <time>2021-11-16T23:47:51.741Z</time>
      </trkpt>
      <trkpt lat="47.594069" lon="7.638280">
        <ele>299.312838</ele>
        <time>2021-11-16T23:47:53.715Z</time>
      </trkpt>
      <trkpt lat="47.594069" lon="7.638222">
        <ele>299.072290</ele>
        <time>2021-11-16T23:47:54.074Z</time>
      </trkpt>
      <trkpt lat="47.594090" lon="7.637892">
        <ele>297.697577</ele>
        <time>2021-11-16T23:47:56.096Z</time>
      </trkpt>
      <trkpt lat="47.594146" lon="7.637486">
        <ele>295.978885</ele>
        <time>2021-11-16T23:47:58.620Z</time>
      </trkpt>
      <trkpt lat="47.594366" lon="7.636430">
        <ele>291.395048</ele>
        <time>2021-11-16T23:48:05.400Z</time>
      </trkpt>
      <trkpt lat="47.594396" lon="7.636276">
        <ele>290.730242</ele>
        <time>2021-11-16T23:48:06.394Z</time>
      </trkpt>
      <trkpt lat="47.594556" lon="7.635456">
        <ele>287.889794</ele>
        <time>2021-11-16T23:48:11.695Z</time>
      </trkpt>
      <trkpt lat="47.594639" lon="7.635034">
        <ele>286.807936</ele>
        <time>2021-11-16T23:48:14.492Z</time>
      </trkpt>
      <trkpt lat="47.594684" lon="7.634716">
        <ele>286.008259</ele>
        <time>2021-11-16T23:48:16.621Z</time>
      </trkpt>
      <trkpt lat="47.594693" lon="7.634515">
        <ele>285.512488</ele>
        <time>2021-11-16T23:48:17.941Z</time>
      </trkpt>
      <trkpt lat="47.594612" lon="7.634037">
        <ele>284.299508</ele>
        <time>2021-11-16T23:48:21.290Z</time>
      </trkpt>
      <trkpt lat="47.594595" lon="7.633938">
        <ele>284.048084</ele>
        <time>2021-11-16T23:48:21.999Z</time>
      </trkpt>
      <trkpt lat="47.594499" lon="7.633707">
        <ele>283.380284</ele>
        <time>2021-11-16T23:48:23.966Z</time>
      </trkpt>
      <trkpt lat="47.594221" lon="7.633341">
        <ele>282.311029</ele>
        <time>2021-11-16T23:48:28.256Z</time>
      </trkpt>
      <trkpt lat="47.593668" lon="7.632732">
        <ele>282.030377</ele>
        <time>2021-11-16T23:48:37.154Z</time>
      </trkpt>
      <trkpt lat="47.593569" lon="7.632922">
        <ele>281.964404</ele>
        <time>2021-11-16T23:48:39.705Z</time>
      </trkpt>
      <trkpt lat="47.593357" lon="7.633366">
        <ele>281.814924</ele>
        <time>2021-11-16T23:48:45.137Z</time>
      </trkpt>
      <trkpt lat="47.593264" lon="7.633642">
        <ele>281.730148</ele>
        <time>2021-11-16T23:48:48.535Z</time>
      </trkpt>
      <trkpt lat="47.593191" lon="7.633915">
        <ele>281.649455</ele>
        <time>2021-11-16T23:48:51.579Z</time>
      </trkpt>
      <trkpt lat="47.593146" lon="7.634554">
        <ele>281.596950</ele>
        <time>2021-11-16T23:48:58.230Z</time>
      </trkpt>
      <trkpt lat="47.593040" lon="7.635203">
        <ele>281.574404</ele>
        <time>2021-11-16T23:49:05.020Z</time>
      </trkpt>
      <trkpt lat="47.593020" lon="7.635250">
        <ele>281.572527</ele>
        <time>2021-11-16T23:49:05.687Z</time>
      </trkpt>
      <trkpt lat="47.592984" lon="7.635276">
        <ele>281.570523</ele>
        <time>2021-11-16T23:49:06.219Z</time>
      </trkpt>
      <trkpt lat="47.592438" lon="7.635358">
        <ele>281.543047</ele>
        <time>2021-11-16T23:49:14.390Z</time>
      </trkpt>
      <trkpt lat="47.592405" lon="7.635387">
        <ele>281.541126</ele>
        <time>2021-11-16T23:49:14.846Z</time>
      </trkpt>
      <trkpt lat="47.592363" lon="7.635505">
        <ele>281.536621</ele>
        <time>2021-11-16T23:49:16.341Z</time>
      </trkpt>
      <trkpt lat="47.592151" lon="7.636264">
        <ele>281.072592</ele>
        <time>2021-11-16T23:49:24.062Z</time>
      </trkpt>
      <trkpt lat="47.592004" lon="7.636793">
        <ele>280.505705</ele>
        <time>2021-11-16T23:49:28.663Z</time>
      </trkpt>
      <trkpt lat="47.591939" lon="7.636981">
        <ele>280.296380</ele>
        <time>2021-11-16T23:49:30.301Z</time>
      </trkpt>
      <trkpt lat="47.591826" lon="7.637265">
        <ele>279.969667</ele>
        <time>2021-11-16T23:49:32.943Z</time>
      </trkpt>
      <trkpt lat="47.591793" lon="7.637341">
        <ele>279.880108</ele>
        <time>2021-11-16T23:49:33.541Z</time>
      </trkpt>
      <trkpt lat="47.591568" lon="7.637986">
        <ele>279.160602</ele>
        <time>2021-11-16T23:49:38.905Z</time>
      </trkpt>
      <trkpt lat="47.591560" lon="7.638083">
        <ele>279.063777</ele>
        <time>2021-11-16T23:49:39.621Z</time>
      </trkpt>
      <trkpt lat="47.591561" lon="7.638177">
        <ele>278.970628</ele>
        <time>2021-11-16T23:49:40.331Z</time>
      </trkpt>
      <trkpt lat="47.591582" lon="7.638302">
        <ele>278.813707</ele>
        <time>2021-11-16T23:49:41.166Z</time>
      </trkpt>
      <trkpt lat="47.591888" lon="7.639181">
        <ele>277.093665</ele>
        <time>2021-11-16T23:49:48.349Z</time>
      </trkpt>
      <trkpt lat="47.592081" lon="7.639698">
        <ele>276.066164</ele>
        <time>2021-11-16T23:49:52.452Z</time>
      </trkpt>
      <trkpt lat="47.592111" lon="7.639788">
        <ele>275.891599</ele>
        <time>2021-11-16T23:49:53.175Z</time>
      </trkpt>
      <trkpt lat="47.592123" lon="7.639880">
        <ele>275.728663</ele>
        <time>2021-11-16T23:49:53.826Z</time>
      </trkpt>
      <trkpt lat="47.592162" lon="7.640337">
        <ele>274.927690</ele>
        <time>2021-11-16T23:49:57.016Z</time>
      </trkpt>
      <trkpt lat="47.592180" lon="7.640409">
        <ele>274.794171</ele>
        <time>2021-11-16T23:49:57.545Z</time>
      </trkpt>
      <trkpt lat="47.592197" lon="7.640454">
        <ele>274.704484</ele>
        <time>2021-11-16T23:49:57.936Z</time>
      </trkpt>
      <trkpt lat="47.592211" lon="7.640492">
        <ele>274.629193</ele>
        <time>2021-11-16T23:49:58.267Z</time>
      </trkpt>
      <trkpt lat="47.592231" lon="7.640536">
        <ele>274.536930</ele>
        <time>2021-11-16T23:49:58.674Z</time>
      </trkpt>
      <trkpt lat="47.592272" lon="7.640612">
        <ele>274.367702</ele>
        <time>2021-11-16T23:49:59.467Z</time>
      </trkpt>
      <trkpt lat="47.592322" lon="7.640775">
        <ele>274.106631</ele>
        <time>2021-11-16T23:50:00.692Z</time>
      </trkpt>
      <trkpt lat="47.592339" lon="7.640861">
        <ele>273.992487</ele>
        <time>2021-11-16T23:50:01.332Z</time>
      </trkpt>
      <trkpt lat="47.592341" lon="7.640976">
        <ele>273.845966</ele>
        <time>2021-11-16T23:50:02.148Z</time>
      </trkpt>
      <trkpt lat="47.592311" lon="7.641437">
        <ele>273.256078</ele>
        <time>2021-11-16T23:50:05.420Z</time>
      </trkpt>
      <trkpt lat="47.592291" lon="7.641581">
        <ele>273.068820</ele>
        <time>2021-11-16T23:50:06.464Z</time>
      </trkpt>
      <trkpt lat="47.592277" lon="7.641676">
        <ele>272.944966</ele>
        <time>2021-11-16T23:50:07.292Z</time>
      </trkpt>
      <trkpt lat="47.592236" lon="7.641777">
        <ele>272.794819</ele>
        <time>2021-11-16T23:50:08.119Z</time>
      </trkpt>
      <trkpt lat="47.592141" lon="7.642236">
        <ele>272.183292</ele>
        <time>2021-11-16T23:50:11.835Z</time>
      </trkpt>
      <trkpt lat="47.592138" lon="7.642302">
        <ele>272.099039</ele>
        <time>2021-11-16T23:50:12.289Z</time>
      </trkpt>
      <trkpt lat="47.592144" lon="7.642395">
        <ele>271.980046</ele>
        <time>2021-11-16T23:50:13.052Z</time>
      </trkpt>
      <trkpt lat="47.592147" lon="7.642526">
        <ele>271.813099</ele>
        <time>2021-11-16T23:50:14.019Z</time>
      </trkpt>
      <trkpt lat="47.592139" lon="7.642591">
        <ele>271.728943</ele>
        <time>2021-11-16T23:50:14.539Z</time>
      </trkpt>
      <trkpt lat="47.592109" lon="7.642817">
        <ele>271.435570</ele>
        <time>2021-11-16T23:50:16.424Z</time>
      </trkpt>
      <trkpt lat="47.592099" lon="7.642873">
        <ele>271.361786</ele>
        <time>2021-11-16T23:50:16.900Z</time>
      </trkpt>
      <trkpt lat="47.592096" lon="7.642889">
        <ele>271.340634</ele>
        <time>2021-11-16T23:50:17.055Z</time>
      </trkpt>
      <trkpt lat="47.592075" lon="7.643001">
        <ele>271.192572</ele>
        <time>2021-11-16T23:50:17.991Z</time>
      </trkpt>
      <trkpt lat="47.592059" lon="7.643113">
        <ele>271.046755</ele>
        <time>2021-11-16T23:50:18.830Z</time>
      </trkpt>
      <trkpt lat="47.592040" lon="7.643345">
        <ele>270.808989</ele>
        <time>2021-11-16T23:50:20.729Z</time>
      </trkpt>
      <trkpt lat="47.592040" lon="7.643441">
        <ele>270.761179</ele>
        <time>2021-11-16T23:50:21.481Z</time>
      </trkpt>
      <trkpt lat="47.592051" lon="7.643610">
        <ele>270.676623</ele>
        <time>2021-11-16T23:50:22.755Z</time>
      </trkpt>
      <trkpt lat="47.592160" lon="7.644024">
        <ele>270.455287</ele>
        <time>2021-11-16T23:50:26.315Z</time>
      </trkpt>
      <trkpt lat="47.592590" lon="7.645087">
        <ele>269.837964</ele>
        <time>2021-11-16T23:50:36.891Z</time>
      </trkpt>
      <trkpt lat="47.592604" lon="7.645155">
        <ele>269.802556</ele>
        <time>2021-11-16T23:50:37.904Z</time>
      </trkpt>
      <trkpt lat="47.592612" lon="7.645242">
        <ele>269.758827</ele>
        <time>2021-11-16T23:50:38.738Z</time>
      </trkpt>
      <trkpt lat="47.592615" lon="7.645321">
        <ele>269.719422</ele>
        <time>2021-11-16T23:50:39.460Z</time>
      </trkpt>
      <trkpt lat="47.592608" lon="7.645397">
        <ele>269.681221</ele>
        <time>2021-11-16T23:50:40.088Z</time>
      </trkpt>
      <trkpt lat="47.592592" lon="7.645495">
        <ele>269.631006</ele>
        <time>2021-11-16T23:50:40.946Z</time>
      </trkpt>
      <trkpt lat="47.592575" lon="7.645573">
        <ele>269.590182</ele>
        <time>2021-11-16T23:50:41.708Z</time>
      </trkpt>
      <trkpt lat="47.592558" lon="7.645627">
        <ele>269.560504</ele>
        <time>2021-11-16T23:50:42.417Z</time>
      </trkpt>
      <trkpt lat="47.592527" lon="7.645695">
        <ele>269.519627</ele>
        <time>2021-11-16T23:50:43.414Z</time>
      </trkpt>
      <trkpt lat="47.592507" lon="7.645734">
        <ele>269.530473</ele>
        <time>2021-11-16T23:50:43.876Z</time>
      </trkpt>
      <trkpt lat="47.592240" lon="7.646267">
        <ele>269.685536</ele>
        <time>2021-11-16T23:50:50.931Z</time>
      </trkpt>
      <trkpt lat="47.592219" lon="7.646306">
        <ele>269.697192</ele>
        <time>2021-11-16T23:50:51.437Z</time>
      </trkpt>
      <trkpt lat="47.592128" lon="7.646486">
        <ele>269.749731</ele>
        <time>2021-11-16T23:50:53.890Z</time>
      </trkpt>
      <trkpt lat="47.591559" lon="7.647631">
        <ele>270.081901</ele>
        <time>2021-11-16T23:51:09.659Z</time>
      </trkpt>
      <trkpt lat="47.590981" lon="7.648790">
        <ele>271.516338</ele>
        <time>2021-11-16T23:51:26.655Z</time>
      </trkpt>
      <trkpt lat="47.590260" lon="7.650224">
        <ele>273.880427</ele>
        <time>2021-11-16T23:51:56.670Z</time>
      </trkpt>
      <trkpt lat="47.590219" lon="7.650306">
        <ele>274.095037</ele>
        <time>2021-11-16T23:51:58.331Z</time>
      </trkpt>
      <trkpt lat="47.590134" lon="7.650482">
        <ele>274.550157</ele>
        <time>2021-11-16T23:52:02.582Z</time>
      </trkpt>
      <trkpt lat="47.590037" lon="7.650666">
        <ele>275.041165</ele>
        <time>2021-11-16T23:52:07.057Z</time>
      </trkpt>
      <trkpt lat="47.589829" lon="7.651376">
        <ele>276.668650</ele>
        <time>2021-11-16T23:52:21.306Z</time>
      </trkpt>
      <trkpt lat="47.589821" lon="7.651404">
        <ele>276.732583</ele>
        <time>2021-11-16T23:52:22.782Z</time>
      </trkpt>
      <trkpt lat="47.589758" lon="7.651631">
        <ele>277.248670</ele>
        <time>2021-11-16T23:52:27.448Z</time>
      </trkpt>
      <trkpt lat="47.589721" lon="7.651769">
        <ele>277.560895</ele>
        <time>2021-11-16T23:52:30.096Z</time>
      </trkpt>
      <trkpt lat="47.589678" lon="7.651770">
        <ele>277.694958</ele>
        <time>2021-11-16T23:52:31.013Z</time>
      </trkpt>
      <trkpt lat="47.589561" lon="7.651773">
        <ele>278.059744</ele>
        <time>2021-11-16T23:52:34.900Z</time>
      </trkpt>
      <trkpt lat="47.588931" lon="7.651783">
        <ele>279.439386</ele>
        <time>2021-11-16T23:52:51.636Z</time>
      </trkpt>
      <trkpt lat="47.588813" lon="7.651789">
        <ele>279.624924</ele>
        <time>2021-11-16T23:52:55.206Z</time>
      </trkpt>
      <trkpt lat="47.588740" lon="7.651854">
        <ele>279.758735</ele>
        <time>2021-11-16T23:52:57.015Z</time>
      </trkpt>
      <trkpt lat="47.588728" lon="7.651880">
        <ele>279.792125</ele>
        <time>2021-11-16T23:52:57.659Z</time>
      </trkpt>
      <trkpt lat="47.588620" lon="7.651830">
        <ele>279.969921</ele>
        <time>2021-11-16T23:52:59.709Z</time>
      </trkpt>
      <trkpt lat="47.587404" lon="7.651029">
        <ele>281.741502</ele>
        <time>2021-11-16T23:53:23.866Z</time>
      </trkpt>
      <trkpt lat="47.587343" lon="7.651005">
        <ele>281.759272</ele>
        <time>2021-11-16T23:53:24.672Z</time>
      </trkpt>
      <trkpt lat="47.587101" lon="7.650922">
        <ele>281.829210</ele>
        <time>2021-11-16T23:53:28.469Z</time>
      </trkpt>
      <trkpt lat="47.586735" lon="7.650800">
        <ele>281.934836</ele>
        <time>2021-11-16T23:53:34.153Z</time>
      </trkpt>
      <trkpt lat="47.586652" lon="7.650763">
        <ele>281.959240</ele>
        <time>2021-11-16T23:53:35.356Z</time>
      </trkpt>
      <trkpt lat="47.586623" lon="7.650750">
        <ele>281.967771</ele>
        <time>2021-11-16T23:53:35.791Z</time>
      </trkpt>
      <trkpt lat="47.586547" lon="7.650713">
        <ele>281.990294</ele>
        <time>2021-11-16T23:53:37.074Z</time>
      </trkpt>
      <trkpt lat="47.586436" lon="7.650660">
        <ele>282.023128</ele>
        <time>2021-11-16T23:53:38.992Z</time>
      </trkpt>
      <trkpt lat="47.586250" lon="7.650569">
        <ele>282.078278</ele>
        <time>2021-11-16T23:53:41.939Z</time>
      </trkpt>
      <trkpt lat="47.586217" lon="7.650552">
        <ele>282.088114</ele>
        <time>2021-11-16T23:53:42.511Z</time>
      </trkpt>
      <trkpt lat="47.586181" lon="7.650532">
        <ele>282.098939</ele>
        <time>2021-11-16T23:53:43.164Z</time>
      </trkpt>
      <trkpt lat="47.586132" lon="7.650506">
        <ele>282.113593</ele>
        <time>2021-11-16T23:53:44.038Z</time>
      </trkpt>
      <trkpt lat="47.586092" lon="7.650485">
        <ele>282.125541</ele>
        <time>2021-11-16T23:53:44.746Z</time>
      </trkpt>
      <trkpt lat="47.585745" lon="7.650300">
        <ele>282.203257</ele>
        <time>2021-11-16T23:53:50.637Z</time>
      </trkpt>
      <trkpt lat="47.585547" lon="7.650203">
        <ele>282.231996</ele>
        <time>2021-11-16T23:53:54.089Z</time>
      </trkpt>
      <trkpt lat="47.585344" lon="7.650114">
        <ele>282.261170</ele>
        <time>2021-11-16T23:53:57.779Z</time>
      </trkpt>
      <trkpt lat="47.584923" lon="7.649937">
        <ele>282.321479</ele>
        <time>2021-11-16T23:54:05.014Z</time>
      </trkpt>
      <trkpt lat="47.584850" lon="7.649909">
        <ele>282.331871</ele>
        <time>2021-11-16T23:54:06.244Z</time>
      </trkpt>
      <trkpt lat="47.584759" lon="7.649869">
        <ele>282.344952</ele>
        <time>2021-11-16T23:54:07.809Z</time>
      </trkpt>
      <trkpt lat="47.584719" lon="7.649845">
        <ele>282.350899</ele>
        <time>2021-11-16T23:54:08.479Z</time>
      </trkpt>
      <trkpt lat="47.584681" lon="7.649796">
        <ele>282.357840</ele>
        <time>2021-11-16T23:54:09.274Z</time>
      </trkpt>
      <trkpt lat="47.584591" lon="7.649659">
        <ele>282.375617</ele>
        <time>2021-11-16T23:54:11.055Z</time>
      </trkpt>
      <trkpt lat="47.584575" lon="7.649635">
        <ele>282.378754</ele>
        <time>2021-11-16T23:54:11.392Z</time>
      </trkpt>
      <trkpt lat="47.584536" lon="7.649579">
        <ele>282.386236</ele>
        <time>2021-11-16T23:54:12.217Z</time>
      </trkpt>
      <trkpt lat="47.584318" lon="7.649293">
        <ele>282.425314</ele>
        <time>2021-11-16T23:54:16.116Z</time>
      </trkpt>
      <trkpt lat="47.584165" lon="7.649179">
        <ele>282.349994</ele>
        <time>2021-11-16T23:54:18.393Z</time>
      </trkpt>
      <trkpt lat="47.584142" lon="7.649171">
        <ele>282.339602</ele>
        <time>2021-11-16T23:54:18.747Z</time>
      </trkpt>
      <trkpt lat="47.584128" lon="7.649156">
        <ele>282.332004</ele>
        <time>2021-11-16T23:54:18.970Z</time>
      </trkpt>
      <trkpt lat="47.584071" lon="7.649103">
        <ele>282.302409</ele>
        <time>2021-11-16T23:54:19.755Z</time>
      </trkpt>
      <trkpt lat="47.583797" lon="7.648877">
        <ele>282.164491</ele>
        <time>2021-11-16T23:54:23.905Z</time>
      </trkpt>
      <trkpt lat="47.583592" lon="7.648697">
        <ele>282.059691</ele>
        <time>2021-11-16T23:54:26.342Z</time>
      </trkpt>
      <trkpt lat="47.583441" lon="7.648542">
        <ele>281.978905</ele>
        <time>2021-11-16T23:54:30.056Z</time>
      </trkpt>
      <trkpt lat="47.583007" lon="7.648038">
        <ele>281.736411</ele>
        <time>2021-11-16T23:54:37.227Z</time>
      </trkpt>
      <trkpt lat="47.582824" lon="7.647818">
        <ele>281.643497</ele>
        <time>2021-11-16T23:54:41.353Z</time>
      </trkpt>
      <trkpt lat="47.582724" lon="7.647701">
        <ele>281.863654</ele>
        <time>2021-11-16T23:54:42.756Z</time>
      </trkpt>
      <trkpt lat="47.582705" lon="7.647724">
        <ele>281.906046</ele>
        <time>2021-11-16T23:54:44.166Z</time>
      </trkpt>
      <trkpt lat="47.582664" lon="7.647775">
        <ele>281.998541</ele>
        <time>2021-11-16T23:54:46.350Z</time>
      </trkpt>
      <trkpt lat="47.582615" lon="7.647836">
        <ele>282.109119</ele>
        <time>2021-11-16T23:54:47.707Z</time>
      </trkpt>
      <trkpt lat="47.582607" lon="7.647844">
        <ele>282.125796</ele>
        <time>2021-11-16T23:54:47.783Z</time>
      </trkpt>
      <trkpt lat="47.582443" lon="7.648031">
        <ele>282.483359</ele>
        <time>2021-11-16T23:54:50.133Z</time>
      </trkpt>
      <trkpt lat="47.582390" lon="7.648089">
        <ele>282.597206</ele>
        <time>2021-11-16T23:54:53.761Z</time>
      </trkpt>
      <trkpt lat="47.582257" lon="7.648204">
        <ele>282.863296</ele>
        <time>2021-11-16T23:54:55.515Z</time>
      </trkpt>
      <trkpt lat="47.582173" lon="7.648260">
        <ele>283.022469</ele>
        <time>2021-11-16T23:54:56.676Z</time>
      </trkpt>
      <trkpt lat="47.582006" lon="7.648372">
        <ele>283.339239</ele>
        <time>2021-11-16T23:55:03.014Z</time>
      </trkpt>
      <trkpt lat="47.581866" lon="7.648466">
        <ele>283.604847</ele>
        <time>2021-11-16T23:55:04.730Z</time>
      </trkpt>
      <trkpt lat="47.581653" lon="7.648609">
        <ele>284.008944</ele>
        <time>2021-11-16T23:55:11.413Z</time>
      </trkpt>
      <trkpt lat="47.581434" lon="7.648756">
        <ele>284.424410</ele>
        <time>2021-11-16T23:55:17.977Z</time>
      </trkpt>
      <trkpt lat="47.581368" lon="7.648797">
        <ele>284.548081</ele>
        <time>2021-11-16T23:55:20.557Z</time>
      </trkpt>
      <trkpt lat="47.581359" lon="7.648801">
        <ele>284.564319</ele>
        <time>2021-11-16T23:55:21.302Z</time>
      </trkpt>
      <trkpt lat="47.581132" lon="7.648912">
        <ele>285.392687</ele>
        <time>2021-11-16T23:55:25.475Z</time>
      </trkpt>
      <trkpt lat="47.580953" lon="7.648987">
        <ele>286.284606</ele>
        <time>2021-11-16T23:55:33.311Z</time>
      </trkpt>
      <trkpt lat="47.580773" lon="7.649069">
        <ele>287.187529</ele>
        <time>2021-11-16T23:55:38.648Z</time>
      </trkpt>
      <trkpt lat="47.580709" lon="7.649099">
        <ele>287.509382</ele>
        <time>2021-11-16T23:55:40.607Z</time>
      </trkpt>
      <trkpt lat="47.580600" lon="7.649166">
        <ele>288.075178</ele>
        <time>2021-11-16T23:55:44.612Z</time>
      </trkpt>
      <trkpt lat="47.580496" lon="7.649240">
        <ele>288.628319</ele>
        <time>2021-11-16T23:55:48.182Z</time>
      </trkpt>
      <trkpt lat="47.579533" lon="7.650009">
        <ele>294.117414</ele>
        <time>2021-11-16T23:56:28.291Z</time>
      </trkpt>
      <trkpt lat="47.579204" lon="7.650274">
        <ele>296.780498</ele>
        <time>2021-11-16T23:56:43.757Z</time>
      </trkpt>
      <trkpt lat="47.578629" lon="7.650626">
        <ele>301.205121</ele>
        <time>2021-11-16T23:57:10.193Z</time>
      </trkpt>
      <trkpt lat="47.578569" lon="7.650647">
        <ele>301.643598</ele>
        <time>2021-11-16T23:57:13.749Z</time>
      </trkpt>
      <trkpt lat="47.578503" lon="7.650672">
        <ele>302.128099</ele>
        <time>2021-11-16T23:57:17.272Z</time>
      </trkpt>
      <trkpt lat="47.577785" lon="7.650945">
        <ele>307.306530</ele>
        <time>2021-11-16T23:57:51.917Z</time>
      </trkpt>
      <trkpt lat="47.577628" lon="7.651004">
        <ele>308.371538</ele>
        <time>2021-11-16T23:57:58.399Z</time>
      </trkpt>
      <trkpt lat="47.577442" lon="7.651076">
        <ele>309.635589</ele>
        <time>2021-11-16T23:58:07.150Z</time>
      </trkpt>
      <trkpt lat="47.577432" lon="7.651079">
        <ele>309.702677</ele>
        <time>2021-11-16T23:58:08.236Z</time>
      </trkpt>
      <trkpt lat="47.577362" lon="7.651106">
        <ele>310.178287</ele>
        <time>2021-11-16T23:58:10.893Z</time>
      </trkpt>
      <trkpt lat="47.577194" lon="7.651165">
        <ele>311.313546</ele>
        <time>2021-11-16T23:58:18.030Z</time>
      </trkpt>
      <trkpt lat="47.577153" lon="7.651178">
        <ele>311.589239</ele>
        <time>2021-11-16T23:58:20.385Z</time>
      </trkpt>
      <trkpt lat="47.576880" lon="7.651204">
        <ele>313.388047</ele>
        <time>2021-11-16T23:58:31.789Z</time>
      </trkpt>
      <trkpt lat="47.575917" lon="7.651262">
        <ele>319.299015</ele>
        <time>2021-11-16T23:59:07.492Z</time>
      </trkpt>
      <trkpt lat="47.575312" lon="7.651431">
        <ele>322.353932</ele>
        <time>2021-11-16T23:59:26.986Z</time>
      </trkpt>
      <trkpt lat="47.574376" lon="7.652027">
        <ele>327.732686</ele>
        <time>2021-11-17T00:00:00.909Z</time>
      </trkpt>
      <trkpt lat="47.574341" lon="7.652056">
        <ele>328.061452</ele>
        <time>2021-11-17T00:00:02.344Z</time>
      </trkpt>
      <trkpt lat="47.574258" lon="7.652107">
        <ele>328.798149</ele>
        <time>2021-11-17T00:00:05.589Z</time>
      </trkpt>
      <trkpt lat="47.574036" lon="7.652261">
        <ele>330.807863</ele>
        <time>2021-11-17T00:00:16.268Z</time>
      </trkpt>
      <trkpt lat="47.573906" lon="7.652350">
        <ele>331.981971</ele>
        <time>2021-11-17T00:00:23.464Z</time>
      </trkpt>
      <trkpt lat="47.573842" lon="7.652391">
        <ele>332.553639</ele>
        <time>2021-11-17T00:00:28.460Z</time>
      </trkpt>
      <trkpt lat="47.573586" lon="7.652557">
        <ele>334.844722</ele>
        <time>2021-11-17T00:00:40.610Z</time>
      </trkpt>
      <trkpt lat="47.573546" lon="7.652576">
        <ele>335.189122</ele>
        <time>2021-11-17T00:00:44.249Z</time>
      </trkpt>
      <trkpt lat="47.573245" lon="7.652814">
        <ele>337.986301</ele>
        <time>2021-11-17T00:01:00.867Z</time>
      </trkpt>
      <trkpt lat="47.573095" lon="7.652935">
        <ele>339.386531</ele>
        <time>2021-11-17T00:01:09.291Z</time>
      </trkpt>
      <trkpt lat="47.572797" lon="7.653196">
        <ele>342.237525</ele>
        <time>2021-11-17T00:01:28.291Z</time>
      </trkpt>
      <trkpt lat="47.572736" lon="7.653256">
        <ele>342.851536</ele>
        <time>2021-11-17T00:01:32.023Z</time>
      </trkpt>
      <trkpt lat="47.572674" lon="7.653338">
        <ele>343.548446</ele>
        <time>2021-11-17T00:01:35.814Z</time>
      </trkpt>
      <trkpt lat="47.572629" lon="7.653453">
        <ele>344.300693</ele>
        <time>2021-11-17T00:01:42.743Z</time>
      </trkpt>
      <trkpt lat="47.572586" lon="7.654274">
        <ele>348.960212</ele>
        <time>2021-11-17T00:02:11.837Z</time>
      </trkpt>
      <trkpt lat="47.572727" lon="7.655038">
        <ele>353.442054</ele>
        <time>2021-11-17T00:02:39.962Z</time>
      </trkpt>
      <trkpt lat="47.572768" lon="7.655247">
        <ele>354.673635</ele>
        <time>2021-11-17T00:02:46.664Z</time>
      </trkpt>
      <trkpt lat="47.572805" lon="7.655464">
        <ele>355.940110</ele>
        <time>2021-11-17T00:02:52.126Z</time>
      </trkpt>
      <trkpt lat="47.572828" lon="7.655684">
        <ele>356.915050</ele>
        <time>2021-11-17T00:02:58.450Z</time>
      </trkpt>
      <trkpt lat="47.572825" lon="7.655921">
        <ele>357.415630</ele>
        <time>2021-11-17T00:03:02.045Z</time>
      </trkpt>
      <trkpt lat="47.572723" lon="7.656403">
        <ele>358.482407</ele>
        <time>2021-11-17T00:03:11.222Z</time>
      </trkpt>
      <trkpt lat="47.572651" lon="7.656632">
        <ele>359.015942</ele>
        <time>2021-11-17T00:03:15.571Z</time>
      </trkpt>
      <trkpt lat="47.572386" lon="7.657306">
        <ele>360.663358</ele>
        <time>2021-11-17T00:03:29.050Z</time>
      </trkpt>
      <trkpt lat="47.572328" lon="7.657534">
        <ele>361.177938</ele>
        <time>2021-11-17T00:03:34.120Z</time>
      </trkpt>
      <trkpt lat="47.572279" lon="7.657772">
        <ele>361.703429</ele>
        <time>2021-11-17T00:03:36.456Z</time>
      </trkpt>
      <trkpt lat="47.572105" lon="7.658575">
        <ele>363.404505</ele>
        <time>2021-11-17T00:03:49.936Z</time>
      </trkpt>
      <trkpt lat="47.572100" lon="7.658595">
        <ele>363.446298</ele>
        <time>2021-11-17T00:03:50.057Z</time>
      </trkpt>
      <trkpt lat="47.572041" lon="7.658817">
        <ele>363.913824</ele>
        <time>2021-11-17T00:03:52.928Z</time>
      </trkpt>
      <trkpt lat="47.572041" lon="7.658817">
        <ele>363.913824</ele>
        <time>2021-11-17T00:03:52.943Z</time>
      </trkpt>
      <trkpt lat="47.572013" lon="7.658908">
        <ele>364.109800</ele>
        <time>2021-11-17T00:03:54.230Z</time>
      </trkpt>
      <trkpt lat="47.572007" lon="7.658927">
        <ele>364.150906</ele>
        <time>2021-11-17T00:03:55.776Z</time>
      </trkpt>
      <trkpt lat="47.571713" lon="7.659670">
        <ele>365.838689</ele>
        <time>2021-11-17T00:04:09.033Z</time>
      </trkpt>
      <trkpt lat="47.571120" lon="7.660777">
        <ele>369.798081</ele>
        <time>2021-11-17T00:04:39.583Z</time>
      </trkpt>
      <trkpt lat="47.570760" lon="7.661369">
        <ele>373.201046</ele>
        <time>2021-11-17T00:05:00.550Z</time>
      </trkpt>
      <trkpt lat="47.570650" lon="7.661552">
        <ele>374.247557</ele>
        <time>2021-11-17T00:05:04.539Z</time>
      </trkpt>
      <trkpt lat="47.570618" lon="7.661509">
        <ele>374.520913</ele>
        <time>2021-11-17T00:05:07.523Z</time>
      </trkpt>
      <trkpt lat="47.570603" lon="7.661534">
        <ele>374.663764</ele>
        <time>2021-11-17T00:05:09.071Z</time>
      </trkpt>
      <trkpt lat="47.570511" lon="7.661698">
        <ele>375.574455</ele>
        <time>2021-11-17T00:05:19.146Z</time>
      </trkpt>
      <trkpt lat="47.570511" lon="7.661698">
        <ele>375.574455</ele>
        <time>2021-11-17T00:05:19.154Z</time>
      </trkpt>
      <trkpt lat="47.570511" lon="7.661698">
        <ele>375.574455</ele>
        <time>2021-11-17T00:05:19.163Z</time>
      </trkpt>
      <trkpt lat="47.570603" lon="7.661534">
        <ele>376.485145</ele>
        <time>2021-11-17T00:05:29.196Z</time>
      </trkpt>
      <trkpt lat="47.570618" lon="7.661509">
        <ele>376.627996</ele>
        <time>2021-11-17T00:05:30.743Z</time>
      </trkpt>
      <trkpt lat="47.570650" lon="7.661552">
        <ele>376.901352</ele>
        <time>2021-11-17T00:05:33.732Z</time>
      </trkpt>
      <trkpt lat="47.570555" lon="7.661708">
        <ele>377.798656</ele>
        <time>2021-11-17T00:05:43.496Z</time>
      </trkpt>
      <trkpt lat="47.570414" lon="7.662013">
        <ele>379.416768</ele>
        <time>2021-11-17T00:05:55.248Z</time>
      </trkpt>
      <trkpt lat="47.570317" lon="7.662298">
        <ele>380.915786</ele>
        <time>2021-11-17T00:06:06.302Z</time>
      </trkpt>
      <trkpt lat="47.570293" lon="7.662398">
        <ele>381.414215</ele>
        <time>2021-11-17T00:06:09.316Z</time>
      </trkpt>
      <trkpt lat="47.570256" lon="7.662601">
        <ele>382.401683</ele>
        <time>2021-11-17T00:06:18.650Z</time>
      </trkpt>
      <trkpt lat="47.570226" lon="7.662885">
        <ele>383.751604</ele>
        <time>2021-11-17T00:06:25.618Z</time>
      </trkpt>
      <trkpt lat="47.570217" lon="7.663239">
        <ele>385.415181</ele>
        <time>2021-11-17T00:06:38.150Z</time>
      </trkpt>
      <trkpt lat="47.570215" lon="7.663342">
        <ele>385.899073</ele>
        <time>2021-11-17T00:06:40.121Z</time>
      </trkpt>
      <trkpt lat="47.570206" lon="7.663682">
        <ele>387.496953</ele>
        <time>2021-11-17T00:06:50.514Z</time>
      </trkpt>
      <trkpt lat="47.570211" lon="7.664112">
        <ele>389.516549</ele>
        <time>2021-11-17T00:07:00.441Z</time>
      </trkpt>
      <trkpt lat="47.570283" lon="7.664320">
        <ele>390.614381</ele>
        <time>2021-11-17T00:07:05.287Z</time>
      </trkpt>
      <trkpt lat="47.570363" lon="7.664428">
        <ele>391.367559</ele>
        <time>2021-11-17T00:07:08.520Z</time>
      </trkpt>
      <trkpt lat="47.570744" lon="7.664822">
        <ele>392.874513</ele>
        <time>2021-11-17T00:07:24.685Z</time>
      </trkpt>
      <trkpt lat="47.570866" lon="7.664964">
        <ele>393.352769</ele>
        <time>2021-11-17T00:07:28.799Z</time>
      </trkpt>
      <trkpt lat="47.570894" lon="7.665008">
        <ele>393.478583</ele>
        <time>2021-11-17T00:07:30.158Z</time>
      </trkpt>
      <trkpt lat="47.570977" lon="7.665141">
        <ele>393.855441</ele>
        <time>2021-11-17T00:07:34.344Z</time>
      </trkpt>
      <trkpt lat="47.571053" lon="7.665291">
        <ele>394.245644</ele>
        <time>2021-11-17T00:07:39.044Z</time>
      </trkpt>
      <trkpt lat="47.571164" lon="7.665551">
        <ele>394.885653</ele>
        <time>2021-11-17T00:07:46.050Z</time>
      </trkpt>
      <trkpt lat="47.571284" lon="7.665898">
        <ele>395.696743</ele>
        <time>2021-11-17T00:07:53.829Z</time>
      </trkpt>
      <trkpt lat="47.571322" lon="7.666010">
        <ele>395.957514</ele>
        <time>2021-11-17T00:07:56.271Z</time>
      </trkpt>
      <trkpt lat="47.571425" lon="7.666496">
        <ele>397.017143</ele>
        <time>2021-11-17T00:08:03.698Z</time>
      </trkpt>
      <trkpt lat="47.571449" lon="7.666882">
        <ele>398.610007</ele>
        <time>2021-11-17T00:08:07.279Z</time>
      </trkpt>
      <trkpt lat="47.571431" lon="7.667134">
        <ele>399.671060</ele>
        <time>2021-11-17T00:08:16.540Z</time>
      </trkpt>
      <trkpt lat="47.571400" lon="7.667298">
        <ele>400.384191</ele>
        <time>2021-11-17T00:08:19.317Z</time>
      </trkpt>
      <trkpt lat="47.571338" lon="7.667484">
        <ele>401.252867</ele>
        <time>2021-11-17T00:08:24.848Z</time>
      </trkpt>
      <trkpt lat="47.571323" lon="7.667515">
        <ele>401.412600</ele>
        <time>2021-11-17T00:08:26.755Z</time>
      </trkpt>
      <trkpt lat="47.571197" lon="7.667764">
        <ele>402.715866</ele>
        <time>2021-11-17T00:08:37.406Z</time>
      </trkpt>
      <trkpt lat="47.571089" lon="7.667955">
        <ele>403.759347</ele>
        <time>2021-11-17T00:08:47.164Z</time>
      </trkpt>
      <trkpt lat="47.570794" lon="7.668419">
        <ele>406.428909</ele>
        <time>2021-11-17T00:09:12.894Z</time>
      </trkpt>
      <trkpt lat="47.570756" lon="7.668477">
        <ele>406.767431</ele>
        <time>2021-11-17T00:09:13.744Z</time>
      </trkpt>
      <trkpt lat="47.570618" lon="7.668690">
        <ele>408.003936</ele>
        <time>2021-11-17T00:09:23.757Z</time>
      </trkpt>
      <trkpt lat="47.570501" lon="7.668877">
        <ele>409.325839</ele>
        <time>2021-11-17T00:09:34.910Z</time>
      </trkpt>
      <trkpt lat="47.570299" lon="7.669180">
        <ele>411.635006</ele>
        <time>2021-11-17T00:09:53.771Z</time>
      </trkpt>
      <trkpt lat="47.570132" lon="7.669684">
        <ele>414.678904</ele>
        <time>2021-11-17T00:10:14.105Z</time>
      </trkpt>
      <trkpt lat="47.569903" lon="7.670056">
        <ele>417.408792</ele>
        <time>2021-11-17T00:10:29.046Z</time>
      </trkpt>
      <trkpt lat="47.569693" lon="7.670339">
        <ele>419.689291</ele>
        <time>2021-11-17T00:10:41.035Z</time>
      </trkpt>
      <trkpt lat="47.569622" lon="7.670436">
        <ele>420.465146</ele>
        <time>2021-11-17T00:10:50.052Z</time>
      </trkpt>
      <trkpt lat="47.569398" lon="7.670733">
        <ele>422.836532</ele>
        <time>2021-11-17T00:11:06.679Z</time>
      </trkpt>
      <trkpt lat="47.569054" lon="7.671126">
        <ele>425.631849</ele>
        <time>2021-11-17T00:11:24.338Z</time>
      </trkpt>
      <trkpt lat="47.568992" lon="7.671190">
        <ele>426.118115</ele>
        <time>2021-11-17T00:11:32.616Z</time>
      </trkpt>
      <trkpt lat="47.568936" lon="7.671246">
        <ele>426.552888</ele>
        <time>2021-11-17T00:11:36.117Z</time>
      </trkpt>
      <trkpt lat="47.568912" lon="7.671269">
        <ele>426.736826</ele>
        <time>2021-11-17T00:11:36.463Z</time>
      </trkpt>
      <trkpt lat="47.568835" lon="7.671345">
        <ele>427.332221</ele>
        <time>2021-11-17T00:11:40.998Z</time>
      </trkpt>
      <trkpt lat="47.568786" lon="7.671404">
        <ele>427.738532</ele>
        <time>2021-11-17T00:11:43.286Z</time>
      </trkpt>
      <trkpt lat="47.568707" lon="7.671501">
        <ele>428.398776</ele>
        <time>2021-11-17T00:11:52.203Z</time>
      </trkpt>
      <trkpt lat="47.568604" lon="7.671741">
        <ele>429.633902</ele>
        <time>2021-11-17T00:11:54.696Z</time>
      </trkpt>
      <trkpt lat="47.568572" lon="7.672044">
        <ele>430.965655</ele>
        <time>2021-11-17T00:12:07.730Z</time>
      </trkpt>
      <trkpt lat="47.568675" lon="7.672256">
        <ele>432.100070</ele>
        <time>2021-11-17T00:12:09.821Z</time>
      </trkpt>
      <trkpt lat="47.569590" lon="7.673293">
        <ele>441.352757</ele>
        <time>2021-11-17T00:13:00.784Z</time>
      </trkpt>
      <trkpt lat="47.570526" lon="7.674387">
        <ele>452.474772</ele>
        <time>2021-11-17T00:14:06.038Z</time>
      </trkpt>
      <trkpt lat="47.570749" lon="7.674853">
        <ele>457.223000</ele>
        <time>2021-11-17T00:14:28.056Z</time>
      </trkpt>
      <trkpt lat="47.570807" lon="7.675449">
        <ele>462.227612</ele>
        <time>2021-11-17T00:14:57.242Z</time>
      </trkpt>
      <trkpt lat="47.570599" lon="7.677202">
        <ele>475.785783</ele>
        <time>2021-11-17T00:16:19.495Z</time>
      </trkpt>
      <trkpt lat="47.570459" lon="7.678340">
        <ele>483.032683</ele>
        <time>2021-11-17T00:17:00.344Z</time>
      </trkpt>
      <trkpt lat="47.570431" lon="7.678570">
        <ele>484.496860</ele>
        <time>2021-11-17T00:17:16.322Z</time>
      </trkpt>
      <trkpt lat="47.570409" lon="7.678783">
        <ele>485.846812</ele>
        <time>2021-11-17T00:17:17.532Z</time>
      </trkpt>
      <trkpt lat="47.570397" lon="7.678871">
        <ele>486.409264</ele>
        <time>2021-11-17T00:17:23.936Z</time>
      </trkpt>
      <trkpt lat="47.570350" lon="7.679266">
        <ele>488.692167</ele>
        <time>2021-11-17T00:17:32.666Z</time>
      </trkpt>
      <trkpt lat="47.570362" lon="7.679707">
        <ele>488.497523</ele>
        <time>2021-11-17T00:17:48.513Z</time>
      </trkpt>
      <trkpt lat="47.570477" lon="7.680193">
        <ele>488.270393</ele>
        <time>2021-11-17T00:17:53.658Z</time>
      </trkpt>
      <trkpt lat="47.570689" lon="7.680635">
        <ele>488.031229</ele>
        <time>2021-11-17T00:17:56.892Z</time>
      </trkpt>
      <trkpt lat="47.570874" lon="7.681028">
        <ele>487.819897</ele>
        <time>2021-11-17T00:17:59.804Z</time>
      </trkpt>
      <trkpt lat="47.571207" lon="7.681736">
        <ele>487.680421</ele>
        <time>2021-11-17T00:18:10.903Z</time>
      </trkpt>
      <trkpt lat="47.571238" lon="7.681911">
        <ele>487.809062</ele>
        <time>2021-11-17T00:18:12.303Z</time>
      </trkpt>
      <trkpt lat="47.571252" lon="7.682018">
        <ele>487.886556</ele>
        <time>2021-11-17T00:18:14.337Z</time>
      </trkpt>
      <trkpt lat="47.571376" lon="7.683143">
        <ele>488.697026</ele>
        <time>2021-11-17T00:18:27.168Z</time>
      </trkpt>
      <trkpt lat="47.571394" lon="7.683315">
        <ele>488.820779</ele>
        <time>2021-11-17T00:18:29.926Z</time>
      </trkpt>
      <trkpt lat="47.571394" lon="7.683428">
        <ele>488.901121</ele>
        <time>2021-11-17T00:18:30.670Z</time>
      </trkpt>
      <trkpt lat="47.571388" lon="7.683570">
        <ele>489.002280</ele>
        <time>2021-11-17T00:18:33.584Z</time>
      </trkpt>
      <trkpt lat="47.571368" lon="7.683808">
        <ele>489.172803</ele>
        <time>2021-11-17T00:18:38.232Z</time>
      </trkpt>
      <trkpt lat="47.571344" lon="7.683913">
        <ele>489.251625</ele>
        <time>2021-11-17T00:18:39.142Z</time>
      </trkpt>
      <trkpt lat="47.571340" lon="7.684154">
        <ele>489.423026</ele>
        <time>2021-11-17T00:18:44.262Z</time>
      </trkpt>
      <trkpt lat="47.571353" lon="7.684682">
        <ele>490.665106</ele>
        <time>2021-11-17T00:18:54.067Z</time>
      </trkpt>
      <trkpt lat="47.571387" lon="7.684919">
        <ele>491.239034</ele>
        <time>2021-11-17T00:18:58.921Z</time>
      </trkpt>
      <trkpt lat="47.571417" lon="7.685072">
        <ele>491.616437</ele>
        <time>2021-11-17T00:19:01.053Z</time>
      </trkpt>
      <trkpt lat="47.571450" lon="7.685245">
        <ele>492.042282</ele>
        <time>2021-11-17T00:19:05.445Z</time>
      </trkpt>
      <trkpt lat="47.571563" lon="7.685971">
        <ele>493.807109</ele>
        <time>2021-11-17T00:19:20.467Z</time>
      </trkpt>
      <trkpt lat="47.571544" lon="7.686178">
        <ele>494.301941</ele>
        <time>2021-11-17T00:19:25.622Z</time>
      </trkpt>
      <trkpt lat="47.571496" lon="7.686702">
        <ele>495.554514</ele>
        <time>2021-11-17T00:19:36.554Z</time>
      </trkpt>
      <trkpt lat="47.571524" lon="7.687863">
        <ele>498.336826</ele>
        <time>2021-11-17T00:19:57.874Z</time>
      </trkpt>
      <trkpt lat="47.571512" lon="7.688300">
        <ele>499.385125</ele>
        <time>2021-11-17T00:20:05.925Z</time>
      </trkpt>
      <trkpt lat="47.571516" lon="7.688720">
        <ele>500.391910</ele>
        <time>2021-11-17T00:20:13.808Z</time>
      </trkpt>
      <trkpt lat="47.571507" lon="7.688956">
        <ele>500.958474</ele>
        <time>2021-11-17T00:20:29.396Z</time>
      </trkpt>
      <trkpt lat="47.571364" lon="7.689632">
        <ele>502.646895</ele>
        <time>2021-11-17T00:21:15.081Z</time>
      </trkpt>
      <trkpt lat="47.571352" lon="7.689740">
        <ele>502.904424</ele>
        <time>2021-11-17T00:21:22.121Z</time>
      </trkpt>
      <trkpt lat="47.571341" lon="7.690029">
        <ele>503.585472</ele>
        <time>2021-11-17T00:21:41.032Z</time>
      </trkpt>
      <trkpt lat="47.571344" lon="7.690500">
        <ele>504.693704</ele>
        <time>2021-11-17T00:22:10.469Z</time>
      </trkpt>
      <trkpt lat="47.571340" lon="7.690569">
        <ele>504.856648</ele>
        <time>2021-11-17T00:22:15.388Z</time>
      </trkpt>
      <trkpt lat="47.571327" lon="7.690906">
        <ele>505.650846</ele>
        <time>2021-11-17T00:22:36.272Z</time>
      </trkpt>
      <trkpt lat="47.571318" lon="7.691137">
        <ele>506.195256</ele>
        <time>2021-11-17T00:22:51.869Z</time>
      </trkpt>
      <trkpt lat="47.571264" lon="7.691945">
        <ele>508.105648</ele>
        <time>2021-11-17T00:23:43.558Z</time>
      </trkpt>
      <trkpt lat="47.570999" lon="7.693913">
        <ele>509.430938</ele>
        <time>2021-11-17T00:25:38.751Z</time>
      </trkpt>
      <trkpt lat="47.570964" lon="7.695239">
        <ele>509.092170</ele>
        <time>2021-11-17T00:26:45.815Z</time>
      </trkpt>
      <trkpt lat="47.570940" lon="7.695816">
        <ele>508.271357</ele>
        <time>2021-11-17T00:27:14.735Z</time>
      </trkpt>
      <trkpt lat="47.570834" lon="7.698138">
        <ele>504.125068</ele>
        <time>2021-11-17T00:29:06.237Z</time>
      </trkpt>
      <trkpt lat="47.570744" lon="7.698880">
        <ele>502.241396</ele>
        <time>2021-11-17T00:29:41.234Z</time>
      </trkpt>
      <trkpt lat="47.570278" lon="7.699755">
        <ele>499.456065</ele>
        <time>2021-11-17T00:30:31.901Z</time>
      </trkpt>
      <trkpt lat="47.569386" lon="7.699378">
        <ele>494.955251</ele>
        <time>2021-11-17T00:30:40.651Z</time>
      </trkpt>
      <trkpt lat="47.569093" lon="7.699112">
        <ele>493.283106</ele>
        <time>2021-11-17T00:30:43.889Z</time>
      </trkpt>
      <trkpt lat="47.568602" lon="7.698487">
        <ele>489.998016</ele>
        <time>2021-11-17T00:30:50.056Z</time>
      </trkpt>
      <trkpt lat="47.567964" lon="7.697996">
        <ele>485.601940</ele>
        <time>2021-11-17T00:30:56.804Z</time>
      </trkpt>
      <trkpt lat="47.567166" lon="7.697504">
        <ele>480.316657</ele>
        <time>2021-11-17T00:31:04.654Z</time>
      </trkpt>
      <trkpt lat="47.566435" lon="7.697358">
        <ele>473.374875</ele>
        <time>2021-11-17T00:31:11.132Z</time>
      </trkpt>
      <trkpt lat="47.565744" lon="7.697318">
        <ele>466.479575</ele>
        <time>2021-11-17T00:31:17.075Z</time>
      </trkpt>
      <trkpt lat="47.565173" lon="7.697132">
        <ele>460.291395</ele>
        <time>2021-11-17T00:31:22.035Z</time>
      </trkpt>
      <trkpt lat="47.563259" lon="7.696241">
        <ele>433.803707</ele>
        <time>2021-11-17T00:31:38.816Z</time>
      </trkpt>
      <trkpt lat="47.562620" lon="7.695953">
        <ele>425.306287</ele>
        <time>2021-11-17T00:31:44.428Z</time>
      </trkpt>
      <trkpt lat="47.562128" lon="7.695702">
        <ele>418.686229</ele>
        <time>2021-11-17T00:31:48.820Z</time>
      </trkpt>
      <trkpt lat="47.561669" lon="7.695498">
        <ele>412.921437</ele>
        <time>2021-11-17T00:31:52.870Z</time>
      </trkpt>
      <trkpt lat="47.561348" lon="7.695414">
        <ele>409.361043</ele>
        <time>2021-11-17T00:31:55.638Z</time>
      </trkpt>
      <trkpt lat="47.561053" lon="7.695338">
        <ele>406.090551</ele>
        <time>2021-11-17T00:31:58.193Z</time>
      </trkpt>
      <trkpt lat="47.560012" lon="7.695119">
        <ele>394.695527</ele>
        <time>2021-11-17T00:32:07.202Z</time>
      </trkpt>
      <trkpt lat="47.559078" lon="7.694904">
        <ele>385.722301</ele>
        <time>2021-11-17T00:32:15.338Z</time>
      </trkpt>
      <trkpt lat="47.558618" lon="7.694872">
        <ele>381.350504</ele>
        <time>2021-11-17T00:32:19.338Z</time>
      </trkpt>
      <trkpt lat="47.556836" lon="7.695079">
        <ele>366.612980</ele>
        <time>2021-11-17T00:32:35.095Z</time>
      </trkpt>
      <trkpt lat="47.555130" lon="7.694964">
        <ele>352.565951</ele>
        <time>2021-11-17T00:32:50.369Z</time>
      </trkpt>
      <trkpt lat="47.554864" lon="7.694875">
        <ele>350.304941</ele>
        <time>2021-11-17T00:32:52.732Z</time>
      </trkpt>
      <trkpt lat="47.554572" lon="7.694665">
        <ele>346.558477</ele>
        <time>2021-11-17T00:32:55.496Z</time>
      </trkpt>
      <trkpt lat="47.554384" lon="7.694448">
        <ele>343.056875</ele>
        <time>2021-11-17T00:32:57.527Z</time>
      </trkpt>
      <trkpt lat="47.554245" lon="7.694182">
        <ele>339.720822</ele>
        <time>2021-11-17T00:32:59.436Z</time>
      </trkpt>
      <trkpt lat="47.554028" lon="7.693827">
        <ele>334.971155</ele>
        <time>2021-11-17T00:33:02.110Z</time>
      </trkpt>
      <trkpt lat="47.553606" lon="7.693126">
        <ele>325.656035</ele>
        <time>2021-11-17T00:33:07.335Z</time>
      </trkpt>
      <trkpt lat="47.553281" lon="7.692750">
        <ele>319.330602</ele>
        <time>2021-11-17T00:33:10.743Z</time>
      </trkpt>
      <trkpt lat="47.553101" lon="7.692582">
        <ele>315.922559</ele>
        <time>2021-11-17T00:33:12.497Z</time>
      </trkpt>
      <trkpt lat="47.553059" lon="7.692566">
        <ele>315.227829</ele>
        <time>2021-11-17T00:33:12.852Z</time>
      </trkpt>
      <trkpt lat="47.552195" lon="7.692398">
        <ele>301.267722</ele>
        <time>2021-11-17T00:33:20.039Z</time>
      </trkpt>
      <trkpt lat="47.551995" lon="7.692291">
        <ele>297.861214</ele>
        <time>2021-11-17T00:33:21.793Z</time>
      </trkpt>
      <trkpt lat="47.551619" lon="7.692088">
        <ele>292.590834</ele>
        <time>2021-11-17T00:33:25.142Z</time>
      </trkpt>
      <trkpt lat="47.551568" lon="7.692024">
        <ele>292.054043</ele>
        <time>2021-11-17T00:33:25.727Z</time>
      </trkpt>
      <trkpt lat="47.551434" lon="7.691862">
        <ele>290.664988</ele>
        <time>2021-11-17T00:33:27.228Z</time>
      </trkpt>
      <trkpt lat="47.551182" lon="7.691473">
        <ele>287.742134</ele>
        <time>2021-11-17T00:33:30.441Z</time>
      </trkpt>
      <trkpt lat="47.551000" lon="7.691170">
        <ele>285.543365</ele>
        <time>2021-11-17T00:33:32.874Z</time>
      </trkpt>
      <trkpt lat="47.550764" lon="7.690746">
        <ele>282.564164</ele>
        <time>2021-11-17T00:33:36.208Z</time>
      </trkpt>
      <trkpt lat="47.550476" lon="7.690324">
        <ele>279.310909</ele>
        <time>2021-11-17T00:33:40.007Z</time>
      </trkpt>
      <trkpt lat="47.550112" lon="7.690714">
        <ele>278.052549</ele>
        <time>2021-11-17T00:33:44.574Z</time>
      </trkpt>
      <trkpt lat="47.549742" lon="7.690347">
        <ele>276.817797</ele>
        <time>2021-11-17T00:33:51.124Z</time>
      </trkpt>
      <trkpt lat="47.549136" lon="7.690015">
        <ele>275.026092</ele>
        <time>2021-11-17T00:34:01.342Z</time>
      </trkpt>
      <trkpt lat="47.548667" lon="7.689518">
        <ele>273.801191</ele>
        <time>2021-11-17T00:34:10.648Z</time>
      </trkpt>
      <trkpt lat="47.548501" lon="7.689334">
        <ele>273.471624</ele>
        <time>2021-11-17T00:34:14.025Z</time>
      </trkpt>
      <trkpt lat="47.547867" lon="7.688647">
        <ele>272.222962</ele>
        <time>2021-11-17T00:34:26.945Z</time>
      </trkpt>
      <trkpt lat="47.547509" lon="7.688248">
        <ele>271.510800</ele>
        <time>2021-11-17T00:34:34.221Z</time>
      </trkpt>
      <trkpt lat="47.547023" lon="7.687611">
        <ele>270.521202</ele>
        <time>2021-11-17T00:34:44.997Z</time>
      </trkpt>
      <trkpt lat="47.546968" lon="7.687539">
        <ele>270.409597</ele>
        <time>2021-11-17T00:34:46.224Z</time>
      </trkpt>
      <trkpt lat="47.546902" lon="7.687447">
        <ele>270.271797</ele>
        <time>2021-11-17T00:34:47.710Z</time>
      </trkpt>
      <trkpt lat="47.546848" lon="7.687376">
        <ele>270.162010</ele>
        <time>2021-11-17T00:34:48.524Z</time>
      </trkpt>
      <trkpt lat="47.546768" lon="7.687264">
        <ele>269.994638</ele>
        <time>2021-11-17T00:34:49.799Z</time>
      </trkpt>
      <trkpt lat="47.546697" lon="7.687151">
        <ele>269.836183</ele>
        <time>2021-11-17T00:34:50.998Z</time>
      </trkpt>
      <trkpt lat="47.546450" lon="7.686762">
        <ele>269.288018</ele>
        <time>2021-11-17T00:34:55.141Z</time>
      </trkpt>
      <trkpt lat="47.546327" lon="7.686568">
        <ele>269.014830</ele>
        <time>2021-11-17T00:34:57.166Z</time>
      </trkpt>
      <trkpt lat="47.546115" lon="7.686339">
        <ele>268.656360</ele>
        <time>2021-11-17T00:35:00.184Z</time>
      </trkpt>
      <trkpt lat="47.545964" lon="7.686248">
        <ele>268.515739</ele>
        <time>2021-11-17T00:35:02.033Z</time>
      </trkpt>
      <trkpt lat="47.545866" lon="7.686192">
        <ele>268.425132</ele>
        <time>2021-11-17T00:35:03.242Z</time>
      </trkpt>
      <trkpt lat="47.545764" lon="7.686131">
        <ele>268.330246</ele>
        <time>2021-11-17T00:35:04.473Z</time>
      </trkpt>
      <trkpt lat="47.545630" lon="7.686051">
        <ele>268.205621</ele>
        <time>2021-11-17T00:35:06.093Z</time>
      </trkpt>
      <trkpt lat="47.545503" lon="7.685946">
        <ele>268.080163</ele>
        <time>2021-11-17T00:35:07.859Z</time>
      </trkpt>
      <trkpt lat="47.545434" lon="7.685860">
        <ele>268.002379</ele>
        <time>2021-11-17T00:35:08.922Z</time>
      </trkpt>
      <trkpt lat="47.545233" lon="7.685607">
        <ele>267.774860</ele>
        <time>2021-11-17T00:35:12.217Z</time>
      </trkpt>
      <trkpt lat="47.544872" lon="7.685095">
        <ele>267.343752</ele>
        <time>2021-11-17T00:35:18.845Z</time>
      </trkpt>
      <trkpt lat="47.544743" lon="7.684948">
        <ele>267.203362</ele>
        <time>2021-11-17T00:35:21.179Z</time>
      </trkpt>
      <trkpt lat="47.544438" lon="7.684734">
        <ele>267.179304</ele>
        <time>2021-11-17T00:35:26.577Z</time>
      </trkpt>
      <trkpt lat="47.544434" lon="7.684888">
        <ele>267.187126</ele>
        <time>2021-11-17T00:35:28.482Z</time>
      </trkpt>
      <trkpt lat="47.544392" lon="7.685262">
        <ele>267.206369</ele>
        <time>2021-11-17T00:35:32.500Z</time>
      </trkpt>
      <trkpt lat="47.544310" lon="7.686004">
        <ele>267.244532</ele>
        <time>2021-11-17T00:35:40.306Z</time>
      </trkpt>
      <trkpt lat="47.544128" lon="7.687068">
        <ele>267.280364</ele>
        <time>2021-11-17T00:35:51.346Z</time>
      </trkpt>
      <trkpt lat="47.544057" lon="7.687517">
        <ele>267.238316</ele>
        <time>2021-11-17T00:35:55.976Z</time>
      </trkpt>
      <trkpt lat="47.543979" lon="7.687928">
        <ele>267.199387</ele>
        <time>2021-11-17T00:36:00.132Z</time>
      </trkpt>
      <trkpt lat="47.543887" lon="7.688428">
        <ele>267.152133</ele>
        <time>2021-11-17T00:36:05.147Z</time>
      </trkpt>
      <trkpt lat="47.543849" lon="7.688664">
        <ele>267.130011</ele>
        <time>2021-11-17T00:36:07.583Z</time>
      </trkpt>
      <trkpt lat="47.543756" lon="7.689554">
        <ele>267.055178</ele>
        <time>2021-11-17T00:36:15.543Z</time>
      </trkpt>
      <trkpt lat="47.543747" lon="7.689674">
        <ele>267.079298</ele>
        <time>2021-11-17T00:36:16.858Z</time>
      </trkpt>
      <trkpt lat="47.543719" lon="7.690293">
        <ele>267.203232</ele>
        <time>2021-11-17T00:36:23.234Z</time>
      </trkpt>
      <trkpt lat="47.543718" lon="7.690373">
        <ele>267.219216</ele>
        <time>2021-11-17T00:36:24.080Z</time>
      </trkpt>
      <trkpt lat="47.543695" lon="7.691028">
        <ele>267.350241</ele>
        <time>2021-11-17T00:36:31.594Z</time>
      </trkpt>
      <trkpt lat="47.543669" lon="7.691801">
        <ele>267.504853</ele>
        <time>2021-11-17T00:36:40.796Z</time>
      </trkpt>
      <trkpt lat="47.543652" lon="7.692147">
        <ele>267.574156</ele>
        <time>2021-11-17T00:36:44.372Z</time>
      </trkpt>
      <trkpt lat="47.543627" lon="7.692460">
        <ele>267.578996</ele>
        <time>2021-11-17T00:36:47.961Z</time>
      </trkpt>
      <trkpt lat="47.543515" lon="7.693372">
        <ele>267.567233</ele>
        <time>2021-11-17T00:36:57.618Z</time>
      </trkpt>
      <trkpt lat="47.543315" lon="7.694525">
        <ele>267.552128</ele>
        <time>2021-11-17T00:37:09.190Z</time>
      </trkpt>
      <trkpt lat="47.543147" lon="7.695557">
        <ele>267.477716</ele>
        <time>2021-11-17T00:37:18.469Z</time>
      </trkpt>
      <trkpt lat="47.542960" lon="7.696989">
        <ele>267.346417</ele>
        <time>2021-11-17T00:37:32.607Z</time>
      </trkpt>
      <trkpt lat="47.542902" lon="7.697537">
        <ele>267.344982</ele>
        <time>2021-11-17T00:37:38.603Z</time>
      </trkpt>
      <trkpt lat="47.542740" lon="7.698914">
        <ele>267.714747</ele>
        <time>2021-11-17T00:37:54.352Z</time>
      </trkpt>
      <trkpt lat="47.542682" lon="7.699476">
        <ele>267.865147</ele>
        <time>2021-11-17T00:38:00.840Z</time>
      </trkpt>
      <trkpt lat="47.542651" lon="7.699916">
        <ele>267.982178</ele>
        <time>2021-11-17T00:38:05.841Z</time>
      </trkpt>
      <trkpt lat="47.542660" lon="7.700609">
        <ele>268.080915</ele>
        <time>2021-11-17T00:38:13.564Z</time>
      </trkpt>
      <trkpt lat="47.542766" lon="7.702209">
        <ele>268.269231</ele>
        <time>2021-11-17T00:38:29.963Z</time>
      </trkpt>
      <trkpt lat="47.542785" lon="7.702499">
        <ele>268.303360</ele>
        <time>2021-11-17T00:38:32.858Z</time>
      </trkpt>
      <trkpt lat="47.542833" lon="7.702609">
        <ele>268.318702</ele>
        <time>2021-11-17T00:38:34.101Z</time>
      </trkpt>
      <trkpt lat="47.542922" lon="7.702619">
        <ele>268.320136</ele>
        <time>2021-11-17T00:38:35.515Z</time>
      </trkpt>
      <trkpt lat="47.542979" lon="7.703226">
        <ele>268.272043</ele>
        <time>2021-11-17T00:38:41.875Z</time>
      </trkpt>
      <trkpt lat="47.543016" lon="7.703554">
        <ele>268.245947</ele>
        <time>2021-11-17T00:38:45.180Z</time>
      </trkpt>
      <trkpt lat="47.543146" lon="7.704707">
        <ele>268.154212</ele>
        <time>2021-11-17T00:38:56.525Z</time>
      </trkpt>
      <trkpt lat="47.543153" lon="7.704762">
        <ele>268.149820</ele>
        <time>2021-11-17T00:38:57.054Z</time>
      </trkpt>
      <trkpt lat="47.543166" lon="7.704863">
        <ele>268.141751</ele>
        <time>2021-11-17T00:38:57.984Z</time>
      </trkpt>
      <trkpt lat="47.543179" lon="7.704985">
        <ele>268.132059</ele>
        <time>2021-11-17T00:38:59.595Z</time>
      </trkpt>
      <trkpt lat="47.543192" lon="7.705107">
        <ele>268.122366</ele>
        <time>2021-11-17T00:39:01.192Z</time>
      </trkpt>
      <trkpt lat="47.543280" lon="7.705893">
        <ele>267.809830</ele>
        <time>2021-11-17T00:39:08.375Z</time>
      </trkpt>
      <trkpt lat="47.543360" lon="7.706664">
        <ele>267.479338</ele>
        <time>2021-11-17T00:39:15.435Z</time>
      </trkpt>
      <trkpt lat="47.543343" lon="7.707367">
        <ele>267.181302</ele>
        <time>2021-11-17T00:39:21.653Z</time>
      </trkpt>
      <trkpt lat="47.543080" lon="7.709103">
        <ele>265.711049</ele>
        <time>2021-11-17T00:39:36.021Z</time>
      </trkpt>
      <trkpt lat="47.542885" lon="7.709631">
        <ele>265.129981</ele>
        <time>2021-11-17T00:39:40.625Z</time>
      </trkpt>
      <trkpt lat="47.542797" lon="7.709757">
        <ele>264.954941</ele>
        <time>2021-11-17T00:39:41.949Z</time>
      </trkpt>
      <trkpt lat="47.542709" lon="7.709872">
        <ele>264.787107</ele>
        <time>2021-11-17T00:39:43.288Z</time>
      </trkpt>
      <trkpt lat="47.542638" lon="7.709956">
        <ele>264.657150</ele>
        <time>2021-11-17T00:39:44.376Z</time>
      </trkpt>
      <trkpt lat="47.542559" lon="7.710042">
        <ele>264.516935</ele>
        <time>2021-11-17T00:39:45.432Z</time>
      </trkpt>
      <trkpt lat="47.542559" lon="7.710042">
        <ele>264.516935</ele>
        <time>2021-11-17T00:39:45.435Z</time>
      </trkpt>
      <trkpt lat="47.542559" lon="7.710042">
        <ele>264.516935</ele>
        <time>2021-11-17T00:39:45.473Z</time>
      </trkpt>
      <trkpt lat="47.542526" lon="7.710079">
        <ele>264.457743</ele>
        <time>2021-11-17T00:39:45.900Z</time>
      </trkpt>
      <trkpt lat="47.542440" lon="7.710127">
        <ele>264.303476</ele>
        <time>2021-11-17T00:39:46.971Z</time>
      </trkpt>
      <trkpt lat="47.542315" lon="7.710174">
        <ele>264.071721</ele>
        <time>2021-11-17T00:39:48.451Z</time>
      </trkpt>
      <trkpt lat="47.542178" lon="7.710226">
        <ele>263.817571</ele>
        <time>2021-11-17T00:39:49.960Z</time>
      </trkpt>
      <trkpt lat="47.541354" lon="7.710467">
        <ele>262.308209</ele>
        <time>2021-11-17T00:39:59.131Z</time>
      </trkpt>
      <trkpt lat="47.540817" lon="7.710444">
        <ele>261.342785</ele>
        <time>2021-11-17T00:40:05.122Z</time>
      </trkpt>
      <trkpt lat="47.540498" lon="7.710323">
        <ele>261.005507</ele>
        <time>2021-11-17T00:40:09.148Z</time>
      </trkpt>
      <trkpt lat="47.540428" lon="7.710280">
        <ele>260.949546</ele>
        <time>2021-11-17T00:40:10.006Z</time>
      </trkpt>
      <trkpt lat="47.540229" lon="7.710170">
        <ele>260.792693</ele>
        <time>2021-11-17T00:40:12.760Z</time>
      </trkpt>
      <trkpt lat="47.539646" lon="7.709593">
        <ele>260.274916</ele>
        <time>2021-11-17T00:40:21.761Z</time>
      </trkpt>
      <trkpt lat="47.539021" lon="7.708561">
        <ele>259.779272</ele>
        <time>2021-11-17T00:40:34.585Z</time>
      </trkpt>
      <trkpt lat="47.538687" lon="7.707698">
        <ele>259.641094</ele>
        <time>2021-11-17T00:40:44.262Z</time>
      </trkpt>
      <trkpt lat="47.538663" lon="7.707476">
        <ele>259.609864</ele>
        <time>2021-11-17T00:40:46.441Z</time>
      </trkpt>
      <trkpt lat="47.538403" lon="7.706790">
        <ele>259.500583</ele>
        <time>2021-11-17T00:40:53.711Z</time>
      </trkpt>
      <trkpt lat="47.538239" lon="7.706913">
        <ele>259.483679</ele>
        <time>2021-11-17T00:40:56.227Z</time>
      </trkpt>
      <trkpt lat="47.536551" lon="7.708325">
        <ele>259.919299</ele>
        <time>2021-11-17T00:41:35.046Z</time>
      </trkpt>
      <trkpt lat="47.536506" lon="7.708376">
        <ele>260.023139</ele>
        <time>2021-11-17T00:41:36.604Z</time>
      </trkpt>
      <trkpt lat="47.536244" lon="7.708596">
        <ele>260.575081</ele>
        <time>2021-11-17T00:41:43.674Z</time>
      </trkpt>
      <trkpt lat="47.536866" lon="7.710249">
        <ele>262.920040</ele>
        <time>2021-11-17T00:42:22.937Z</time>
      </trkpt>
      <trkpt lat="47.536654" lon="7.710426">
        <ele>263.376408</ele>
        <time>2021-11-17T00:42:30.526Z</time>
      </trkpt>
      <trkpt lat="47.536503" lon="7.710555">
        <ele>263.703300</ele>
        <time>2021-11-17T00:42:51.506Z</time>
      </trkpt>
      <trkpt lat="47.536434" lon="7.710627">
        <ele>263.861579</ele>
        <time>2021-11-17T00:42:54.065Z</time>
      </trkpt>
      <trkpt lat="47.536351" lon="7.710783">
        <ele>264.113044</ele>
        <time>2021-11-17T00:42:58.068Z</time>
      </trkpt>
      <trkpt lat="47.536587" lon="7.711300">
        <ele>264.903170</ele>
        <time>2021-11-17T00:43:10.154Z</time>
      </trkpt>
      <trkpt lat="47.536914" lon="7.712167">
        <ele>266.130825</ele>
        <time>2021-11-17T00:43:28.229Z</time>
      </trkpt>
      <trkpt lat="47.536944" lon="7.712258">
        <ele>266.099354</ele>
        <time>2021-11-17T00:43:29.794Z</time>
      </trkpt>
      <trkpt lat="47.537049" lon="7.712536">
        <ele>266.000363</ele>
        <time>2021-11-17T00:43:34.225Z</time>
      </trkpt>
      <trkpt lat="47.537078" lon="7.712647">
        <ele>265.963376</ele>
        <time>2021-11-17T00:43:35.667Z</time>
      </trkpt>
      <trkpt lat="47.537200" lon="7.713102">
        <ele>265.811237</ele>
        <time>2021-11-17T00:43:41.201Z</time>
      </trkpt>
      <trkpt lat="47.537252" lon="7.713332">
        <ele>265.735862</ele>
        <time>2021-11-17T00:43:43.974Z</time>
      </trkpt>
      <trkpt lat="47.537287" lon="7.713488">
        <ele>265.684777</ele>
        <time>2021-11-17T00:43:45.828Z</time>
      </trkpt>
      <trkpt lat="47.537373" lon="7.713866">
        <ele>265.560820</ele>
        <time>2021-11-17T00:43:50.353Z</time>
      </trkpt>
      <trkpt lat="47.537410" lon="7.714028">
        <ele>265.507674</ele>
        <time>2021-11-17T00:43:52.315Z</time>
      </trkpt>
      <trkpt lat="47.537437" lon="7.714141">
        <ele>265.470425</ele>
        <time>2021-11-17T00:43:53.673Z</time>
      </trkpt>
      <trkpt lat="47.537445" lon="7.714177">
        <ele>265.458647</ele>
        <time>2021-11-17T00:43:54.129Z</time>
      </trkpt>
      <trkpt lat="47.537574" lon="7.714861">
        <ele>265.419745</ele>
        <time>2021-11-17T00:44:03.282Z</time>
      </trkpt>
      <trkpt lat="47.537628" lon="7.715098">
        <ele>265.541607</ele>
        <time>2021-11-17T00:44:06.600Z</time>
      </trkpt>
      <trkpt lat="47.537691" lon="7.715385">
        <ele>265.688636</ele>
        <time>2021-11-17T00:44:11.182Z</time>
      </trkpt>
      <trkpt lat="47.537682" lon="7.715689">
        <ele>265.836884</ele>
        <time>2021-11-17T00:44:15.190Z</time>
      </trkpt>
      <trkpt lat="47.537665" lon="7.715878">
        <ele>265.929777</ele>
        <time>2021-11-17T00:44:18.140Z</time>
      </trkpt>
      <trkpt lat="47.537708" lon="7.716118">
        <ele>266.050750</ele>
        <time>2021-11-17T00:44:21.770Z</time>
      </trkpt>
      <trkpt lat="47.537786" lon="7.716325">
        <ele>266.166243</ele>
        <time>2021-11-17T00:44:25.340Z</time>
      </trkpt>
      <trkpt lat="47.537834" lon="7.716383">
        <ele>266.210946</ele>
        <time>2021-11-17T00:44:27.280Z</time>
      </trkpt>
      <trkpt lat="47.537984" lon="7.716489">
        <ele>266.330881</ele>
        <time>2021-11-17T00:44:31.401Z</time>
      </trkpt>
      <trkpt lat="47.538102" lon="7.716534">
        <ele>266.418812</ele>
        <time>2021-11-17T00:44:34.486Z</time>
      </trkpt>
      <trkpt lat="47.538239" lon="7.716580">
        <ele>266.520186</ele>
        <time>2021-11-17T00:44:38.920Z</time>
      </trkpt>
      <trkpt lat="47.538459" lon="7.717007">
        <ele>266.993876</ele>
        <time>2021-11-17T00:44:49.384Z</time>
      </trkpt>
      <trkpt lat="47.538708" lon="7.717692">
        <ele>267.831703</ele>
        <time>2021-11-17T00:45:04.134Z</time>
      </trkpt>
      <trkpt lat="47.538787" lon="7.718061">
        <ele>268.248588</ele>
        <time>2021-11-17T00:45:11.806Z</time>
      </trkpt>
      <trkpt lat="47.538796" lon="7.718297">
        <ele>268.503144</ele>
        <time>2021-11-17T00:45:15.876Z</time>
      </trkpt>
      <trkpt lat="47.538843" lon="7.718730">
        <ele>268.975434</ele>
        <time>2021-11-17T00:45:23.608Z</time>
      </trkpt>
      <trkpt lat="47.538928" lon="7.719478">
        <ele>269.473001</ele>
        <time>2021-11-17T00:45:35.574Z</time>
      </trkpt>
      <trkpt lat="47.538952" lon="7.719661">
        <ele>269.471130</ele>
        <time>2021-11-17T00:45:38.431Z</time>
      </trkpt>
      <trkpt lat="47.538974" lon="7.719868">
        <ele>269.469027</ele>
        <time>2021-11-17T00:45:41.298Z</time>
      </trkpt>
      <trkpt lat="47.539011" lon="7.720060">
        <ele>269.467023</ele>
        <time>2021-11-17T00:45:44.286Z</time>
      </trkpt>
      <trkpt lat="47.539020" lon="7.720107">
        <ele>269.466533</ele>
        <time>2021-11-17T00:45:45.023Z</time>
      </trkpt>
      <trkpt lat="47.539077" lon="7.720239">
        <ele>269.464960</ele>
        <time>2021-11-17T00:45:47.156Z</time>
      </trkpt>
      <trkpt lat="47.539274" lon="7.720867">
        <ele>269.458011</ele>
        <time>2021-11-17T00:45:56.042Z</time>
      </trkpt>
      <trkpt lat="47.539484" lon="7.721575">
        <ele>269.450250</ele>
        <time>2021-11-17T00:46:05.710Z</time>
      </trkpt>
      <trkpt lat="47.539552" lon="7.721771">
        <ele>269.408511</ele>
        <time>2021-11-17T00:46:08.409Z</time>
      </trkpt>
      <trkpt lat="47.539586" lon="7.721775">
        <ele>269.390907</ele>
        <time>2021-11-17T00:46:08.841Z</time>
      </trkpt>
      <trkpt lat="47.539943" lon="7.721855">
        <ele>269.204549</ele>
        <time>2021-11-17T00:46:13.539Z</time>
      </trkpt>
      <trkpt lat="47.540099" lon="7.721898">
        <ele>269.122649</ele>
        <time>2021-11-17T00:46:15.624Z</time>
      </trkpt>
      <trkpt lat="47.540166" lon="7.721954">
        <ele>269.082942</ele>
        <time>2021-11-17T00:46:16.614Z</time>
      </trkpt>
      <trkpt lat="47.540209" lon="7.722019">
        <ele>269.051233</ele>
        <time>2021-11-17T00:46:17.450Z</time>
      </trkpt>
      <trkpt lat="47.540254" lon="7.722083">
        <ele>269.019034</ele>
        <time>2021-11-17T00:46:18.318Z</time>
      </trkpt>
      <trkpt lat="47.540289" lon="7.722145">
        <ele>268.990874</ele>
        <time>2021-11-17T00:46:18.970Z</time>
      </trkpt>
      <trkpt lat="47.540452" lon="7.722866">
        <ele>268.725942</ele>
        <time>2021-11-17T00:46:25.948Z</time>
      </trkpt>
      <trkpt lat="47.540462" lon="7.722923">
        <ele>268.705422</ele>
        <time>2021-11-17T00:46:26.397Z</time>
      </trkpt>
      <trkpt lat="47.540546" lon="7.723408">
        <ele>268.530960</ele>
        <time>2021-11-17T00:46:30.897Z</time>
      </trkpt>
      <trkpt lat="47.540619" lon="7.723802">
        <ele>268.619631</ele>
        <time>2021-11-17T00:46:34.578Z</time>
      </trkpt>
      <trkpt lat="47.540655" lon="7.724136">
        <ele>268.707644</ele>
        <time>2021-11-17T00:46:37.741Z</time>
      </trkpt>
      <trkpt lat="47.540672" lon="7.724678">
        <ele>268.848833</ele>
        <time>2021-11-17T00:46:42.953Z</time>
      </trkpt>
      <trkpt lat="47.540740" lon="7.725051">
        <ele>268.949370</ele>
        <time>2021-11-17T00:46:47.030Z</time>
      </trkpt>
      <trkpt lat="47.540851" lon="7.725483">
        <ele>269.069650</ele>
        <time>2021-11-17T00:46:52.826Z</time>
      </trkpt>
      <trkpt lat="47.540865" lon="7.725548">
        <ele>269.087404</ele>
        <time>2021-11-17T00:46:53.712Z</time>
      </trkpt>
      <trkpt lat="47.540914" lon="7.725855">
        <ele>269.169492</ele>
        <time>2021-11-17T00:46:57.962Z</time>
      </trkpt>
      <trkpt lat="47.540804" lon="7.725945">
        <ele>269.245812</ele>
        <time>2021-11-17T00:47:00.588Z</time>
      </trkpt>
      <trkpt lat="47.540715" lon="7.726064">
        <ele>269.634993</ele>
        <time>2021-11-17T00:47:03.253Z</time>
      </trkpt>
      <trkpt lat="47.540621" lon="7.726187">
        <ele>270.042119</ele>
        <time>2021-11-17T00:47:05.965Z</time>
      </trkpt>
      <trkpt lat="47.540514" lon="7.726266">
        <ele>270.430198</ele>
        <time>2021-11-17T00:47:08.471Z</time>
      </trkpt>
      <trkpt lat="47.540274" lon="7.726564">
        <ele>271.446739</ele>
        <time>2021-11-17T00:47:15.240Z</time>
      </trkpt>
      <trkpt lat="47.540139" lon="7.726814">
        <ele>272.148277</ele>
        <time>2021-11-17T00:47:20.594Z</time>
      </trkpt>
      <trkpt lat="47.540106" lon="7.727012">
        <ele>272.595189</ele>
        <time>2021-11-17T00:47:25.054Z</time>
      </trkpt>
      <trkpt lat="47.539972" lon="7.727255">
        <ele>273.282759</ele>
        <time>2021-11-17T00:47:32.740Z</time>
      </trkpt>
      <trkpt lat="47.539913" lon="7.727330">
        <ele>273.535128</ele>
        <time>2021-11-17T00:47:35.698Z</time>
      </trkpt>
      <trkpt lat="47.539657" lon="7.727684">
        <ele>274.671929</ele>
        <time>2021-11-17T00:47:49.630Z</time>
      </trkpt>
      <trkpt lat="47.539546" lon="7.727407">
        <ele>275.603870</ele>
        <time>2021-11-17T00:47:59.179Z</time>
      </trkpt>
      <trkpt lat="47.539520" lon="7.727453">
        <ele>275.826743</ele>
        <time>2021-11-17T00:48:00.995Z</time>
      </trkpt>
      <trkpt lat="47.539587" lon="7.727707">
        <ele>276.839804</ele>
        <time>2021-11-17T00:48:08.873Z</time>
      </trkpt>
      <trkpt lat="47.539570" lon="7.727738">
        <ele>276.988175</ele>
        <time>2021-11-17T00:48:10.024Z</time>
      </trkpt>
      <trkpt lat="47.539460" lon="7.727657">
        <ele>277.664161</ele>
        <time>2021-11-17T00:48:15.860Z</time>
      </trkpt>
      <trkpt lat="47.539446" lon="7.727722">
        <ele>277.917623</ele>
        <time>2021-11-17T00:48:17.971Z</time>
      </trkpt>
      <trkpt lat="47.539426" lon="7.727765">
        <ele>278.111608</ele>
        <time>2021-11-17T00:48:19.620Z</time>
      </trkpt>
      <trkpt lat="47.539384" lon="7.727813">
        <ele>278.403522</ele>
        <time>2021-11-17T00:48:21.943Z</time>
      </trkpt>
      <trkpt lat="47.539067" lon="7.728082">
        <ele>280.413906</ele>
        <time>2021-11-17T00:48:36.181Z</time>
      </trkpt>
      <trkpt lat="47.538783" lon="7.728228">
        <ele>282.068174</ele>
        <time>2021-11-17T00:48:47.869Z</time>
      </trkpt>
      <trkpt lat="47.538627" lon="7.728269">
        <ele>282.940036</ele>
        <time>2021-11-17T00:48:52.948Z</time>
      </trkpt>
      <trkpt lat="47.538549" lon="7.728263">
        <ele>283.369841</ele>
        <time>2021-11-17T00:48:56.285Z</time>
      </trkpt>
      <trkpt lat="47.538538" lon="7.728334">
        <ele>283.640461</ele>
        <time>2021-11-17T00:48:57.906Z</time>
      </trkpt>
      <trkpt lat="47.538527" lon="7.728380">
        <ele>283.821755</ele>
        <time>2021-11-17T00:48:59.083Z</time>
      </trkpt>
      <trkpt lat="47.538474" lon="7.728435">
        <ele>284.177859</ele>
        <time>2021-11-17T00:49:01.512Z</time>
      </trkpt>
      <trkpt lat="47.538188" lon="7.728631">
        <ele>285.357627</ele>
        <time>2021-11-17T00:49:12.204Z</time>
      </trkpt>
      <trkpt lat="47.538156" lon="7.728744">
        <ele>285.550405</ele>
        <time>2021-11-17T00:49:14.867Z</time>
      </trkpt>
      <trkpt lat="47.538211" lon="7.729041">
        <ele>286.034904</ele>
        <time>2021-11-17T00:49:21.602Z</time>
      </trkpt>
      <trkpt lat="47.538275" lon="7.729744">
        <ele>287.150869</ele>
        <time>2021-11-17T00:49:37.115Z</time>
      </trkpt>
      <trkpt lat="47.538319" lon="7.729973">
        <ele>287.525437</ele>
        <time>2021-11-17T00:49:41.147Z</time>
      </trkpt>
      <trkpt lat="47.538339" lon="7.730082">
        <ele>287.703136</ele>
        <time>2021-11-17T00:49:43.465Z</time>
      </trkpt>
      <trkpt lat="47.538388" lon="7.730328">
        <ele>288.106634</ele>
        <time>2021-11-17T00:49:47.815Z</time>
      </trkpt>
      <trkpt lat="47.538512" lon="7.730958">
        <ele>289.139006</ele>
        <time>2021-11-17T00:49:57.008Z</time>
      </trkpt>
      <trkpt lat="47.538887" lon="7.732454">
        <ele>288.431288</ele>
        <time>2021-11-17T00:50:16.250Z</time>
      </trkpt>
      <trkpt lat="47.539178" lon="7.733656">
        <ele>287.872092</ele>
        <time>2021-11-17T00:50:31.340Z</time>
      </trkpt>
      <trkpt lat="47.539263" lon="7.733885">
        <ele>287.768308</ele>
        <time>2021-11-17T00:50:34.458Z</time>
      </trkpt>
      <trkpt lat="47.539305" lon="7.734151">
        <ele>287.659820</ele>
        <time>2021-11-17T00:50:37.683Z</time>
      </trkpt>
      <trkpt lat="47.540032" lon="7.737141">
        <ele>287.259260</ele>
        <time>2021-11-17T00:51:17.909Z</time>
      </trkpt>
      <trkpt lat="47.540289" lon="7.738639">
        <ele>287.776396</ele>
        <time>2021-11-17T00:51:43.817Z</time>
      </trkpt>
      <trkpt lat="47.540388" lon="7.739213">
        <ele>288.251599</ele>
        <time>2021-11-17T00:51:53.948Z</time>
      </trkpt>
      <trkpt lat="47.540394" lon="7.739259">
        <ele>288.289179</ele>
        <time>2021-11-17T00:51:55.616Z</time>
      </trkpt>
      <trkpt lat="47.540387" lon="7.739372">
        <ele>288.380199</ele>
        <time>2021-11-17T00:51:57.468Z</time>
      </trkpt>
      <trkpt lat="47.540372" lon="7.739490">
        <ele>288.476512</ele>
        <time>2021-11-17T00:51:59.287Z</time>
      </trkpt>
      <trkpt lat="47.540374" lon="7.739620">
        <ele>288.580814</ele>
        <time>2021-11-17T00:52:01.351Z</time>
      </trkpt>
      <trkpt lat="47.540438" lon="7.740453">
        <ele>289.253288</ele>
        <time>2021-11-17T00:52:15.940Z</time>
      </trkpt>
      <trkpt lat="47.540552" lon="7.742240">
        <ele>290.019609</ele>
        <time>2021-11-17T00:52:44.028Z</time>
      </trkpt>
      <trkpt lat="47.540589" lon="7.742558">
        <ele>290.082299</ele>
        <time>2021-11-17T00:52:48.562Z</time>
      </trkpt>
      <trkpt lat="47.540617" lon="7.742875">
        <ele>290.144408</ele>
        <time>2021-11-17T00:52:52.942Z</time>
      </trkpt>
      <trkpt lat="47.540738" lon="7.743641">
        <ele>290.297241</ele>
        <time>2021-11-17T00:53:03.463Z</time>
      </trkpt>
      <trkpt lat="47.540913" lon="7.744421">
        <ele>290.305389</ele>
        <time>2021-11-17T00:53:14.144Z</time>
      </trkpt>
      <trkpt lat="47.541019" lon="7.744859">
        <ele>290.294269</ele>
        <time>2021-11-17T00:53:20.308Z</time>
      </trkpt>
      <trkpt lat="47.541038" lon="7.744940">
        <ele>290.292220</ele>
        <time>2021-11-17T00:53:21.422Z</time>
      </trkpt>
      <trkpt lat="47.541130" lon="7.745083">
        <ele>290.287499</ele>
        <time>2021-11-17T00:53:24.500Z</time>
      </trkpt>
      <trkpt lat="47.541148" lon="7.745144">
        <ele>290.285908</ele>
        <time>2021-11-17T00:53:25.402Z</time>
      </trkpt>
      <trkpt lat="47.541160" lon="7.745250">
        <ele>290.283340</ele>
        <time>2021-11-17T00:53:26.806Z</time>
      </trkpt>
      <trkpt lat="47.541167" lon="7.745463">
        <ele>290.278244</ele>
        <time>2021-11-17T00:53:29.795Z</time>
      </trkpt>
      <trkpt lat="47.541432" lon="7.746552">
        <ele>290.250676</ele>
        <time>2021-11-17T00:53:45.569Z</time>
      </trkpt>
      <trkpt lat="47.541511" lon="7.746885">
        <ele>290.242346</ele>
        <time>2021-11-17T00:53:50.134Z</time>
      </trkpt>
      <trkpt lat="47.541583" lon="7.747186">
        <ele>290.234810</ele>
        <time>2021-11-17T00:53:54.389Z</time>
      </trkpt>
      <trkpt lat="47.541758" lon="7.747784">
        <ele>290.219428</ele>
        <time>2021-11-17T00:54:03.009Z</time>
      </trkpt>
      <trkpt lat="47.542132" lon="7.748742">
        <ele>290.183483</ele>
        <time>2021-11-17T00:54:18.499Z</time>
      </trkpt>
      <trkpt lat="47.542347" lon="7.749227">
        <ele>290.106393</ele>
        <time>2021-11-17T00:54:26.872Z</time>
      </trkpt>
      <trkpt lat="47.542390" lon="7.749307">
        <ele>290.092806</ele>
        <time>2021-11-17T00:54:28.166Z</time>
      </trkpt>
      <trkpt lat="47.542614" lon="7.749755">
        <ele>290.018735</ele>
        <time>2021-11-17T00:54:33.553Z</time>
      </trkpt>
      <trkpt lat="47.543033" lon="7.750614">
        <ele>289.877931</ele>
        <time>2021-11-17T00:54:43.360Z</time>
      </trkpt>
      <trkpt lat="47.543115" lon="7.750826">
        <ele>289.845468</ele>
        <time>2021-11-17T00:54:45.587Z</time>
      </trkpt>
      <trkpt lat="47.543222" lon="7.751091">
        <ele>289.670347</ele>
        <time>2021-11-17T00:54:49.471Z</time>
      </trkpt>
      <trkpt lat="47.543222" lon="7.751091">
        <ele>289.670347</ele>
        <time>2021-11-17T00:54:49.476Z</time>
      </trkpt>
      <trkpt lat="47.543319" lon="7.751355">
        <ele>289.485620</ele>
        <time>2021-11-17T00:54:52.286Z</time>
      </trkpt>
      <trkpt lat="47.543798" lon="7.753068">
        <ele>288.346095</ele>
        <time>2021-11-17T00:55:07.759Z</time>
      </trkpt>
      <trkpt lat="47.544022" lon="7.753705">
        <ele>287.498002</ele>
        <time>2021-11-17T00:55:13.453Z</time>
      </trkpt>
      <trkpt lat="47.545021" lon="7.756243">
        <ele>282.636697</ele>
        <time>2021-11-17T00:55:34.558Z</time>
      </trkpt>
      <trkpt lat="47.545260" lon="7.756637">
        <ele>281.449585</ele>
        <time>2021-11-17T00:55:38.050Z</time>
      </trkpt>
      <trkpt lat="47.545304" lon="7.756852">
        <ele>280.946108</ele>
        <time>2021-11-17T00:55:39.499Z</time>
      </trkpt>
      <trkpt lat="47.545326" lon="7.756949">
        <ele>280.716786</ele>
        <time>2021-11-17T00:55:40.509Z</time>
      </trkpt>
      <trkpt lat="47.545360" lon="7.757065">
        <ele>280.433378</ele>
        <time>2021-11-17T00:55:41.769Z</time>
      </trkpt>
      <trkpt lat="47.545429" lon="7.757231">
        <ele>279.996494</ele>
        <time>2021-11-17T00:55:43.010Z</time>
      </trkpt>
      <trkpt lat="47.545677" lon="7.757815">
        <ele>278.450290</ele>
        <time>2021-11-17T00:55:47.674Z</time>
      </trkpt>
      <trkpt lat="47.545911" lon="7.758393">
        <ele>277.579870</ele>
        <time>2021-11-17T00:55:52.297Z</time>
      </trkpt>
      <trkpt lat="47.546264" lon="7.759224">
        <ele>276.364970</ele>
        <time>2021-11-17T00:55:59.322Z</time>
      </trkpt>
      <trkpt lat="47.546312" lon="7.759326">
        <ele>276.211117</ele>
        <time>2021-11-17T00:56:00.316Z</time>
      </trkpt>
      <trkpt lat="47.546552" lon="7.759727">
        <ele>275.547989</ele>
        <time>2021-11-17T00:56:04.953Z</time>
      </trkpt>
      <trkpt lat="47.546804" lon="7.760164">
        <ele>275.208402</ele>
        <time>2021-11-17T00:56:10.491Z</time>
      </trkpt>
      <trkpt lat="47.546870" lon="7.760301">
        <ele>275.329510</ele>
        <time>2021-11-17T00:56:12.492Z</time>
      </trkpt>
      <trkpt lat="47.546948" lon="7.760482">
        <ele>275.484023</ele>
        <time>2021-11-17T00:56:14.953Z</time>
      </trkpt>
      <trkpt lat="47.546989" lon="7.760612">
        <ele>275.587269</ele>
        <time>2021-11-17T00:56:16.648Z</time>
      </trkpt>
      <trkpt lat="47.547194" lon="7.761352">
        <ele>276.162817</ele>
        <time>2021-11-17T00:56:27.170Z</time>
      </trkpt>
      <trkpt lat="47.547577" lon="7.762307">
        <ele>276.962100</ele>
        <time>2021-11-17T00:56:43.212Z</time>
      </trkpt>
      <trkpt lat="47.547778" lon="7.762713">
        <ele>277.470494</ele>
        <time>2021-11-17T00:56:50.767Z</time>
      </trkpt>
      <trkpt lat="47.547848" lon="7.762928">
        <ele>277.717098</ele>
        <time>2021-11-17T00:56:54.301Z</time>
      </trkpt>
      <trkpt lat="47.547909" lon="7.763208">
        <ele>278.021057</ele>
        <time>2021-11-17T00:56:58.980Z</time>
      </trkpt>
      <trkpt lat="47.548565" lon="7.765680">
        <ele>279.848239</ele>
        <time>2021-11-17T00:57:35.566Z</time>
      </trkpt>
      <trkpt lat="47.548990" lon="7.767248">
        <ele>280.015716</ele>
        <time>2021-11-17T00:57:50.923Z</time>
      </trkpt>
      <trkpt lat="47.549184" lon="7.768021">
        <ele>279.361173</ele>
        <time>2021-11-17T00:57:57.306Z</time>
      </trkpt>
      <trkpt lat="47.549363" lon="7.768846">
        <ele>278.673401</ele>
        <time>2021-11-17T00:58:03.969Z</time>
      </trkpt>
      <trkpt lat="47.549678" lon="7.770148">
        <ele>277.761508</ele>
        <time>2021-11-17T00:58:15.553Z</time>
      </trkpt>
      <trkpt lat="47.549714" lon="7.770276">
        <ele>277.712114</ele>
        <time>2021-11-17T00:58:16.681Z</time>
      </trkpt>
      <trkpt lat="47.549845" lon="7.770734">
        <ele>277.534929</ele>
        <time>2021-11-17T00:58:21.059Z</time>
      </trkpt>
      <trkpt lat="47.550069" lon="7.771373">
        <ele>277.278448</ele>
        <time>2021-11-17T00:58:27.508Z</time>
      </trkpt>
      <trkpt lat="47.550199" lon="7.772076">
        <ele>277.018811</ele>
        <time>2021-11-17T00:58:34.345Z</time>
      </trkpt>
      <trkpt lat="47.550203" lon="7.772543">
        <ele>276.865923</ele>
        <time>2021-11-17T00:58:38.734Z</time>
      </trkpt>
      <trkpt lat="47.550061" lon="7.773283">
        <ele>276.625100</ele>
        <time>2021-11-17T00:58:45.982Z</time>
      </trkpt>
      <trkpt lat="47.550090" lon="7.773646">
        <ele>276.510677</ele>
        <time>2021-11-17T00:58:49.262Z</time>
      </trkpt>
      <trkpt lat="47.550320" lon="7.774602">
        <ele>276.192978</ele>
        <time>2021-11-17T00:58:58.137Z</time>
      </trkpt>
      <trkpt lat="47.550505" lon="7.775364">
        <ele>276.031462</ele>
        <time>2021-11-17T00:59:05.200Z</time>
      </trkpt>
      <trkpt lat="47.550598" lon="7.775828">
        <ele>275.953322</ele>
        <time>2021-11-17T00:59:09.518Z</time>
      </trkpt>
      <trkpt lat="47.550607" lon="7.775871">
        <ele>275.946054</ele>
        <time>2021-11-17T00:59:09.941Z</time>
      </trkpt>
      <trkpt lat="47.550782" lon="7.776690">
        <ele>275.807371</ele>
        <time>2021-11-17T00:59:17.917Z</time>
      </trkpt>
      <trkpt lat="47.550963" lon="7.777797">
        <ele>275.840494</ele>
        <time>2021-11-17T00:59:30.003Z</time>
      </trkpt>
      <trkpt lat="47.550982" lon="7.777915">
        <ele>275.877045</ele>
        <time>2021-11-17T00:59:31.536Z</time>
      </trkpt>
      <trkpt lat="47.551085" lon="7.779125">
        <ele>276.244506</ele>
        <time>2021-11-17T00:59:45.976Z</time>
      </trkpt>
      <trkpt lat="47.551208" lon="7.780694">
        <ele>276.625921</ele>
        <time>2021-11-17T01:00:03.418Z</time>
      </trkpt>
      <trkpt lat="47.551270" lon="7.781390">
        <ele>276.745871</ele>
        <time>2021-11-17T01:00:10.846Z</time>
      </trkpt>
      <trkpt lat="47.551198" lon="7.781475">
        <ele>276.769176</ele>
        <time>2021-11-17T01:00:12.791Z</time>
      </trkpt>
      <trkpt lat="47.551230" lon="7.781831">
        <ele>276.830539</ele>
        <time>2021-11-17T01:00:16.514Z</time>
      </trkpt>
      <trkpt lat="47.551302" lon="7.782671">
        <ele>277.002276</ele>
        <time>2021-11-17T01:00:25.097Z</time>
      </trkpt>
      <trkpt lat="47.551313" lon="7.782808">
        <ele>277.061791</ele>
        <time>2021-11-17T01:00:26.467Z</time>
      </trkpt>
      <trkpt lat="47.551439" lon="7.784323">
        <ele>277.720267</ele>
        <time>2021-11-17T01:00:43.866Z</time>
      </trkpt>
      <trkpt lat="47.551437" lon="7.784657">
        <ele>277.864352</ele>
        <time>2021-11-17T01:00:48.219Z</time>
      </trkpt>
      <trkpt lat="47.551410" lon="7.784675">
        <ele>277.883275</ele>
        <time>2021-11-17T01:00:48.757Z</time>
      </trkpt>
      <trkpt lat="47.551373" lon="7.784740">
        <ele>277.919955</ele>
        <time>2021-11-17T01:00:49.744Z</time>
      </trkpt>
      <trkpt lat="47.551366" lon="7.784786">
        <ele>277.940297</ele>
        <time>2021-11-17T01:00:50.248Z</time>
      </trkpt>
      <trkpt lat="47.551371" lon="7.784835">
        <ele>277.961674</ele>
        <time>2021-11-17T01:00:50.880Z</time>
      </trkpt>
      <trkpt lat="47.551420" lon="7.784918">
        <ele>278.009243</ele>
        <time>2021-11-17T01:00:52.235Z</time>
      </trkpt>
      <trkpt lat="47.551452" lon="7.784931">
        <ele>278.030450</ele>
        <time>2021-11-17T01:00:52.852Z</time>
      </trkpt>
      <trkpt lat="47.551479" lon="7.784929">
        <ele>278.047729</ele>
        <time>2021-11-17T01:00:53.358Z</time>
      </trkpt>
      <trkpt lat="47.551498" lon="7.785081">
        <ele>278.119998</ele>
        <time>2021-11-17T01:00:55.521Z</time>
      </trkpt>
      <trkpt lat="47.551672" lon="7.787603">
        <ele>280.043626</ele>
        <time>2021-11-17T01:01:29.093Z</time>
      </trkpt>
      <trkpt lat="47.551690" lon="7.787827">
        <ele>280.188782</ele>
        <time>2021-11-17T01:01:31.941Z</time>
      </trkpt>
      <trkpt lat="47.551694" lon="7.787879">
        <ele>280.216430</ele>
        <time>2021-11-17T01:01:32.619Z</time>
      </trkpt>
      <trkpt lat="47.551712" lon="7.788013">
        <ele>280.288604</ele>
        <time>2021-11-17T01:01:34.423Z</time>
      </trkpt>
      <trkpt lat="47.551858" lon="7.788906">
        <ele>280.773981</ele>
        <time>2021-11-17T01:01:45.694Z</time>
      </trkpt>
      <trkpt lat="47.552036" lon="7.789826">
        <ele>281.279550</ele>
        <time>2021-11-17T01:01:56.949Z</time>
      </trkpt>
      <trkpt lat="47.552135" lon="7.790302">
        <ele>281.541299</ele>
        <time>2021-11-17T01:02:02.715Z</time>
      </trkpt>
      <trkpt lat="47.552201" lon="7.791031">
        <ele>281.836724</ele>
        <time>2021-11-17T01:02:11.319Z</time>
      </trkpt>
      <trkpt lat="47.552182" lon="7.792040">
        <ele>282.242147</ele>
        <time>2021-11-17T01:02:23.772Z</time>
      </trkpt>
      <trkpt lat="47.552180" lon="7.792294">
        <ele>282.344173</ele>
        <time>2021-11-17T01:02:26.845Z</time>
      </trkpt>
      <trkpt lat="47.552184" lon="7.792540">
        <ele>282.443007</ele>
        <time>2021-11-17T01:02:29.267Z</time>
      </trkpt>
      <trkpt lat="47.552198" lon="7.792976">
        <ele>282.627094</ele>
        <time>2021-11-17T01:02:33.576Z</time>
      </trkpt>
      <trkpt lat="47.552216" lon="7.793160">
        <ele>282.761419</ele>
        <time>2021-11-17T01:02:35.626Z</time>
      </trkpt>
      <trkpt lat="47.552233" lon="7.793294">
        <ele>282.859927</ele>
        <time>2021-11-17T01:02:37.346Z</time>
      </trkpt>
      <trkpt lat="47.552292" lon="7.793607">
        <ele>283.094716</ele>
        <time>2021-11-17T01:02:40.376Z</time>
      </trkpt>
      <trkpt lat="47.552369" lon="7.793872">
        <ele>283.303162</ele>
        <time>2021-11-17T01:02:44.197Z</time>
      </trkpt>
      <trkpt lat="47.552384" lon="7.793915">
        <ele>283.338133</ele>
        <time>2021-11-17T01:02:44.555Z</time>
      </trkpt>
      <trkpt lat="47.552494" lon="7.794200">
        <ele>283.575330</ele>
        <time>2021-11-17T01:02:48.683Z</time>
      </trkpt>
      <trkpt lat="47.552532" lon="7.794285">
        <ele>283.648990</ele>
        <time>2021-11-17T01:02:50.150Z</time>
      </trkpt>
      <trkpt lat="47.552644" lon="7.794507">
        <ele>283.849237</ele>
        <time>2021-11-17T01:02:53.771Z</time>
      </trkpt>
      <trkpt lat="47.552763" lon="7.794750">
        <ele>284.066144</ele>
        <time>2021-11-17T01:02:58.430Z</time>
      </trkpt>
      <trkpt lat="47.552786" lon="7.794796">
        <ele>284.107504</ele>
        <time>2021-11-17T01:02:58.937Z</time>
      </trkpt>
      <trkpt lat="47.552826" lon="7.794894">
        <ele>284.190247</ele>
        <time>2021-11-17T01:03:00.677Z</time>
      </trkpt>
      <trkpt lat="47.552837" lon="7.794925">
        <ele>284.215551</ele>
        <time>2021-11-17T01:03:01.191Z</time>
      </trkpt>
      <trkpt lat="47.552861" lon="7.794992">
        <ele>284.270351</ele>
        <time>2021-11-17T01:03:02.318Z</time>
      </trkpt>
      <trkpt lat="47.552892" lon="7.795106">
        <ele>284.359147</ele>
        <time>2021-11-17T01:03:04.420Z</time>
      </trkpt>
      <trkpt lat="47.552909" lon="7.795229">
        <ele>284.449855</ele>
        <time>2021-11-17T01:03:06.466Z</time>
      </trkpt>
      <trkpt lat="47.552917" lon="7.795354">
        <ele>284.556709</ele>
        <time>2021-11-17T01:03:08.034Z</time>
      </trkpt>
      <trkpt lat="47.552930" lon="7.795600">
        <ele>285.102358</ele>
        <time>2021-11-17T01:03:11.602Z</time>
      </trkpt>
      <trkpt lat="47.552914" lon="7.795738">
        <ele>285.411989</ele>
        <time>2021-11-17T01:03:13.779Z</time>
      </trkpt>
      <trkpt lat="47.552886" lon="7.795976">
        <ele>285.946219</ele>
        <time>2021-11-17T01:03:17.145Z</time>
      </trkpt>
      <trkpt lat="47.552817" lon="7.796239">
        <ele>286.570191</ele>
        <time>2021-11-17T01:03:22.150Z</time>
      </trkpt>
      <trkpt lat="47.552762" lon="7.796425">
        <ele>287.019242</ele>
        <time>2021-11-17T01:03:25.606Z</time>
      </trkpt>
      <trkpt lat="47.552493" lon="7.797048">
        <ele>288.654708</ele>
        <time>2021-11-17T01:03:40.226Z</time>
      </trkpt>
      <trkpt lat="47.552152" lon="7.797876">
        <ele>290.819669</ele>
        <time>2021-11-17T01:04:02.284Z</time>
      </trkpt>
      <trkpt lat="47.552084" lon="7.798083">
        <ele>291.356013</ele>
        <time>2021-11-17T01:04:07.824Z</time>
      </trkpt>
      <trkpt lat="47.551948" lon="7.798607">
        <ele>292.663947</ele>
        <time>2021-11-17T01:04:19.634Z</time>
      </trkpt>
      <trkpt lat="47.551805" lon="7.799326">
        <ele>294.410246</ele>
        <time>2021-11-17T01:04:33.521Z</time>
      </trkpt>
      <trkpt lat="47.551793" lon="7.799434">
        <ele>294.665245</ele>
        <time>2021-11-17T01:04:35.805Z</time>
      </trkpt>
      <trkpt lat="47.551754" lon="7.799766">
        <ele>295.450348</ele>
        <time>2021-11-17T01:04:42.155Z</time>
      </trkpt>
      <trkpt lat="47.551712" lon="7.800249">
        <ele>296.584917</ele>
        <time>2021-11-17T01:04:51.074Z</time>
      </trkpt>
      <trkpt lat="47.551704" lon="7.800451">
        <ele>296.785000</ele>
        <time>2021-11-17T01:04:54.260Z</time>
      </trkpt>
      <trkpt lat="47.551672" lon="7.801147">
        <ele>297.364615</ele>
        <time>2021-11-17T01:05:03.283Z</time>
      </trkpt>
      <trkpt lat="47.551669" lon="7.801438">
        <ele>297.606421</ele>
        <time>2021-11-17T01:05:07.862Z</time>
      </trkpt>
      <trkpt lat="47.551666" lon="7.801632">
        <ele>297.767649</ele>
        <time>2021-11-17T01:05:09.875Z</time>
      </trkpt>
      <trkpt lat="47.551669" lon="7.801853">
        <ele>297.951305</ele>
        <time>2021-11-17T01:05:13.133Z</time>
      </trkpt>
      <trkpt lat="47.551671" lon="7.802077">
        <ele>298.137432</ele>
        <time>2021-11-17T01:05:15.450Z</time>
      </trkpt>
      <trkpt lat="47.551679" lon="7.802228">
        <ele>298.263277</ele>
        <time>2021-11-17T01:05:16.570Z</time>
      </trkpt>
      <trkpt lat="47.551688" lon="7.802394">
        <ele>298.401643</ele>
        <time>2021-11-17T01:05:19.526Z</time>
      </trkpt>
      <trkpt lat="47.551700" lon="7.802648">
        <ele>298.613196</ele>
        <time>2021-11-17T01:05:21.806Z</time>
      </trkpt>
      <trkpt lat="47.551732" lon="7.803125">
        <ele>298.976788</ele>
        <time>2021-11-17T01:05:27.956Z</time>
      </trkpt>
      <trkpt lat="47.551744" lon="7.803277">
        <ele>299.076836</ele>
        <time>2021-11-17T01:05:29.164Z</time>
      </trkpt>
      <trkpt lat="47.551751" lon="7.803369">
        <ele>299.137362</ele>
        <time>2021-11-17T01:05:30.839Z</time>
      </trkpt>
      <trkpt lat="47.551692" lon="7.803510">
        <ele>299.245818</ele>
        <time>2021-11-17T01:05:34.445Z</time>
      </trkpt>
      <trkpt lat="47.551741" lon="7.804294">
        <ele>299.760550</ele>
        <time>2021-11-17T01:05:47.042Z</time>
      </trkpt>
      <trkpt lat="47.551744" lon="7.804473">
        <ele>299.877607</ele>
        <time>2021-11-17T01:05:50.070Z</time>
      </trkpt>
      <trkpt lat="47.551731" lon="7.804667">
        <ele>300.005058</ele>
        <time>2021-11-17T01:05:54.189Z</time>
      </trkpt>
      <trkpt lat="47.551709" lon="7.805000">
        <ele>300.223797</ele>
        <time>2021-11-17T01:05:58.711Z</time>
      </trkpt>
      <trkpt lat="47.551681" lon="7.805477">
        <ele>300.536812</ele>
        <time>2021-11-17T01:06:06.455Z</time>
      </trkpt>
      <trkpt lat="47.551677" lon="7.805733">
        <ele>300.610387</ele>
        <time>2021-11-17T01:06:11.231Z</time>
      </trkpt>
      <trkpt lat="47.551671" lon="7.806117">
        <ele>300.653401</ele>
        <time>2021-11-17T01:06:16.549Z</time>
      </trkpt>
      <trkpt lat="47.551651" lon="7.806246">
        <ele>300.668223</ele>
        <time>2021-11-17T01:06:19.467Z</time>
      </trkpt>
      <trkpt lat="47.551895" lon="7.806278">
        <ele>300.708867</ele>
        <time>2021-11-17T01:06:22.978Z</time>
      </trkpt>
      <trkpt lat="47.552015" lon="7.806307">
        <ele>300.729040</ele>
        <time>2021-11-17T01:06:25.866Z</time>
      </trkpt>
      <trkpt lat="47.552068" lon="7.806445">
        <ele>300.746821</ele>
        <time>2021-11-17T01:06:27.315Z</time>
      </trkpt>
      <trkpt lat="47.552398" lon="7.808880">
        <ele>300.379542</ele>
        <time>2021-11-17T01:06:49.447Z</time>
      </trkpt>
      <trkpt lat="47.552566" lon="7.810386">
        <ele>299.735011</ele>
        <time>2021-11-17T01:07:02.458Z</time>
      </trkpt>
      <trkpt lat="47.552711" lon="7.812955">
        <ele>298.598833</ele>
        <time>2021-11-17T01:07:25.067Z</time>
      </trkpt>
      <trkpt lat="47.552844" lon="7.816432">
        <ele>297.460750</ele>
        <time>2021-11-17T01:07:55.559Z</time>
      </trkpt>
      <trkpt lat="47.552948" lon="7.819358">
        <ele>297.826963</ele>
        <time>2021-11-17T01:08:26.790Z</time>
      </trkpt>
      <trkpt lat="47.552896" lon="7.820699">
        <ele>298.336032</ele>
        <time>2021-11-17T01:08:42.873Z</time>
      </trkpt>
      <trkpt lat="47.552567" lon="7.824508">
        <ele>300.221905</ele>
        <time>2021-11-17T01:09:29.266Z</time>
      </trkpt>
      <trkpt lat="47.552508" lon="7.826617">
        <ele>301.283456</ele>
        <time>2021-11-17T01:09:53.507Z</time>
      </trkpt>
      <trkpt lat="47.552491" lon="7.827227">
        <ele>301.770825</ele>
        <time>2021-11-17T01:10:01.006Z</time>
      </trkpt>
      <trkpt lat="47.552515" lon="7.828094">
        <ele>302.463519</ele>
        <time>2021-11-17T01:10:12.735Z</time>
      </trkpt>
      <trkpt lat="47.552477" lon="7.828294">
        <ele>302.629382</ele>
        <time>2021-11-17T01:10:15.363Z</time>
      </trkpt>
      <trkpt lat="47.552421" lon="7.828481">
        <ele>302.792696</ele>
        <time>2021-11-17T01:10:18.304Z</time>
      </trkpt>
      <trkpt lat="47.552404" lon="7.828582">
        <ele>302.875793</ele>
        <time>2021-11-17T01:10:19.993Z</time>
      </trkpt>
      <trkpt lat="47.552416" lon="7.828822">
        <ele>303.067906</ele>
        <time>2021-11-17T01:10:23.244Z</time>
      </trkpt>
      <trkpt lat="47.552554" lon="7.829266">
        <ele>303.828168</ele>
        <time>2021-11-17T01:10:30.625Z</time>
      </trkpt>
      <trkpt lat="47.552645" lon="7.830686">
        <ele>306.207529</ele>
        <time>2021-11-17T01:10:53.932Z</time>
      </trkpt>
      <trkpt lat="47.552690" lon="7.832598">
        <ele>309.770539</ele>
        <time>2021-11-17T01:11:29.409Z</time>
      </trkpt>
      <trkpt lat="47.552616" lon="7.832891">
        <ele>310.398097</ele>
        <time>2021-11-17T01:11:34.773Z</time>
      </trkpt>
      <trkpt lat="47.552556" lon="7.832977">
        <ele>310.646218</ele>
        <time>2021-11-17T01:11:37.504Z</time>
      </trkpt>
      <trkpt lat="47.552511" lon="7.833072">
        <ele>310.879038</ele>
        <time>2021-11-17T01:11:39.530Z</time>
      </trkpt>
      <trkpt lat="47.552467" lon="7.833198">
        <ele>311.163621</ele>
        <time>2021-11-17T01:11:41.932Z</time>
      </trkpt>
      <trkpt lat="47.552452" lon="7.833284">
        <ele>311.341804</ele>
        <time>2021-11-17T01:11:43.543Z</time>
      </trkpt>
      <trkpt lat="47.552696" lon="7.833789">
        <ele>312.587662</ele>
        <time>2021-11-17T01:11:54.574Z</time>
      </trkpt>
      <trkpt lat="47.552700" lon="7.833938">
        <ele>312.886789</ele>
        <time>2021-11-17T01:11:57.519Z</time>
      </trkpt>
      <trkpt lat="47.552714" lon="7.835010">
        <ele>314.370670</ele>
        <time>2021-11-17T01:12:15.996Z</time>
      </trkpt>
      <trkpt lat="47.552719" lon="7.836790">
        <ele>316.755658</ele>
        <time>2021-11-17T01:12:41.282Z</time>
      </trkpt>
      <trkpt lat="47.552697" lon="7.838068">
        <ele>318.032886</ele>
        <time>2021-11-17T01:12:58.922Z</time>
      </trkpt>
      <trkpt lat="47.552736" lon="7.838578">
        <ele>318.545673</ele>
        <time>2021-11-17T01:13:06.048Z</time>
      </trkpt>
      <trkpt lat="47.552768" lon="7.838786">
        <ele>318.758810</ele>
        <time>2021-11-17T01:13:09.067Z</time>
      </trkpt>
      <trkpt lat="47.552802" lon="7.839009">
        <ele>318.987217</ele>
        <time>2021-11-17T01:13:12.267Z</time>
      </trkpt>
      <trkpt lat="47.552939" lon="7.839526">
        <ele>319.569814</ele>
        <time>2021-11-17T01:13:20.057Z</time>
      </trkpt>
      <trkpt lat="47.553231" lon="7.841529">
        <ele>321.806432</ele>
        <time>2021-11-17T01:13:50.186Z</time>
      </trkpt>
      <trkpt lat="47.553216" lon="7.841849">
        <ele>322.154673</ele>
        <time>2021-11-17T01:13:54.710Z</time>
      </trkpt>
      <trkpt lat="47.553123" lon="7.842222">
        <ele>322.428962</ele>
        <time>2021-11-17T01:13:59.940Z</time>
      </trkpt>
      <trkpt lat="47.553133" lon="7.842431">
        <ele>322.573491</ele>
        <time>2021-11-17T01:14:03.070Z</time>
      </trkpt>
      <trkpt lat="47.552833" lon="7.842495">
        <ele>322.883271</ele>
        <time>2021-11-17T01:14:10.378Z</time>
      </trkpt>
      <trkpt lat="47.552380" lon="7.842592">
        <ele>323.351074</ele>
        <time>2021-11-17T01:14:21.427Z</time>
      </trkpt>
      <trkpt lat="47.551922" lon="7.842704">
        <ele>323.825511</ele>
        <time>2021-11-17T01:14:31.993Z</time>
      </trkpt>
      <trkpt lat="47.551668" lon="7.842770">
        <ele>324.080607</ele>
        <time>2021-11-17T01:14:37.952Z</time>
      </trkpt>
      <trkpt lat="47.551454" lon="7.842815">
        <ele>324.282678</ele>
        <time>2021-11-17T01:14:42.673Z</time>
      </trkpt>
      <trkpt lat="47.551344" lon="7.844621">
        <ele>325.426865</ele>
        <time>2021-11-17T01:15:05.337Z</time>
      </trkpt>
      <trkpt lat="47.551283" lon="7.845534">
        <ele>326.165552</ele>
        <time>2021-11-17T01:15:17.729Z</time>
      </trkpt>
      <trkpt lat="47.551205" lon="7.846694">
        <ele>327.252533</ele>
        <time>2021-11-17T01:15:33.327Z</time>
      </trkpt>
      <trkpt lat="47.551184" lon="7.847206">
        <ele>327.730822</ele>
        <time>2021-11-17T01:15:40.716Z</time>
      </trkpt>
      <trkpt lat="47.551196" lon="7.847517">
        <ele>328.021283</ele>
        <time>2021-11-17T01:15:45.259Z</time>
      </trkpt>
      <trkpt lat="47.551669" lon="7.848083">
        <ele>328.921888</ele>
        <time>2021-11-17T01:15:58.210Z</time>
      </trkpt>
      <trkpt lat="47.551242" lon="7.848702">
        <ele>329.818176</ele>
        <time>2021-11-17T01:16:10.759Z</time>
      </trkpt>
      <trkpt lat="47.550975" lon="7.849066">
        <ele>330.362548</ele>
        <time>2021-11-17T01:16:18.075Z</time>
      </trkpt>
      <trkpt lat="47.550810" lon="7.849346">
        <ele>330.738951</ele>
        <time>2021-11-17T01:16:24.468Z</time>
      </trkpt>
      <trkpt lat="47.550488" lon="7.850081">
        <ele>331.368604</ele>
        <time>2021-11-17T01:16:39.934Z</time>
      </trkpt>
      <trkpt lat="47.550333" lon="7.850434">
        <ele>331.652619</ele>
        <time>2021-11-17T01:16:47.265Z</time>
      </trkpt>
      <trkpt lat="47.550009" lon="7.851173">
        <ele>332.246934</ele>
        <time>2021-11-17T01:17:01.903Z</time>
      </trkpt>
      <trkpt lat="47.549652" lon="7.851969">
        <ele>332.609655</ele>
        <time>2021-11-17T01:17:15.891Z</time>
      </trkpt>
      <trkpt lat="47.549535" lon="7.852225">
        <ele>332.572749</ele>
        <time>2021-11-17T01:17:19.892Z</time>
      </trkpt>
      <trkpt lat="47.549285" lon="7.852784">
        <ele>332.492702</ele>
        <time>2021-11-17T01:17:28.550Z</time>
      </trkpt>
      <trkpt lat="47.549636" lon="7.853194">
        <ele>332.413653</ele>
        <time>2021-11-17T01:17:37.181Z</time>
      </trkpt>
      <trkpt lat="47.549708" lon="7.853279">
        <ele>332.397371</ele>
        <time>2021-11-17T01:17:38.905Z</time>
      </trkpt>
      <trkpt lat="47.550221" lon="7.853833">
        <ele>332.171919</ele>
        <time>2021-11-17T01:17:50.905Z</time>
      </trkpt>
      <trkpt lat="47.549883" lon="7.854434">
        <ele>331.862108</ele>
        <time>2021-11-17T01:17:57.545Z</time>
      </trkpt>
      <trkpt lat="47.549566" lon="7.855225">
        <ele>331.497788</ele>
        <time>2021-11-17T01:18:08.638Z</time>
      </trkpt>
      <trkpt lat="47.549362" lon="7.855774">
        <ele>331.274266</ele>
        <time>2021-11-17T01:18:16.560Z</time>
      </trkpt>
      <trkpt lat="47.548887" lon="7.857308">
        <ele>331.175028</ele>
        <time>2021-11-17T01:18:38.668Z</time>
      </trkpt>
      <trkpt lat="47.548743" lon="7.857692">
        <ele>331.149198</ele>
        <time>2021-11-17T01:18:44.639Z</time>
      </trkpt>
      <trkpt lat="47.548701" lon="7.857893">
        <ele>331.136825</ele>
        <time>2021-11-17T01:18:47.611Z</time>
      </trkpt>
      <trkpt lat="47.548686" lon="7.857973">
        <ele>331.131943</ele>
        <time>2021-11-17T01:18:48.734Z</time>
      </trkpt>
      <trkpt lat="47.548611" lon="7.858381">
        <ele>331.274544</ele>
        <time>2021-11-17T01:18:54.948Z</time>
      </trkpt>
      <trkpt lat="47.548334" lon="7.859801">
        <ele>332.171255</ele>
        <time>2021-11-17T01:19:17.986Z</time>
      </trkpt>
      <trkpt lat="47.548049" lon="7.860929">
        <ele>333.048843</ele>
        <time>2021-11-17T01:19:39.004Z</time>
      </trkpt>
      <trkpt lat="47.547930" lon="7.861711">
        <ele>333.972247</ele>
        <time>2021-11-17T01:19:53.768Z</time>
      </trkpt>
      <trkpt lat="47.547568" lon="7.863151">
        <ele>335.742317</ele>
        <time>2021-11-17T01:20:22.895Z</time>
      </trkpt>
      <trkpt lat="47.547320" lon="7.863864">
        <ele>336.032823</ele>
        <time>2021-11-17T01:20:36.835Z</time>
      </trkpt>
      <trkpt lat="47.546974" lon="7.864423">
        <ele>336.261629</ele>
        <time>2021-11-17T01:20:47.659Z</time>
      </trkpt>
      <trkpt lat="47.546885" lon="7.864500">
        <ele>336.307693</ele>
        <time>2021-11-17T01:20:50.744Z</time>
      </trkpt>
      <trkpt lat="47.546894" lon="7.864837">
        <ele>336.409438</ele>
        <time>2021-11-17T01:20:54.628Z</time>
      </trkpt>
      <trkpt lat="47.546889" lon="7.865225">
        <ele>336.526511</ele>
        <time>2021-11-17T01:21:00.053Z</time>
      </trkpt>
      <trkpt lat="47.546819" lon="7.865489">
        <ele>336.611709</ele>
        <time>2021-11-17T01:21:03.997Z</time>
      </trkpt>
      <trkpt lat="47.546510" lon="7.865766">
        <ele>336.295843</ele>
        <time>2021-11-17T01:21:10.631Z</time>
      </trkpt>
      <trkpt lat="47.546327" lon="7.865959">
        <ele>336.099383</ele>
        <time>2021-11-17T01:21:14.146Z</time>
      </trkpt>
      <trkpt lat="47.546096" lon="7.866147">
        <ele>335.868878</ele>
        <time>2021-11-17T01:21:18.702Z</time>
      </trkpt>
      <trkpt lat="47.545240" lon="7.866887">
        <ele>335.075038</ele>
        <time>2021-11-17T01:21:35.376Z</time>
      </trkpt>
      <trkpt lat="47.545160" lon="7.866985">
        <ele>335.164204</ele>
        <time>2021-11-17T01:21:37.332Z</time>
      </trkpt>
      <trkpt lat="47.545003" lon="7.867278">
        <ele>335.381107</ele>
        <time>2021-11-17T01:21:43.000Z</time>
      </trkpt>
      <trkpt lat="47.544568" lon="7.867693">
        <ele>335.825530</ele>
        <time>2021-11-17T01:21:55.791Z</time>
      </trkpt>
      <trkpt lat="47.544469" lon="7.867776">
        <ele>335.923240</ele>
        <time>2021-11-17T01:21:58.653Z</time>
      </trkpt>
      <trkpt lat="47.544410" lon="7.867825">
        <ele>335.981340</ele>
        <time>2021-11-17T01:22:00.741Z</time>
      </trkpt>
      <trkpt lat="47.544246" lon="7.867967">
        <ele>336.144506</ele>
        <time>2021-11-17T01:22:05.425Z</time>
      </trkpt>
      <trkpt lat="47.544214" lon="7.867988">
        <ele>336.174569</ele>
        <time>2021-11-17T01:22:06.273Z</time>
      </trkpt>
      <trkpt lat="47.543801" lon="7.868269">
        <ele>336.564946</ele>
        <time>2021-11-17T01:22:17.876Z</time>
      </trkpt>
      <trkpt lat="47.543657" lon="7.868359">
        <ele>336.762273</ele>
        <time>2021-11-17T01:22:22.225Z</time>
      </trkpt>
      <trkpt lat="47.543201" lon="7.868657">
        <ele>337.424527</ele>
        <time>2021-11-17T01:22:32.426Z</time>
      </trkpt>
      <trkpt lat="47.543105" lon="7.868711">
        <ele>337.560974</ele>
        <time>2021-11-17T01:22:35.010Z</time>
      </trkpt>
      <trkpt lat="47.543049" lon="7.868759">
        <ele>337.646943</ele>
        <time>2021-11-17T01:22:36.386Z</time>
      </trkpt>
      <trkpt lat="47.542722" lon="7.869201">
        <ele>338.235140</ele>
        <time>2021-11-17T01:22:46.219Z</time>
      </trkpt>
      <trkpt lat="47.542696" lon="7.869257">
        <ele>338.296104</ele>
        <time>2021-11-17T01:22:47.049Z</time>
      </trkpt>
      <trkpt lat="47.542657" lon="7.869354">
        <ele>338.397374</ele>
        <time>2021-11-17T01:22:48.484Z</time>
      </trkpt>
      <trkpt lat="47.542372" lon="7.869746">
        <ele>338.914137</ele>
        <time>2021-11-17T01:22:55.688Z</time>
      </trkpt>
      <trkpt lat="47.542329" lon="7.869820">
        <ele>338.973836</ele>
        <time>2021-11-17T01:22:56.900Z</time>
      </trkpt>
      <trkpt lat="47.542348" lon="7.869983">
        <ele>338.973836</ele>
        <time>2021-11-17T01:22:58.470Z</time>
      </trkpt>
      <trkpt lat="47.542317" lon="7.870012">
        <ele>338.973836</ele>
        <time>2021-11-17T01:22:59.175Z</time>
      </trkpt>
      <trkpt lat="47.542181" lon="7.870131">
        <ele>338.973836</ele>
        <time>2021-11-17T01:23:01.789Z</time>
      </trkpt>
      <trkpt lat="47.542118" lon="7.870135">
        <ele>338.973836</ele>
        <time>2021-11-17T01:23:02.822Z</time>
      </trkpt>
      <trkpt lat="47.542014" lon="7.870126">
        <ele>338.973836</ele>
        <time>2021-11-17T01:23:04.200Z</time>
      </trkpt>
      <trkpt lat="47.541910" lon="7.870106">
        <ele>338.973836</ele>
        <time>2021-11-17T01:23:05.864Z</time>
      </trkpt>
      <trkpt lat="47.541606" lon="7.870424">
        <ele>338.973836</ele>
        <time>2021-11-17T01:23:11.237Z</time>
      </trkpt>
      <trkpt lat="47.541521" lon="7.870517">
        <ele>338.973836</ele>
        <time>2021-11-17T01:23:12.728Z</time>
      </trkpt>
      <trkpt lat="47.541550" lon="7.870601">
        <ele>338.973836</ele>
        <time>2021-11-17T01:23:13.606Z</time>
      </trkpt>
      <trkpt lat="47.541576" lon="7.870664">
        <ele>338.973836</ele>
        <time>2021-11-17T01:23:14.277Z</time>
      </trkpt>
      <trkpt lat="47.541410" lon="7.870791">
        <ele>338.973836</ele>
        <time>2021-11-17T01:23:17.474Z</time>
      </trkpt>
      <trkpt lat="47.541310" lon="7.870874">
        <ele>338.973836</ele>
        <time>2021-11-17T01:23:19.070Z</time>
      </trkpt>
      <trkpt lat="47.541300" lon="7.870882">
        <ele>338.973836</ele>
        <time>2021-11-17T01:23:19.227Z</time>
      </trkpt>
    </trkseg>
  </trk>
</gpx>